<?xml version="1.0" encoding="UTF-8" standalone="no" ?>
<gpx xmlns="http://www.topografix.com/GPX/1/1" xmlns:xsi="http://www.w3.org/2001/XMLSchema-instance" xsi:schemaLocation="http://www.topografix.com/GPX/1/1 http://www.topografix.com/GPX/1/1/gpx.xsd" version="1.1" creator="VisuGPX - https://www.visugpx.com">
  <metadata>
    <name>Saut des cuves - Honeck - Clefcy - Saut des cuves</name>
    <desc><![CDATA[Parcours de 4 jours dans les hautes vosges]]></desc>
  </metadata>
  <trk>
    <name><![CDATA[Saut des cuves - Honeck - Clefcy - Saut des cuves_1]]></name>
    <trkseg>
      <trkpt lat="48.08406" lon="6.90962">
        <ele>694</ele>
        <time>2015-05-14T09:39:52.665Z</time>
      </trkpt>
      <trkpt lat="48.08405" lon="6.90955">
        <ele>694</ele>
        <time>2015-05-14T09:40:52.705Z</time>
      </trkpt>
      <trkpt lat="48.08407" lon="6.90953">
        <ele>694</ele>
        <time>2015-05-14T09:41:53.699Z</time>
      </trkpt>
      <trkpt lat="48.08418" lon="6.90939">
        <ele>697</ele>
        <time>2015-05-14T09:42:38.664Z</time>
      </trkpt>
      <trkpt lat="48.08416" lon="6.9096">
        <ele>694</ele>
        <time>2015-05-14T09:42:46.655Z</time>
      </trkpt>
      <trkpt lat="48.08421" lon="6.91012">
        <ele>698</ele>
        <time>2015-05-14T09:43:14.653Z</time>
      </trkpt>
      <trkpt lat="48.08398" lon="6.91034">
        <ele>700</ele>
        <time>2015-05-14T09:43:50.639Z</time>
      </trkpt>
      <trkpt lat="48.0837" lon="6.91087">
        <ele>705</ele>
        <time>2015-05-14T09:44:51.638Z</time>
      </trkpt>
      <trkpt lat="48.08355" lon="6.91104">
        <ele>705</ele>
        <time>2015-05-14T09:45:06.629Z</time>
      </trkpt>
      <trkpt lat="48.08359" lon="6.91077">
        <ele>702</ele>
        <time>2015-05-14T09:45:24.623Z</time>
      </trkpt>
      <trkpt lat="48.08342" lon="6.91038">
        <ele>699</ele>
        <time>2015-05-14T09:46:25.615Z</time>
      </trkpt>
      <trkpt lat="48.08328" lon="6.91018">
        <ele>696</ele>
        <time>2015-05-14T09:47:25.615Z</time>
      </trkpt>
      <trkpt lat="48.08313" lon="6.9101">
        <ele>696</ele>
        <time>2015-05-14T09:47:34.621Z</time>
      </trkpt>
      <trkpt lat="48.083" lon="6.91001">
        <ele>697</ele>
        <time>2015-05-14T09:47:49.62Z</time>
      </trkpt>
      <trkpt lat="48.08292" lon="6.9102">
        <ele>697</ele>
        <time>2015-05-14T09:47:55.615Z</time>
      </trkpt>
      <trkpt lat="48.08278" lon="6.91018">
        <ele>697</ele>
        <time>2015-05-14T09:48:06.609Z</time>
      </trkpt>
      <trkpt lat="48.0828" lon="6.9099">
        <ele>695</ele>
        <time>2015-05-14T09:48:25.606Z</time>
      </trkpt>
      <trkpt lat="48.08256" lon="6.90933">
        <ele>698</ele>
        <time>2015-05-14T09:49:11.595Z</time>
      </trkpt>
      <trkpt lat="48.08222" lon="6.90902">
        <ele>712</ele>
        <time>2015-05-14T09:49:41.59Z</time>
      </trkpt>
      <trkpt lat="48.08194" lon="6.90887">
        <ele>717</ele>
        <time>2015-05-14T09:50:42.583Z</time>
      </trkpt>
      <trkpt lat="48.08155" lon="6.90868">
        <ele>731</ele>
        <time>2015-05-14T09:51:42.59Z</time>
      </trkpt>
      <trkpt lat="48.08114" lon="6.90896">
        <ele>737</ele>
        <time>2015-05-14T09:52:43.58Z</time>
      </trkpt>
      <trkpt lat="48.08083" lon="6.90947">
        <ele>743</ele>
        <time>2015-05-14T09:53:34.579Z</time>
      </trkpt>
      <trkpt lat="48.08071" lon="6.91012">
        <ele>759</ele>
        <time>2015-05-14T09:54:24.571Z</time>
      </trkpt>
      <trkpt lat="48.08039" lon="6.91056">
        <ele>766</ele>
        <time>2015-05-14T09:55:25.574Z</time>
      </trkpt>
      <trkpt lat="48.08011" lon="6.91081">
        <ele>774</ele>
        <time>2015-05-14T09:55:58.574Z</time>
      </trkpt>
      <trkpt lat="48.07981" lon="6.91115">
        <ele>785</ele>
        <time>2015-05-14T09:56:59.566Z</time>
      </trkpt>
      <trkpt lat="48.07948" lon="6.91161">
        <ele>788</ele>
        <time>2015-05-14T09:57:54.57Z</time>
      </trkpt>
      <trkpt lat="48.07939" lon="6.91166">
        <ele>790</ele>
        <time>2015-05-14T09:58:55.573Z</time>
      </trkpt>
      <trkpt lat="48.07919" lon="6.91177">
        <ele>789</ele>
        <time>2015-05-14T09:59:50.576Z</time>
      </trkpt>
      <trkpt lat="48.07911" lon="6.91179">
        <ele>798</ele>
        <time>2015-05-14T10:00:50.58Z</time>
      </trkpt>
      <trkpt lat="48.079" lon="6.91193">
        <ele>800</ele>
        <time>2015-05-14T10:01:51.573Z</time>
      </trkpt>
      <trkpt lat="48.07883" lon="6.91203">
        <ele>802</ele>
        <time>2015-05-14T10:02:51.578Z</time>
      </trkpt>
      <trkpt lat="48.07848" lon="6.91214">
        <ele>807</ele>
        <time>2015-05-14T10:03:51.578Z</time>
      </trkpt>
      <trkpt lat="48.07823" lon="6.91207">
        <ele>821</ele>
        <time>2015-05-14T10:04:24.578Z</time>
      </trkpt>
      <trkpt lat="48.07774" lon="6.91202">
        <ele>826</ele>
        <time>2015-05-14T10:05:14.58Z</time>
      </trkpt>
      <trkpt lat="48.07765" lon="6.91205">
        <ele>827</ele>
        <time>2015-05-14T10:06:14.58Z</time>
      </trkpt>
      <trkpt lat="48.07758" lon="6.91173">
        <ele>835</ele>
        <time>2015-05-14T10:07:14.58Z</time>
      </trkpt>
      <trkpt lat="48.07758" lon="6.91127">
        <ele>840</ele>
        <time>2015-05-14T10:08:14.59Z</time>
      </trkpt>
      <trkpt lat="48.07729" lon="6.91129">
        <ele>849</ele>
        <time>2015-05-14T10:09:14.59Z</time>
      </trkpt>
      <trkpt lat="48.07704" lon="6.91113">
        <ele>852</ele>
        <time>2015-05-14T10:10:15.588Z</time>
      </trkpt>
      <trkpt lat="48.07701" lon="6.91124">
        <ele>851</ele>
        <time>2015-05-14T10:11:16.588Z</time>
      </trkpt>
      <trkpt lat="48.07701" lon="6.9112">
        <ele>851</ele>
        <time>2015-05-14T10:12:16.595Z</time>
      </trkpt>
      <trkpt lat="48.07687" lon="6.91126">
        <ele>851</ele>
        <time>2015-05-14T10:12:52.583Z</time>
      </trkpt>
      <trkpt lat="48.07668" lon="6.91139">
        <ele>850</ele>
        <time>2015-05-14T10:13:21.585Z</time>
      </trkpt>
      <trkpt lat="48.07654" lon="6.9114">
        <ele>856</ele>
        <time>2015-05-14T10:13:32.59Z</time>
      </trkpt>
      <trkpt lat="48.07641" lon="6.91147">
        <ele>857</ele>
        <time>2015-05-14T10:13:44.591Z</time>
      </trkpt>
      <trkpt lat="48.07627" lon="6.91154">
        <ele>858</ele>
        <time>2015-05-14T10:13:58.589Z</time>
      </trkpt>
      <trkpt lat="48.07593" lon="6.91156">
        <ele>859</ele>
        <time>2015-05-14T10:14:30.59Z</time>
      </trkpt>
      <trkpt lat="48.07579" lon="6.91155">
        <ele>864</ele>
        <time>2015-05-14T10:14:45.59Z</time>
      </trkpt>
      <trkpt lat="48.07535" lon="6.91144">
        <ele>872</ele>
        <time>2015-05-14T10:15:33.59Z</time>
      </trkpt>
      <trkpt lat="48.07535" lon="6.91123">
        <ele>873</ele>
        <time>2015-05-14T10:15:48.59Z</time>
      </trkpt>
      <trkpt lat="48.0754" lon="6.91031">
        <ele>882</ele>
        <time>2015-05-14T10:16:48.593Z</time>
      </trkpt>
      <trkpt lat="48.07537" lon="6.91011">
        <ele>883</ele>
        <time>2015-05-14T10:17:00.595Z</time>
      </trkpt>
      <trkpt lat="48.07544" lon="6.90993">
        <ele>887</ele>
        <time>2015-05-14T10:17:14.59Z</time>
      </trkpt>
      <trkpt lat="48.07538" lon="6.90975">
        <ele>888</ele>
        <time>2015-05-14T10:17:25.593Z</time>
      </trkpt>
      <trkpt lat="48.07534" lon="6.90954">
        <ele>890</ele>
        <time>2015-05-14T10:17:39.588Z</time>
      </trkpt>
      <trkpt lat="48.07534" lon="6.90932">
        <ele>891</ele>
        <time>2015-05-14T10:17:53.593Z</time>
      </trkpt>
      <trkpt lat="48.07529" lon="6.90911">
        <ele>895</ele>
        <time>2015-05-14T10:18:05.594Z</time>
      </trkpt>
      <trkpt lat="48.07527" lon="6.90889">
        <ele>895</ele>
        <time>2015-05-14T10:18:17.585Z</time>
      </trkpt>
      <trkpt lat="48.07528" lon="6.90868">
        <ele>895</ele>
        <time>2015-05-14T10:18:46.59Z</time>
      </trkpt>
      <trkpt lat="48.07522" lon="6.90805">
        <ele>897</ele>
        <time>2015-05-14T10:19:31.59Z</time>
      </trkpt>
      <trkpt lat="48.07505" lon="6.90773">
        <ele>899</ele>
        <time>2015-05-14T10:20:05.591Z</time>
      </trkpt>
      <trkpt lat="48.07491" lon="6.90743">
        <ele>907</ele>
        <time>2015-05-14T10:20:28.585Z</time>
      </trkpt>
      <trkpt lat="48.07474" lon="6.90719">
        <ele>912</ele>
        <time>2015-05-14T10:21:28.591Z</time>
      </trkpt>
      <trkpt lat="48.07469" lon="6.90709">
        <ele>913</ele>
        <time>2015-05-14T10:22:28.593Z</time>
      </trkpt>
      <trkpt lat="48.07455" lon="6.90723">
        <ele>915</ele>
        <time>2015-05-14T10:23:11.591Z</time>
      </trkpt>
      <trkpt lat="48.07434" lon="6.90783">
        <ele>912</ele>
        <time>2015-05-14T10:23:53.591Z</time>
      </trkpt>
      <trkpt lat="48.07423" lon="6.90796">
        <ele>911</ele>
        <time>2015-05-14T10:24:08.596Z</time>
      </trkpt>
      <trkpt lat="48.07388" lon="6.90829">
        <ele>922</ele>
        <time>2015-05-14T10:24:51.595Z</time>
      </trkpt>
      <trkpt lat="48.07375" lon="6.90834">
        <ele>919</ele>
        <time>2015-05-14T10:25:04.595Z</time>
      </trkpt>
      <trkpt lat="48.07361" lon="6.90846">
        <ele>921</ele>
        <time>2015-05-14T10:25:21.594Z</time>
      </trkpt>
      <trkpt lat="48.07346" lon="6.90858">
        <ele>921</ele>
        <time>2015-05-14T10:25:39.59Z</time>
      </trkpt>
      <trkpt lat="48.07299" lon="6.90869">
        <ele>931</ele>
        <time>2015-05-14T10:26:31.603Z</time>
      </trkpt>
      <trkpt lat="48.07299" lon="6.90862">
        <ele>932</ele>
        <time>2015-05-14T10:27:31.603Z</time>
      </trkpt>
      <trkpt lat="48.0729" lon="6.90849">
        <ele>933</ele>
        <time>2015-05-14T10:28:32.6Z</time>
      </trkpt>
      <trkpt lat="48.07278" lon="6.90837">
        <ele>936</ele>
        <time>2015-05-14T10:28:48.604Z</time>
      </trkpt>
      <trkpt lat="48.07252" lon="6.90816">
        <ele>945</ele>
        <time>2015-05-14T10:29:28.603Z</time>
      </trkpt>
      <trkpt lat="48.07205" lon="6.90824">
        <ele>957</ele>
        <time>2015-05-14T10:30:19.605Z</time>
      </trkpt>
      <trkpt lat="48.0719" lon="6.9082">
        <ele>958</ele>
        <time>2015-05-14T10:30:39.6Z</time>
      </trkpt>
      <trkpt lat="48.07145" lon="6.90799">
        <ele>967</ele>
        <time>2015-05-14T10:31:28.608Z</time>
      </trkpt>
      <trkpt lat="48.07128" lon="6.9079">
        <ele>969</ele>
        <time>2015-05-14T10:31:51.62Z</time>
      </trkpt>
      <trkpt lat="48.0712" lon="6.90807">
        <ele>969</ele>
        <time>2015-05-14T10:32:12.605Z</time>
      </trkpt>
      <trkpt lat="48.07101" lon="6.90821">
        <ele>969</ele>
        <time>2015-05-14T10:32:43.605Z</time>
      </trkpt>
      <trkpt lat="48.07071" lon="6.90792">
        <ele>978</ele>
        <time>2015-05-14T10:33:29.605Z</time>
      </trkpt>
      <trkpt lat="48.07059" lon="6.9078">
        <ele>979</ele>
        <time>2015-05-14T10:33:46.606Z</time>
      </trkpt>
      <trkpt lat="48.07027" lon="6.9079">
        <ele>981</ele>
        <time>2015-05-14T10:34:46.608Z</time>
      </trkpt>
      <trkpt lat="48.07015" lon="6.90777">
        <ele>983</ele>
        <time>2015-05-14T10:35:47.6Z</time>
      </trkpt>
      <trkpt lat="48.07021" lon="6.90786">
        <ele>982</ele>
        <time>2015-05-14T10:36:47.608Z</time>
      </trkpt>
      <trkpt lat="48.07015" lon="6.90807">
        <ele>982</ele>
        <time>2015-05-14T10:37:04.599Z</time>
      </trkpt>
      <trkpt lat="48.06987" lon="6.90842">
        <ele>987</ele>
        <time>2015-05-14T10:37:43.61Z</time>
      </trkpt>
      <trkpt lat="48.06976" lon="6.90868">
        <ele>988</ele>
        <time>2015-05-14T10:38:02.595Z</time>
      </trkpt>
      <trkpt lat="48.06962" lon="6.90878">
        <ele>989</ele>
        <time>2015-05-14T10:38:11.605Z</time>
      </trkpt>
      <trkpt lat="48.0693" lon="6.90926">
        <ele>990</ele>
        <time>2015-05-14T10:39:07.605Z</time>
      </trkpt>
      <trkpt lat="48.06886" lon="6.90946">
        <ele>996</ele>
        <time>2015-05-14T10:40:03.605Z</time>
      </trkpt>
      <trkpt lat="48.06868" lon="6.90966">
        <ele>997</ele>
        <time>2015-05-14T10:40:31.598Z</time>
      </trkpt>
      <trkpt lat="48.06843" lon="6.90983">
        <ele>999</ele>
        <time>2015-05-14T10:40:57.668Z</time>
      </trkpt>
      <trkpt lat="48.06796" lon="6.91033">
        <ele>1008</ele>
        <time>2015-05-14T10:41:55.598Z</time>
      </trkpt>
      <trkpt lat="48.06781" lon="6.91041">
        <ele>1009</ele>
        <time>2015-05-14T10:42:09.62Z</time>
      </trkpt>
      <trkpt lat="48.0673" lon="6.91082">
        <ele>1014</ele>
        <time>2015-05-14T10:43:01.594Z</time>
      </trkpt>
      <trkpt lat="48.06717" lon="6.9109">
        <ele>1015</ele>
        <time>2015-05-14T10:43:15.6Z</time>
      </trkpt>
      <trkpt lat="48.06703" lon="6.91086">
        <ele>1015</ele>
        <time>2015-05-14T10:43:29.566Z</time>
      </trkpt>
      <trkpt lat="48.06656" lon="6.9107">
        <ele>1015</ele>
        <time>2015-05-14T10:44:24.58Z</time>
      </trkpt>
      <trkpt lat="48.06597" lon="6.91065">
        <ele>1014</ele>
        <time>2015-05-14T10:45:10.59Z</time>
      </trkpt>
      <trkpt lat="48.06591" lon="6.91083">
        <ele>1013</ele>
        <time>2015-05-14T10:45:20.594Z</time>
      </trkpt>
      <trkpt lat="48.0658" lon="6.91123">
        <ele>1017</ele>
        <time>2015-05-14T10:45:42.601Z</time>
      </trkpt>
      <trkpt lat="48.06572" lon="6.9114">
        <ele>1018</ele>
        <time>2015-05-14T10:45:53.62Z</time>
      </trkpt>
      <trkpt lat="48.06566" lon="6.91163">
        <ele>1019</ele>
        <time>2015-05-14T10:46:06.621Z</time>
      </trkpt>
      <trkpt lat="48.06554" lon="6.91176">
        <ele>1021</ele>
        <time>2015-05-14T10:46:17.623Z</time>
      </trkpt>
      <trkpt lat="48.06513" lon="6.91264">
        <ele>1025</ele>
        <time>2015-05-14T10:47:13.619Z</time>
      </trkpt>
      <trkpt lat="48.06501" lon="6.91289">
        <ele>1026</ele>
        <time>2015-05-14T10:47:29.619Z</time>
      </trkpt>
      <trkpt lat="48.06486" lon="6.91303">
        <ele>1023</ele>
        <time>2015-05-14T10:47:43.62Z</time>
      </trkpt>
      <trkpt lat="48.06479" lon="6.91325">
        <ele>1024</ele>
        <time>2015-05-14T10:47:57.62Z</time>
      </trkpt>
      <trkpt lat="48.0647" lon="6.91346">
        <ele>1024</ele>
        <time>2015-05-14T10:48:08.624Z</time>
      </trkpt>
      <trkpt lat="48.06455" lon="6.91377">
        <ele>1023</ele>
        <time>2015-05-14T10:48:28.623Z</time>
      </trkpt>
      <trkpt lat="48.06447" lon="6.91399">
        <ele>1023</ele>
        <time>2015-05-14T10:48:41.62Z</time>
      </trkpt>
      <trkpt lat="48.06443" lon="6.91419">
        <ele>1023</ele>
        <time>2015-05-14T10:48:53.62Z</time>
      </trkpt>
      <trkpt lat="48.06439" lon="6.91439">
        <ele>1023</ele>
        <time>2015-05-14T10:49:05.619Z</time>
      </trkpt>
      <trkpt lat="48.0644" lon="6.9146">
        <ele>1023</ele>
        <time>2015-05-14T10:49:16.619Z</time>
      </trkpt>
      <trkpt lat="48.06445" lon="6.91479">
        <ele>1023</ele>
        <time>2015-05-14T10:50:16.639Z</time>
      </trkpt>
      <trkpt lat="48.06444" lon="6.9149">
        <ele>1023</ele>
        <time>2015-05-14T10:51:17.625Z</time>
      </trkpt>
      <trkpt lat="48.06418" lon="6.91485">
        <ele>1021</ele>
        <time>2015-05-14T10:52:07.629Z</time>
      </trkpt>
      <trkpt lat="48.06404" lon="6.91469">
        <ele>1016</ele>
        <time>2015-05-14T10:52:29.628Z</time>
      </trkpt>
      <trkpt lat="48.06389" lon="6.91443">
        <ele>1015</ele>
        <time>2015-05-14T10:52:47.629Z</time>
      </trkpt>
      <trkpt lat="48.06372" lon="6.91421">
        <ele>1014</ele>
        <time>2015-05-14T10:53:02.618Z</time>
      </trkpt>
      <trkpt lat="48.06351" lon="6.91396">
        <ele>1011</ele>
        <time>2015-05-14T10:53:21.609Z</time>
      </trkpt>
      <trkpt lat="48.06333" lon="6.91386">
        <ele>1004</ele>
        <time>2015-05-14T10:54:21.619Z</time>
      </trkpt>
      <trkpt lat="48.06328" lon="6.91387">
        <ele>1004</ele>
        <time>2015-05-14T10:55:21.619Z</time>
      </trkpt>
      <trkpt lat="48.06332" lon="6.91383">
        <ele>1004</ele>
        <time>2015-05-14T10:56:21.629Z</time>
      </trkpt>
      <trkpt lat="48.0633" lon="6.91395">
        <ele>1005</ele>
        <time>2015-05-14T10:57:22.624Z</time>
      </trkpt>
      <trkpt lat="48.06321" lon="6.9141">
        <ele>1005</ele>
        <time>2015-05-14T10:58:22.635Z</time>
      </trkpt>
      <trkpt lat="48.06331" lon="6.91402">
        <ele>1005</ele>
        <time>2015-05-14T10:59:23.623Z</time>
      </trkpt>
      <trkpt lat="48.06329" lon="6.91404">
        <ele>1006</ele>
        <time>2015-05-14T11:00:23.655Z</time>
      </trkpt>
      <trkpt lat="48.06331" lon="6.91407">
        <ele>1006</ele>
        <time>2015-05-14T11:01:24.619Z</time>
      </trkpt>
      <trkpt lat="48.06327" lon="6.91406">
        <ele>1006</ele>
        <time>2015-05-14T11:02:25.611Z</time>
      </trkpt>
      <trkpt lat="48.0634" lon="6.91411">
        <ele>1009</ele>
        <time>2015-05-14T11:03:26.608Z</time>
      </trkpt>
      <trkpt lat="48.06329" lon="6.91409">
        <ele>1006</ele>
        <time>2015-05-14T11:04:26.611Z</time>
      </trkpt>
      <trkpt lat="48.06339" lon="6.91411">
        <ele>1009</ele>
        <time>2015-05-14T11:05:26.611Z</time>
      </trkpt>
      <trkpt lat="48.06332" lon="6.91417">
        <ele>1008</ele>
        <time>2015-05-14T11:06:26.615Z</time>
      </trkpt>
      <trkpt lat="48.06332" lon="6.91417">
        <ele>1008</ele>
        <time>2015-05-14T11:07:27.61Z</time>
      </trkpt>
      <trkpt lat="48.06332" lon="6.91417">
        <ele>1008</ele>
        <time>2015-05-14T11:08:28.604Z</time>
      </trkpt>
      <trkpt lat="48.06334" lon="6.91411">
        <ele>1009</ele>
        <time>2015-05-14T11:09:28.605Z</time>
      </trkpt>
      <trkpt lat="48.06333" lon="6.91411">
        <ele>1009</ele>
        <time>2015-05-14T11:10:28.606Z</time>
      </trkpt>
      <trkpt lat="48.06333" lon="6.91411">
        <ele>1009</ele>
        <time>2015-05-14T11:11:28.606Z</time>
      </trkpt>
      <trkpt lat="48.06327" lon="6.91401">
        <ele>1005</ele>
        <time>2015-05-14T11:12:28.61Z</time>
      </trkpt>
      <trkpt lat="48.06327" lon="6.91401">
        <ele>1005</ele>
        <time>2015-05-14T11:13:28.638Z</time>
      </trkpt>
      <trkpt lat="48.06327" lon="6.91401">
        <ele>1005</ele>
        <time>2015-05-14T11:14:29.606Z</time>
      </trkpt>
      <trkpt lat="48.06327" lon="6.91401">
        <ele>1005</ele>
        <time>2015-05-14T11:15:29.609Z</time>
      </trkpt>
      <trkpt lat="48.06323" lon="6.91406">
        <ele>1005</ele>
        <time>2015-05-14T11:16:30.606Z</time>
      </trkpt>
      <trkpt lat="48.06323" lon="6.91406">
        <ele>1005</ele>
        <time>2015-05-14T11:17:30.61Z</time>
      </trkpt>
      <trkpt lat="48.06325" lon="6.91411">
        <ele>1006</ele>
        <time>2015-05-14T11:18:30.611Z</time>
      </trkpt>
      <trkpt lat="48.06325" lon="6.91411">
        <ele>1006</ele>
        <time>2015-05-14T11:19:30.666Z</time>
      </trkpt>
      <trkpt lat="48.06325" lon="6.9141">
        <ele>1006</ele>
        <time>2015-05-14T11:20:31.609Z</time>
      </trkpt>
      <trkpt lat="48.06326" lon="6.9141">
        <ele>1006</ele>
        <time>2015-05-14T11:21:31.609Z</time>
      </trkpt>
      <trkpt lat="48.06329" lon="6.91405">
        <ele>1006</ele>
        <time>2015-05-14T11:22:31.61Z</time>
      </trkpt>
      <trkpt lat="48.06331" lon="6.91416">
        <ele>1007</ele>
        <time>2015-05-14T11:23:31.616Z</time>
      </trkpt>
      <trkpt lat="48.06329" lon="6.91411">
        <ele>1006</ele>
        <time>2015-05-14T11:24:31.625Z</time>
      </trkpt>
      <trkpt lat="48.06329" lon="6.91411">
        <ele>1006</ele>
        <time>2015-05-14T11:25:32.61Z</time>
      </trkpt>
      <trkpt lat="48.06329" lon="6.91412">
        <ele>1007</ele>
        <time>2015-05-14T11:26:32.611Z</time>
      </trkpt>
      <trkpt lat="48.06329" lon="6.91412">
        <ele>1007</ele>
        <time>2015-05-14T11:27:32.615Z</time>
      </trkpt>
      <trkpt lat="48.06329" lon="6.91412">
        <ele>1007</ele>
        <time>2015-05-14T11:28:33.613Z</time>
      </trkpt>
      <trkpt lat="48.06333" lon="6.91403">
        <ele>1010</ele>
        <time>2015-05-14T11:29:34.613Z</time>
      </trkpt>
      <trkpt lat="48.06329" lon="6.91397">
        <ele>1005</ele>
        <time>2015-05-14T11:30:35.609Z</time>
      </trkpt>
      <trkpt lat="48.06328" lon="6.91406">
        <ele>1006</ele>
        <time>2015-05-14T11:31:35.611Z</time>
      </trkpt>
      <trkpt lat="48.06328" lon="6.91406">
        <ele>1006</ele>
        <time>2015-05-14T11:32:35.614Z</time>
      </trkpt>
      <trkpt lat="48.06329" lon="6.91406">
        <ele>1006</ele>
        <time>2015-05-14T11:33:36.609Z</time>
      </trkpt>
      <trkpt lat="48.06336" lon="6.91364">
        <ele>1009</ele>
        <time>2015-05-14T11:34:37.606Z</time>
      </trkpt>
      <trkpt lat="48.06341" lon="6.91337">
        <ele>1006</ele>
        <time>2015-05-14T11:34:58.608Z</time>
      </trkpt>
      <trkpt lat="48.0635" lon="6.9132">
        <ele>1007</ele>
        <time>2015-05-14T11:35:09.608Z</time>
      </trkpt>
      <trkpt lat="48.06358" lon="6.91299">
        <ele>1008</ele>
        <time>2015-05-14T11:35:29.608Z</time>
      </trkpt>
      <trkpt lat="48.06368" lon="6.91274">
        <ele>1008</ele>
        <time>2015-05-14T11:35:43.606Z</time>
      </trkpt>
      <trkpt lat="48.06379" lon="6.91242">
        <ele>1006</ele>
        <time>2015-05-14T11:36:04.608Z</time>
      </trkpt>
      <trkpt lat="48.06392" lon="6.9117">
        <ele>1006</ele>
        <time>2015-05-14T11:36:39.608Z</time>
      </trkpt>
      <trkpt lat="48.06397" lon="6.91144">
        <ele>1004</ele>
        <time>2015-05-14T11:36:56.609Z</time>
      </trkpt>
      <trkpt lat="48.06398" lon="6.91104">
        <ele>1003</ele>
        <time>2015-05-14T11:37:16.61Z</time>
      </trkpt>
      <trkpt lat="48.06383" lon="6.911">
        <ele>1003</ele>
        <time>2015-05-14T11:38:17.608Z</time>
      </trkpt>
      <trkpt lat="48.06344" lon="6.91133">
        <ele>1001</ele>
        <time>2015-05-14T11:38:53.608Z</time>
      </trkpt>
      <trkpt lat="48.0631" lon="6.91178">
        <ele>996</ele>
        <time>2015-05-14T11:39:37.608Z</time>
      </trkpt>
      <trkpt lat="48.06276" lon="6.91225">
        <ele>995</ele>
        <time>2015-05-14T11:40:22.608Z</time>
      </trkpt>
      <trkpt lat="48.06228" lon="6.9122">
        <ele>986</ele>
        <time>2015-05-14T11:41:07.609Z</time>
      </trkpt>
      <trkpt lat="48.06217" lon="6.91218">
        <ele>985</ele>
        <time>2015-05-14T11:42:07.613Z</time>
      </trkpt>
      <trkpt lat="48.06221" lon="6.91214">
        <ele>985</ele>
        <time>2015-05-14T11:43:08.613Z</time>
      </trkpt>
      <trkpt lat="48.06221" lon="6.91214">
        <ele>985</ele>
        <time>2015-05-14T11:44:09.611Z</time>
      </trkpt>
      <trkpt lat="48.06219" lon="6.91244">
        <ele>986</ele>
        <time>2015-05-14T11:45:10.608Z</time>
      </trkpt>
      <trkpt lat="48.06193" lon="6.91221">
        <ele>983</ele>
        <time>2015-05-14T11:46:10.61Z</time>
      </trkpt>
      <trkpt lat="48.06171" lon="6.91184">
        <ele>978</ele>
        <time>2015-05-14T11:47:10.61Z</time>
      </trkpt>
      <trkpt lat="48.0616" lon="6.9117">
        <ele>971</ele>
        <time>2015-05-14T11:48:11.608Z</time>
      </trkpt>
      <trkpt lat="48.06129" lon="6.91161">
        <ele>963</ele>
        <time>2015-05-14T11:49:11.613Z</time>
      </trkpt>
      <trkpt lat="48.06123" lon="6.91158">
        <ele>962</ele>
        <time>2015-05-14T11:50:12.613Z</time>
      </trkpt>
      <trkpt lat="48.0611" lon="6.91163">
        <ele>961</ele>
        <time>2015-05-14T11:51:13.611Z</time>
      </trkpt>
      <trkpt lat="48.06094" lon="6.91149">
        <ele>960</ele>
        <time>2015-05-14T11:52:14.608Z</time>
      </trkpt>
      <trkpt lat="48.06065" lon="6.91123">
        <ele>949</ele>
        <time>2015-05-14T11:53:14.615Z</time>
      </trkpt>
      <trkpt lat="48.06051" lon="6.91121">
        <ele>948</ele>
        <time>2015-05-14T11:54:15.609Z</time>
      </trkpt>
      <trkpt lat="48.06038" lon="6.91137">
        <ele>948</ele>
        <time>2015-05-14T11:55:15.609Z</time>
      </trkpt>
      <trkpt lat="48.06032" lon="6.91146">
        <ele>948</ele>
        <time>2015-05-14T11:56:15.61Z</time>
      </trkpt>
      <trkpt lat="48.06016" lon="6.9118">
        <ele>954</ele>
        <time>2015-05-14T11:57:16.608Z</time>
      </trkpt>
      <trkpt lat="48.06007" lon="6.91163">
        <ele>947</ele>
        <time>2015-05-14T11:57:57.605Z</time>
      </trkpt>
      <trkpt lat="48.05997" lon="6.91143">
        <ele>941</ele>
        <time>2015-05-14T11:58:05.61Z</time>
      </trkpt>
      <trkpt lat="48.0596" lon="6.911">
        <ele>936</ele>
        <time>2015-05-14T11:58:47.609Z</time>
      </trkpt>
      <trkpt lat="48.0596" lon="6.9109">
        <ele>935</ele>
        <time>2015-05-14T11:59:47.613Z</time>
      </trkpt>
      <trkpt lat="48.05954" lon="6.91088">
        <ele>935</ele>
        <time>2015-05-14T12:00:48.609Z</time>
      </trkpt>
      <trkpt lat="48.05907" lon="6.91093">
        <ele>929</ele>
        <time>2015-05-14T12:01:41.609Z</time>
      </trkpt>
      <trkpt lat="48.05892" lon="6.91104">
        <ele>931</ele>
        <time>2015-05-14T12:01:54.614Z</time>
      </trkpt>
      <trkpt lat="48.05854" lon="6.91109">
        <ele>931</ele>
        <time>2015-05-14T12:02:28.609Z</time>
      </trkpt>
      <trkpt lat="48.0583" lon="6.91108">
        <ele>935</ele>
        <time>2015-05-14T12:02:46.605Z</time>
      </trkpt>
      <trkpt lat="48.05785" lon="6.91092">
        <ele>939</ele>
        <time>2015-05-14T12:03:29.609Z</time>
      </trkpt>
      <trkpt lat="48.05737" lon="6.91111">
        <ele>947</ele>
        <time>2015-05-14T12:04:21.609Z</time>
      </trkpt>
      <trkpt lat="48.05722" lon="6.91112">
        <ele>947</ele>
        <time>2015-05-14T12:04:31.605Z</time>
      </trkpt>
      <trkpt lat="48.05645" lon="6.91137">
        <ele>950</ele>
        <time>2015-05-14T12:05:31.609Z</time>
      </trkpt>
      <trkpt lat="48.05629" lon="6.91139">
        <ele>950</ele>
        <time>2015-05-14T12:05:46.609Z</time>
      </trkpt>
      <trkpt lat="48.05617" lon="6.91142">
        <ele>950</ele>
        <time>2015-05-14T12:06:46.614Z</time>
      </trkpt>
      <trkpt lat="48.05616" lon="6.91139">
        <ele>949</ele>
        <time>2015-05-14T12:07:46.616Z</time>
      </trkpt>
      <trkpt lat="48.05617" lon="6.91146">
        <ele>950</ele>
        <time>2015-05-14T12:08:46.619Z</time>
      </trkpt>
      <trkpt lat="48.05612" lon="6.91131">
        <ele>949</ele>
        <time>2015-05-14T12:09:47.613Z</time>
      </trkpt>
      <trkpt lat="48.05607" lon="6.91146">
        <ele>949</ele>
        <time>2015-05-14T12:10:47.615Z</time>
      </trkpt>
      <trkpt lat="48.05617" lon="6.91142">
        <ele>950</ele>
        <time>2015-05-14T12:11:47.615Z</time>
      </trkpt>
      <trkpt lat="48.05599" lon="6.91177">
        <ele>956</ele>
        <time>2015-05-14T12:12:48.615Z</time>
      </trkpt>
      <trkpt lat="48.05615" lon="6.91151">
        <ele>950</ele>
        <time>2015-05-14T12:13:13.605Z</time>
      </trkpt>
      <trkpt lat="48.05602" lon="6.91139">
        <ele>949</ele>
        <time>2015-05-14T12:13:28.628Z</time>
      </trkpt>
      <trkpt lat="48.05572" lon="6.91124">
        <ele>946</ele>
        <time>2015-05-14T12:13:52.606Z</time>
      </trkpt>
      <trkpt lat="48.05554" lon="6.911">
        <ele>946</ele>
        <time>2015-05-14T12:14:12.606Z</time>
      </trkpt>
      <trkpt lat="48.05546" lon="6.91117">
        <ele>946</ele>
        <time>2015-05-14T12:14:28.61Z</time>
      </trkpt>
      <trkpt lat="48.05525" lon="6.91124">
        <ele>946</ele>
        <time>2015-05-14T12:14:48.614Z</time>
      </trkpt>
      <trkpt lat="48.05512" lon="6.91122">
        <ele>945</ele>
        <time>2015-05-14T12:14:57.61Z</time>
      </trkpt>
      <trkpt lat="48.05491" lon="6.91122">
        <ele>946</ele>
        <time>2015-05-14T12:15:16.643Z</time>
      </trkpt>
      <trkpt lat="48.05478" lon="6.9113">
        <ele>947</ele>
        <time>2015-05-14T12:15:33.61Z</time>
      </trkpt>
      <trkpt lat="48.05462" lon="6.91137">
        <ele>947</ele>
        <time>2015-05-14T12:15:51.61Z</time>
      </trkpt>
      <trkpt lat="48.05447" lon="6.91141">
        <ele>948</ele>
        <time>2015-05-14T12:16:02.608Z</time>
      </trkpt>
      <trkpt lat="48.05443" lon="6.91164">
        <ele>948</ele>
        <time>2015-05-14T12:16:11.609Z</time>
      </trkpt>
      <trkpt lat="48.05423" lon="6.91193">
        <ele>952</ele>
        <time>2015-05-14T12:16:38.61Z</time>
      </trkpt>
      <trkpt lat="48.05379" lon="6.91214">
        <ele>964</ele>
        <time>2015-05-14T12:17:28.61Z</time>
      </trkpt>
      <trkpt lat="48.05336" lon="6.91236">
        <ele>971</ele>
        <time>2015-05-14T12:18:26.608Z</time>
      </trkpt>
      <trkpt lat="48.05305" lon="6.91239">
        <ele>988</ele>
        <time>2015-05-14T12:19:26.615Z</time>
      </trkpt>
      <trkpt lat="48.05275" lon="6.91255">
        <ele>999</ele>
        <time>2015-05-14T12:20:27.609Z</time>
      </trkpt>
      <trkpt lat="48.05254" lon="6.91251">
        <ele>1006</ele>
        <time>2015-05-14T12:21:27.613Z</time>
      </trkpt>
      <trkpt lat="48.05226" lon="6.91251">
        <ele>1019</ele>
        <time>2015-05-14T12:22:27.614Z</time>
      </trkpt>
      <trkpt lat="48.05198" lon="6.91247">
        <ele>1025</ele>
        <time>2015-05-14T12:23:27.614Z</time>
      </trkpt>
      <trkpt lat="48.05168" lon="6.9124">
        <ele>1032</ele>
        <time>2015-05-14T12:24:28.611Z</time>
      </trkpt>
      <trkpt lat="48.05138" lon="6.91255">
        <ele>1047</ele>
        <time>2015-05-14T12:25:28.616Z</time>
      </trkpt>
      <trkpt lat="48.05099" lon="6.91267">
        <ele>1056</ele>
        <time>2015-05-14T12:26:28.62Z</time>
      </trkpt>
      <trkpt lat="48.05064" lon="6.91285">
        <ele>1072</ele>
        <time>2015-05-14T12:27:29.614Z</time>
      </trkpt>
      <trkpt lat="48.0503" lon="6.91299">
        <ele>1077</ele>
        <time>2015-05-14T12:28:30.61Z</time>
      </trkpt>
      <trkpt lat="48.04998" lon="6.913">
        <ele>1095</ele>
        <time>2015-05-14T12:29:30.611Z</time>
      </trkpt>
      <trkpt lat="48.04977" lon="6.91298">
        <ele>1097</ele>
        <time>2015-05-14T12:30:30.611Z</time>
      </trkpt>
      <trkpt lat="48.04936" lon="6.91334">
        <ele>1101</ele>
        <time>2015-05-14T12:31:31.615Z</time>
      </trkpt>
      <trkpt lat="48.04899" lon="6.91313">
        <ele>1111</ele>
        <time>2015-05-14T12:32:16.608Z</time>
      </trkpt>
      <trkpt lat="48.04883" lon="6.91301">
        <ele>1111</ele>
        <time>2015-05-14T12:32:41.61Z</time>
      </trkpt>
      <trkpt lat="48.04865" lon="6.91286">
        <ele>1111</ele>
        <time>2015-05-14T12:32:51.608Z</time>
      </trkpt>
      <trkpt lat="48.04843" lon="6.91285">
        <ele>1111</ele>
        <time>2015-05-14T12:33:51.61Z</time>
      </trkpt>
      <trkpt lat="48.04855" lon="6.9128">
        <ele>1111</ele>
        <time>2015-05-14T12:34:51.613Z</time>
      </trkpt>
      <trkpt lat="48.04843" lon="6.91289">
        <ele>1111</ele>
        <time>2015-05-14T12:35:52.609Z</time>
      </trkpt>
      <trkpt lat="48.04847" lon="6.91284">
        <ele>1111</ele>
        <time>2015-05-14T12:36:52.613Z</time>
      </trkpt>
      <trkpt lat="48.04852" lon="6.91288">
        <ele>1111</ele>
        <time>2015-05-14T12:37:53.608Z</time>
      </trkpt>
      <trkpt lat="48.04846" lon="6.91296">
        <ele>1111</ele>
        <time>2015-05-14T12:38:53.61Z</time>
      </trkpt>
      <trkpt lat="48.04841" lon="6.91294">
        <ele>1111</ele>
        <time>2015-05-14T12:39:53.614Z</time>
      </trkpt>
      <trkpt lat="48.04841" lon="6.91294">
        <ele>1111</ele>
        <time>2015-05-14T12:40:53.616Z</time>
      </trkpt>
      <trkpt lat="48.04842" lon="6.91291">
        <ele>1111</ele>
        <time>2015-05-14T12:41:54.61Z</time>
      </trkpt>
      <trkpt lat="48.04845" lon="6.91294">
        <ele>1111</ele>
        <time>2015-05-14T12:42:55.61Z</time>
      </trkpt>
      <trkpt lat="48.04836" lon="6.9131">
        <ele>1111</ele>
        <time>2015-05-14T12:43:17.609Z</time>
      </trkpt>
      <trkpt lat="48.04834" lon="6.91331">
        <ele>1112</ele>
        <time>2015-05-14T12:43:28.61Z</time>
      </trkpt>
      <trkpt lat="48.04826" lon="6.91353">
        <ele>1111</ele>
        <time>2015-05-14T12:43:40.609Z</time>
      </trkpt>
      <trkpt lat="48.0482" lon="6.91372">
        <ele>1110</ele>
        <time>2015-05-14T12:43:51.61Z</time>
      </trkpt>
      <trkpt lat="48.04813" lon="6.91389">
        <ele>1109</ele>
        <time>2015-05-14T12:44:02.61Z</time>
      </trkpt>
      <trkpt lat="48.048" lon="6.91417">
        <ele>1107</ele>
        <time>2015-05-14T12:44:21.61Z</time>
      </trkpt>
      <trkpt lat="48.04791" lon="6.91433">
        <ele>1108</ele>
        <time>2015-05-14T12:44:31.61Z</time>
      </trkpt>
      <trkpt lat="48.04777" lon="6.91441">
        <ele>1109</ele>
        <time>2015-05-14T12:44:42.61Z</time>
      </trkpt>
      <trkpt lat="48.04774" lon="6.91461">
        <ele>1109</ele>
        <time>2015-05-14T12:44:52.609Z</time>
      </trkpt>
      <trkpt lat="48.04755" lon="6.91522">
        <ele>1110</ele>
        <time>2015-05-14T12:45:38.613Z</time>
      </trkpt>
      <trkpt lat="48.04727" lon="6.91576">
        <ele>1119</ele>
        <time>2015-05-14T12:46:35.609Z</time>
      </trkpt>
      <trkpt lat="48.04698" lon="6.91593">
        <ele>1123</ele>
        <time>2015-05-14T12:47:12.608Z</time>
      </trkpt>
      <trkpt lat="48.04664" lon="6.91638">
        <ele>1126</ele>
        <time>2015-05-14T12:48:07.618Z</time>
      </trkpt>
      <trkpt lat="48.04662" lon="6.91659">
        <ele>1128</ele>
        <time>2015-05-14T12:48:21.609Z</time>
      </trkpt>
      <trkpt lat="48.04674" lon="6.91683">
        <ele>1124</ele>
        <time>2015-05-14T12:49:01.608Z</time>
      </trkpt>
      <trkpt lat="48.04688" lon="6.91678">
        <ele>1123</ele>
        <time>2015-05-14T12:49:15.61Z</time>
      </trkpt>
      <trkpt lat="48.04684" lon="6.91674">
        <ele>1124</ele>
        <time>2015-05-14T12:50:15.61Z</time>
      </trkpt>
      <trkpt lat="48.04683" lon="6.91674">
        <ele>1124</ele>
        <time>2015-05-14T12:51:15.619Z</time>
      </trkpt>
      <trkpt lat="48.04683" lon="6.91674">
        <ele>1124</ele>
        <time>2015-05-14T12:52:16.62Z</time>
      </trkpt>
      <trkpt lat="48.04683" lon="6.91669">
        <ele>1124</ele>
        <time>2015-05-14T12:53:17.616Z</time>
      </trkpt>
      <trkpt lat="48.04682" lon="6.91664">
        <ele>1126</ele>
        <time>2015-05-14T12:54:18.61Z</time>
      </trkpt>
      <trkpt lat="48.04682" lon="6.9167">
        <ele>1125</ele>
        <time>2015-05-14T12:55:18.625Z</time>
      </trkpt>
      <trkpt lat="48.04682" lon="6.9167">
        <ele>1125</ele>
        <time>2015-05-14T12:56:19.616Z</time>
      </trkpt>
      <trkpt lat="48.04676" lon="6.91684">
        <ele>1124</ele>
        <time>2015-05-14T12:57:20.611Z</time>
      </trkpt>
      <trkpt lat="48.04661" lon="6.91677">
        <ele>1128</ele>
        <time>2015-05-14T12:57:31.61Z</time>
      </trkpt>
      <trkpt lat="48.0465" lon="6.91688">
        <ele>1127</ele>
        <time>2015-05-14T12:57:49.605Z</time>
      </trkpt>
      <trkpt lat="48.04638" lon="6.91699">
        <ele>1126</ele>
        <time>2015-05-14T12:57:59.608Z</time>
      </trkpt>
      <trkpt lat="48.04563" lon="6.9172">
        <ele>1125</ele>
        <time>2015-05-14T12:58:59.611Z</time>
      </trkpt>
      <trkpt lat="48.04533" lon="6.91719">
        <ele>1124</ele>
        <time>2015-05-14T12:59:25.611Z</time>
      </trkpt>
      <trkpt lat="48.04488" lon="6.91736">
        <ele>1120</ele>
        <time>2015-05-14T13:00:12.609Z</time>
      </trkpt>
      <trkpt lat="48.04428" lon="6.91699">
        <ele>1116</ele>
        <time>2015-05-14T13:01:01.608Z</time>
      </trkpt>
      <trkpt lat="48.04382" lon="6.91683">
        <ele>1108</ele>
        <time>2015-05-14T13:01:45.609Z</time>
      </trkpt>
      <trkpt lat="48.04342" lon="6.91652">
        <ele>1102</ele>
        <time>2015-05-14T13:02:33.618Z</time>
      </trkpt>
      <trkpt lat="48.04319" lon="6.91592">
        <ele>1093</ele>
        <time>2015-05-14T13:03:02.613Z</time>
      </trkpt>
      <trkpt lat="48.04313" lon="6.9154">
        <ele>1086</ele>
        <time>2015-05-14T13:03:30.609Z</time>
      </trkpt>
      <trkpt lat="48.04302" lon="6.91517">
        <ele>1084</ele>
        <time>2015-05-14T13:04:08.605Z</time>
      </trkpt>
      <trkpt lat="48.0426" lon="6.91487">
        <ele>1077</ele>
        <time>2015-05-14T13:04:52.613Z</time>
      </trkpt>
      <trkpt lat="48.04249" lon="6.91468">
        <ele>1072</ele>
        <time>2015-05-14T13:05:02.61Z</time>
      </trkpt>
      <trkpt lat="48.04234" lon="6.91453">
        <ele>1071</ele>
        <time>2015-05-14T13:05:16.608Z</time>
      </trkpt>
      <trkpt lat="48.04215" lon="6.91426">
        <ele>1070</ele>
        <time>2015-05-14T13:05:41.61Z</time>
      </trkpt>
      <trkpt lat="48.04184" lon="6.91368">
        <ele>1064</ele>
        <time>2015-05-14T13:06:18.609Z</time>
      </trkpt>
      <trkpt lat="48.04186" lon="6.91347">
        <ele>1063</ele>
        <time>2015-05-14T13:06:28.606Z</time>
      </trkpt>
      <trkpt lat="48.0418" lon="6.91328">
        <ele>1059</ele>
        <time>2015-05-14T13:07:18.608Z</time>
      </trkpt>
      <trkpt lat="48.04172" lon="6.91309">
        <ele>1059</ele>
        <time>2015-05-14T13:07:30.608Z</time>
      </trkpt>
      <trkpt lat="48.04165" lon="6.91291">
        <ele>1053</ele>
        <time>2015-05-14T13:07:43.609Z</time>
      </trkpt>
      <trkpt lat="48.04167" lon="6.91249">
        <ele>1053</ele>
        <time>2015-05-14T13:07:58.605Z</time>
      </trkpt>
      <trkpt lat="48.04172" lon="6.9123">
        <ele>1052</ele>
        <time>2015-05-14T13:08:07.605Z</time>
      </trkpt>
      <trkpt lat="48.04179" lon="6.91242">
        <ele>1052</ele>
        <time>2015-05-14T13:09:07.613Z</time>
      </trkpt>
      <trkpt lat="48.04179" lon="6.91242">
        <ele>1052</ele>
        <time>2015-05-14T13:10:08.604Z</time>
      </trkpt>
      <trkpt lat="48.04175" lon="6.91242">
        <ele>1052</ele>
        <time>2015-05-14T13:11:08.61Z</time>
      </trkpt>
      <trkpt lat="48.0418" lon="6.91233">
        <ele>1052</ele>
        <time>2015-05-14T13:12:08.615Z</time>
      </trkpt>
      <trkpt lat="48.0418" lon="6.91241">
        <ele>1052</ele>
        <time>2015-05-14T13:13:08.62Z</time>
      </trkpt>
      <trkpt lat="48.04184" lon="6.91236">
        <ele>1052</ele>
        <time>2015-05-14T13:14:08.623Z</time>
      </trkpt>
      <trkpt lat="48.04182" lon="6.91237">
        <ele>1052</ele>
        <time>2015-05-14T13:15:09.616Z</time>
      </trkpt>
      <trkpt lat="48.04183" lon="6.91241">
        <ele>1052</ele>
        <time>2015-05-14T13:16:09.621Z</time>
      </trkpt>
      <trkpt lat="48.04181" lon="6.91245">
        <ele>1052</ele>
        <time>2015-05-14T13:17:10.616Z</time>
      </trkpt>
      <trkpt lat="48.04181" lon="6.91245">
        <ele>1052</ele>
        <time>2015-05-14T13:18:11.608Z</time>
      </trkpt>
      <trkpt lat="48.04181" lon="6.91245">
        <ele>1052</ele>
        <time>2015-05-14T13:19:11.615Z</time>
      </trkpt>
      <trkpt lat="48.04181" lon="6.91245">
        <ele>1052</ele>
        <time>2015-05-14T13:20:11.615Z</time>
      </trkpt>
      <trkpt lat="48.04181" lon="6.91245">
        <ele>1052</ele>
        <time>2015-05-14T13:21:11.615Z</time>
      </trkpt>
      <trkpt lat="48.04181" lon="6.91245">
        <ele>1052</ele>
        <time>2015-05-14T13:22:11.618Z</time>
      </trkpt>
      <trkpt lat="48.04182" lon="6.91245">
        <ele>1052</ele>
        <time>2015-05-14T13:23:12.614Z</time>
      </trkpt>
      <trkpt lat="48.04182" lon="6.91244">
        <ele>1052</ele>
        <time>2015-05-14T13:24:12.614Z</time>
      </trkpt>
      <trkpt lat="48.04182" lon="6.91244">
        <ele>1052</ele>
        <time>2015-05-14T13:25:12.616Z</time>
      </trkpt>
      <trkpt lat="48.04182" lon="6.91244">
        <ele>1052</ele>
        <time>2015-05-14T13:26:13.615Z</time>
      </trkpt>
      <trkpt lat="48.04182" lon="6.91244">
        <ele>1052</ele>
        <time>2015-05-14T13:27:13.615Z</time>
      </trkpt>
      <trkpt lat="48.04182" lon="6.91244">
        <ele>1052</ele>
        <time>2015-05-14T13:28:14.618Z</time>
      </trkpt>
      <trkpt lat="48.04182" lon="6.91244">
        <ele>1052</ele>
        <time>2015-05-14T13:29:14.623Z</time>
      </trkpt>
      <trkpt lat="48.04182" lon="6.91244">
        <ele>1052</ele>
        <time>2015-05-14T13:30:15.619Z</time>
      </trkpt>
      <trkpt lat="48.04182" lon="6.91244">
        <ele>1052</ele>
        <time>2015-05-14T13:31:15.62Z</time>
      </trkpt>
      <trkpt lat="48.04182" lon="6.91244">
        <ele>1052</ele>
        <time>2015-05-14T13:32:15.621Z</time>
      </trkpt>
      <trkpt lat="48.04182" lon="6.91244">
        <ele>1052</ele>
        <time>2015-05-14T13:33:16.618Z</time>
      </trkpt>
      <trkpt lat="48.04182" lon="6.91244">
        <ele>1052</ele>
        <time>2015-05-14T13:34:17.619Z</time>
      </trkpt>
      <trkpt lat="48.04182" lon="6.91244">
        <ele>1052</ele>
        <time>2015-05-14T13:35:18.621Z</time>
      </trkpt>
      <trkpt lat="48.04182" lon="6.91243">
        <ele>1052</ele>
        <time>2015-05-14T13:36:19.619Z</time>
      </trkpt>
      <trkpt lat="48.04182" lon="6.91243">
        <ele>1052</ele>
        <time>2015-05-14T13:37:19.62Z</time>
      </trkpt>
      <trkpt lat="48.04182" lon="6.91243">
        <ele>1052</ele>
        <time>2015-05-14T13:38:20.618Z</time>
      </trkpt>
      <trkpt lat="48.04182" lon="6.91243">
        <ele>1052</ele>
        <time>2015-05-14T13:39:20.619Z</time>
      </trkpt>
      <trkpt lat="48.04181" lon="6.91243">
        <ele>1052</ele>
        <time>2015-05-14T13:40:20.62Z</time>
      </trkpt>
      <trkpt lat="48.04181" lon="6.91243">
        <ele>1052</ele>
        <time>2015-05-14T13:41:21.619Z</time>
      </trkpt>
      <trkpt lat="48.04181" lon="6.91243">
        <ele>1052</ele>
        <time>2015-05-14T13:42:21.62Z</time>
      </trkpt>
      <trkpt lat="48.04181" lon="6.91243">
        <ele>1052</ele>
        <time>2015-05-14T13:43:22.619Z</time>
      </trkpt>
      <trkpt lat="48.04181" lon="6.91242">
        <ele>1052</ele>
        <time>2015-05-14T13:44:22.62Z</time>
      </trkpt>
      <trkpt lat="48.04181" lon="6.91242">
        <ele>1052</ele>
        <time>2015-05-14T13:45:22.62Z</time>
      </trkpt>
      <trkpt lat="48.04181" lon="6.91242">
        <ele>1052</ele>
        <time>2015-05-14T13:46:23.62Z</time>
      </trkpt>
      <trkpt lat="48.04181" lon="6.91242">
        <ele>1052</ele>
        <time>2015-05-14T13:47:23.624Z</time>
      </trkpt>
      <trkpt lat="48.04181" lon="6.91242">
        <ele>1052</ele>
        <time>2015-05-14T13:48:24.619Z</time>
      </trkpt>
      <trkpt lat="48.04181" lon="6.91242">
        <ele>1052</ele>
        <time>2015-05-14T13:49:24.624Z</time>
      </trkpt>
      <trkpt lat="48.04181" lon="6.91242">
        <ele>1052</ele>
        <time>2015-05-14T13:50:25.62Z</time>
      </trkpt>
      <trkpt lat="48.0418" lon="6.91242">
        <ele>1052</ele>
        <time>2015-05-14T13:51:25.621Z</time>
      </trkpt>
      <trkpt lat="48.0418" lon="6.91242">
        <ele>1052</ele>
        <time>2015-05-14T13:52:26.621Z</time>
      </trkpt>
      <trkpt lat="48.04179" lon="6.91239">
        <ele>1052</ele>
        <time>2015-05-14T13:53:26.623Z</time>
      </trkpt>
      <trkpt lat="48.04179" lon="6.91239">
        <ele>1052</ele>
        <time>2015-05-14T13:54:26.623Z</time>
      </trkpt>
      <trkpt lat="48.04179" lon="6.91239">
        <ele>1052</ele>
        <time>2015-05-14T13:55:26.623Z</time>
      </trkpt>
      <trkpt lat="48.04179" lon="6.91239">
        <ele>1052</ele>
        <time>2015-05-14T13:56:26.625Z</time>
      </trkpt>
      <trkpt lat="48.04176" lon="6.91235">
        <ele>1052</ele>
        <time>2015-05-14T13:57:26.63Z</time>
      </trkpt>
      <trkpt lat="48.0418" lon="6.91234">
        <ele>1052</ele>
        <time>2015-05-14T13:58:27.628Z</time>
      </trkpt>
      <trkpt lat="48.04178" lon="6.9124">
        <ele>1052</ele>
        <time>2015-05-14T13:59:28.62Z</time>
      </trkpt>
      <trkpt lat="48.04177" lon="6.91241">
        <ele>1052</ele>
        <time>2015-05-14T14:00:28.635Z</time>
      </trkpt>
      <trkpt lat="48.04169" lon="6.91241">
        <ele>1052</ele>
        <time>2015-05-14T14:01:29.624Z</time>
      </trkpt>
      <trkpt lat="48.0417" lon="6.91248">
        <ele>1053</ele>
        <time>2015-05-14T14:02:30.62Z</time>
      </trkpt>
      <trkpt lat="48.04178" lon="6.91241">
        <ele>1052</ele>
        <time>2015-05-14T14:03:30.623Z</time>
      </trkpt>
      <trkpt lat="48.04178" lon="6.91241">
        <ele>1052</ele>
        <time>2015-05-14T14:04:30.626Z</time>
      </trkpt>
      <trkpt lat="48.04165" lon="6.91237">
        <ele>1050</ele>
        <time>2015-05-14T14:04:46.624Z</time>
      </trkpt>
      <trkpt lat="48.04151" lon="6.9125">
        <ele>1052</ele>
        <time>2015-05-14T14:05:02.62Z</time>
      </trkpt>
      <trkpt lat="48.04138" lon="6.9124">
        <ele>1047</ele>
        <time>2015-05-14T14:05:45.62Z</time>
      </trkpt>
      <trkpt lat="48.04144" lon="6.91237">
        <ele>1048</ele>
        <time>2015-05-14T14:06:45.62Z</time>
      </trkpt>
      <trkpt lat="48.04134" lon="6.91219">
        <ele>1046</ele>
        <time>2015-05-14T14:07:11.621Z</time>
      </trkpt>
      <trkpt lat="48.04128" lon="6.91199">
        <ele>1045</ele>
        <time>2015-05-14T14:07:24.63Z</time>
      </trkpt>
      <trkpt lat="48.04122" lon="6.91175">
        <ele>1043</ele>
        <time>2015-05-14T14:07:36.623Z</time>
      </trkpt>
      <trkpt lat="48.04112" lon="6.91138">
        <ele>1036</ele>
        <time>2015-05-14T14:08:02.625Z</time>
      </trkpt>
      <trkpt lat="48.04107" lon="6.91118">
        <ele>1035</ele>
        <time>2015-05-14T14:08:12.621Z</time>
      </trkpt>
      <trkpt lat="48.04099" lon="6.91102">
        <ele>1032</ele>
        <time>2015-05-14T14:08:21.62Z</time>
      </trkpt>
      <trkpt lat="48.04098" lon="6.9108">
        <ele>1027</ele>
        <time>2015-05-14T14:08:37.62Z</time>
      </trkpt>
      <trkpt lat="48.04106" lon="6.91014">
        <ele>1023</ele>
        <time>2015-05-14T14:09:28.625Z</time>
      </trkpt>
      <trkpt lat="48.04132" lon="6.90958">
        <ele>1015</ele>
        <time>2015-05-14T14:10:13.623Z</time>
      </trkpt>
      <trkpt lat="48.04163" lon="6.90906">
        <ele>1006</ele>
        <time>2015-05-14T14:11:04.655Z</time>
      </trkpt>
      <trkpt lat="48.042" lon="6.90867">
        <ele>1006</ele>
        <time>2015-05-14T14:11:34.628Z</time>
      </trkpt>
      <trkpt lat="48.04208" lon="6.90799">
        <ele>992</ele>
        <time>2015-05-14T14:12:30.62Z</time>
      </trkpt>
      <trkpt lat="48.0422" lon="6.90794">
        <ele>992</ele>
        <time>2015-05-14T14:13:30.621Z</time>
      </trkpt>
      <trkpt lat="48.04235" lon="6.90792">
        <ele>993</ele>
        <time>2015-05-14T14:13:37.616Z</time>
      </trkpt>
      <trkpt lat="48.04254" lon="6.90775">
        <ele>1000</ele>
        <time>2015-05-14T14:13:53.615Z</time>
      </trkpt>
      <trkpt lat="48.04277" lon="6.90734">
        <ele>993</ele>
        <time>2015-05-14T14:14:23.615Z</time>
      </trkpt>
      <trkpt lat="48.04291" lon="6.90657">
        <ele>989</ele>
        <time>2015-05-14T14:15:10.618Z</time>
      </trkpt>
      <trkpt lat="48.04299" lon="6.90634">
        <ele>990</ele>
        <time>2015-05-14T14:15:21.615Z</time>
      </trkpt>
      <trkpt lat="48.04293" lon="6.90615">
        <ele>989</ele>
        <time>2015-05-14T14:15:31.615Z</time>
      </trkpt>
      <trkpt lat="48.04286" lon="6.90548">
        <ele>987</ele>
        <time>2015-05-14T14:16:07.618Z</time>
      </trkpt>
      <trkpt lat="48.04277" lon="6.90476">
        <ele>985</ele>
        <time>2015-05-14T14:16:51.621Z</time>
      </trkpt>
      <trkpt lat="48.04274" lon="6.90439">
        <ele>984</ele>
        <time>2015-05-14T14:17:10.62Z</time>
      </trkpt>
      <trkpt lat="48.04272" lon="6.90368">
        <ele>980</ele>
        <time>2015-05-14T14:18:01.619Z</time>
      </trkpt>
      <trkpt lat="48.04282" lon="6.90299">
        <ele>974</ele>
        <time>2015-05-14T14:18:40.615Z</time>
      </trkpt>
      <trkpt lat="48.04287" lon="6.90277">
        <ele>974</ele>
        <time>2015-05-14T14:18:51.615Z</time>
      </trkpt>
      <trkpt lat="48.04289" lon="6.90248">
        <ele>970</ele>
        <time>2015-05-14T14:19:51.628Z</time>
      </trkpt>
      <trkpt lat="48.04289" lon="6.90248">
        <ele>970</ele>
        <time>2015-05-14T14:20:52.618Z</time>
      </trkpt>
      <trkpt lat="48.04313" lon="6.90168">
        <ele>968</ele>
        <time>2015-05-14T14:21:43.616Z</time>
      </trkpt>
      <trkpt lat="48.04326" lon="6.90117">
        <ele>961</ele>
        <time>2015-05-14T14:22:10.623Z</time>
      </trkpt>
      <trkpt lat="48.04341" lon="6.90067">
        <ele>959</ele>
        <time>2015-05-14T14:22:38.615Z</time>
      </trkpt>
      <trkpt lat="48.0435" lon="6.90007">
        <ele>956</ele>
        <time>2015-05-14T14:23:38.616Z</time>
      </trkpt>
      <trkpt lat="48.04349" lon="6.90008">
        <ele>956</ele>
        <time>2015-05-14T14:24:38.623Z</time>
      </trkpt>
      <trkpt lat="48.04334" lon="6.89969">
        <ele>952</ele>
        <time>2015-05-14T14:25:27.626Z</time>
      </trkpt>
      <trkpt lat="48.04321" lon="6.89936">
        <ele>946</ele>
        <time>2015-05-14T14:25:46.623Z</time>
      </trkpt>
      <trkpt lat="48.04316" lon="6.89916">
        <ele>944</ele>
        <time>2015-05-14T14:25:57.639Z</time>
      </trkpt>
      <trkpt lat="48.04309" lon="6.89928">
        <ele>945</ele>
        <time>2015-05-14T14:26:58.629Z</time>
      </trkpt>
      <trkpt lat="48.0431" lon="6.89903">
        <ele>944</ele>
        <time>2015-05-14T14:27:28.625Z</time>
      </trkpt>
      <trkpt lat="48.04311" lon="6.89881">
        <ele>943</ele>
        <time>2015-05-14T14:27:42.628Z</time>
      </trkpt>
      <trkpt lat="48.04312" lon="6.8986">
        <ele>943</ele>
        <time>2015-05-14T14:27:51.629Z</time>
      </trkpt>
      <trkpt lat="48.0432" lon="6.8978">
        <ele>942</ele>
        <time>2015-05-14T14:28:35.626Z</time>
      </trkpt>
      <trkpt lat="48.04321" lon="6.89749">
        <ele>941</ele>
        <time>2015-05-14T14:28:53.629Z</time>
      </trkpt>
      <trkpt lat="48.04321" lon="6.89682">
        <ele>942</ele>
        <time>2015-05-14T14:29:34.625Z</time>
      </trkpt>
      <trkpt lat="48.04303" lon="6.89622">
        <ele>944</ele>
        <time>2015-05-14T14:30:07.619Z</time>
      </trkpt>
      <trkpt lat="48.04312" lon="6.89577">
        <ele>944</ele>
        <time>2015-05-14T14:30:33.625Z</time>
      </trkpt>
      <trkpt lat="48.04323" lon="6.89562">
        <ele>944</ele>
        <time>2015-05-14T14:30:47.621Z</time>
      </trkpt>
      <trkpt lat="48.04333" lon="6.89526">
        <ele>944</ele>
        <time>2015-05-14T14:31:09.626Z</time>
      </trkpt>
      <trkpt lat="48.04348" lon="6.8948">
        <ele>933</ele>
        <time>2015-05-14T14:31:38.624Z</time>
      </trkpt>
      <trkpt lat="48.04333" lon="6.89466">
        <ele>948</ele>
        <time>2015-05-14T14:32:38.624Z</time>
      </trkpt>
      <trkpt lat="48.04297" lon="6.89496">
        <ele>952</ele>
        <time>2015-05-14T14:33:38.624Z</time>
      </trkpt>
      <trkpt lat="48.04254" lon="6.8952">
        <ele>956</ele>
        <time>2015-05-14T14:34:35.655Z</time>
      </trkpt>
      <trkpt lat="48.04215" lon="6.89555">
        <ele>971</ele>
        <time>2015-05-14T14:35:25.625Z</time>
      </trkpt>
      <trkpt lat="48.04206" lon="6.8955">
        <ele>972</ele>
        <time>2015-05-14T14:36:26.618Z</time>
      </trkpt>
      <trkpt lat="48.0421" lon="6.89557">
        <ele>971</ele>
        <time>2015-05-14T14:37:26.638Z</time>
      </trkpt>
      <trkpt lat="48.0421" lon="6.89557">
        <ele>971</ele>
        <time>2015-05-14T14:38:26.71Z</time>
      </trkpt>
      <trkpt lat="48.0421" lon="6.89557">
        <ele>971</ele>
        <time>2015-05-14T14:39:27.621Z</time>
      </trkpt>
      <trkpt lat="48.04189" lon="6.89552">
        <ele>975</ele>
        <time>2015-05-14T14:40:27.625Z</time>
      </trkpt>
      <trkpt lat="48.04146" lon="6.89572">
        <ele>989</ele>
        <time>2015-05-14T14:41:22.618Z</time>
      </trkpt>
      <trkpt lat="48.04114" lon="6.89606">
        <ele>988</ele>
        <time>2015-05-14T14:42:14.61Z</time>
      </trkpt>
      <trkpt lat="48.04072" lon="6.89629">
        <ele>1001</ele>
        <time>2015-05-14T14:43:14.61Z</time>
      </trkpt>
      <trkpt lat="48.04028" lon="6.89646">
        <ele>1004</ele>
        <time>2015-05-14T14:44:10.615Z</time>
      </trkpt>
      <trkpt lat="48.03982" lon="6.89649">
        <ele>1013</ele>
        <time>2015-05-14T14:44:56.613Z</time>
      </trkpt>
      <trkpt lat="48.03948" lon="6.89692">
        <ele>1013</ele>
        <time>2015-05-14T14:45:37.609Z</time>
      </trkpt>
      <trkpt lat="48.03902" lon="6.8969">
        <ele>1024</ele>
        <time>2015-05-14T14:46:30.61Z</time>
      </trkpt>
      <trkpt lat="48.03857" lon="6.89687">
        <ele>1027</ele>
        <time>2015-05-14T14:47:15.605Z</time>
      </trkpt>
      <trkpt lat="48.03813" lon="6.89696">
        <ele>1033</ele>
        <time>2015-05-14T14:48:05.615Z</time>
      </trkpt>
      <trkpt lat="48.03783" lon="6.89706">
        <ele>1034</ele>
        <time>2015-05-14T14:48:31.605Z</time>
      </trkpt>
      <trkpt lat="48.03777" lon="6.8971">
        <ele>1034</ele>
        <time>2015-05-14T14:49:31.606Z</time>
      </trkpt>
      <trkpt lat="48.03729" lon="6.89724">
        <ele>1037</ele>
        <time>2015-05-14T14:50:28.609Z</time>
      </trkpt>
      <trkpt lat="48.03694" lon="6.89734">
        <ele>1037</ele>
        <time>2015-05-14T14:51:28.614Z</time>
      </trkpt>
      <trkpt lat="48.0368" lon="6.89725">
        <ele>1037</ele>
        <time>2015-05-14T14:52:29.611Z</time>
      </trkpt>
      <trkpt lat="48.03672" lon="6.89714">
        <ele>1038</ele>
        <time>2015-05-14T14:53:29.615Z</time>
      </trkpt>
      <trkpt lat="48.03672" lon="6.89714">
        <ele>1038</ele>
        <time>2015-05-14T14:54:29.62Z</time>
      </trkpt>
      <trkpt lat="48.03678" lon="6.89719">
        <ele>1037</ele>
        <time>2015-05-14T14:55:30.615Z</time>
      </trkpt>
      <trkpt lat="48.03675" lon="6.89728">
        <ele>1037</ele>
        <time>2015-05-14T14:56:30.616Z</time>
      </trkpt>
      <trkpt lat="48.03661" lon="6.89731">
        <ele>1039</ele>
        <time>2015-05-14T14:56:40.61Z</time>
      </trkpt>
      <trkpt lat="48.03638" lon="6.89761">
        <ele>1038</ele>
        <time>2015-05-14T14:57:11.62Z</time>
      </trkpt>
      <trkpt lat="48.03608" lon="6.89778">
        <ele>1038</ele>
        <time>2015-05-14T14:57:46.613Z</time>
      </trkpt>
      <trkpt lat="48.03588" lon="6.898">
        <ele>1038</ele>
        <time>2015-05-14T14:58:46.62Z</time>
      </trkpt>
      <trkpt lat="48.03589" lon="6.89803">
        <ele>1038</ele>
        <time>2015-05-14T14:59:46.625Z</time>
      </trkpt>
      <trkpt lat="48.03575" lon="6.89766">
        <ele>1043</ele>
        <time>2015-05-14T15:00:46.63Z</time>
      </trkpt>
      <trkpt lat="48.0353" lon="6.89775">
        <ele>1046</ele>
        <time>2015-05-14T15:01:33.618Z</time>
      </trkpt>
      <trkpt lat="48.03489" lon="6.89822">
        <ele>1053</ele>
        <time>2015-05-14T15:02:05.616Z</time>
      </trkpt>
      <trkpt lat="48.03445" lon="6.89836">
        <ele>1054</ele>
        <time>2015-05-14T15:03:02.615Z</time>
      </trkpt>
      <trkpt lat="48.0341" lon="6.89845">
        <ele>1053</ele>
        <time>2015-05-14T15:04:03.615Z</time>
      </trkpt>
      <trkpt lat="48.03369" lon="6.89814">
        <ele>1051</ele>
        <time>2015-05-14T15:04:57.615Z</time>
      </trkpt>
      <trkpt lat="48.03352" lon="6.89813">
        <ele>1050</ele>
        <time>2015-05-14T15:05:57.62Z</time>
      </trkpt>
      <trkpt lat="48.03362" lon="6.89857">
        <ele>1050</ele>
        <time>2015-05-14T15:06:58.614Z</time>
      </trkpt>
      <trkpt lat="48.03365" lon="6.89926">
        <ele>1051</ele>
        <time>2015-05-14T15:07:50.614Z</time>
      </trkpt>
      <trkpt lat="48.03379" lon="6.8999">
        <ele>1053</ele>
        <time>2015-05-14T15:08:41.61Z</time>
      </trkpt>
      <trkpt lat="48.03373" lon="6.9005">
        <ele>1056</ele>
        <time>2015-05-14T15:09:23.61Z</time>
      </trkpt>
      <trkpt lat="48.0338" lon="6.90098">
        <ele>1061</ele>
        <time>2015-05-14T15:09:57.61Z</time>
      </trkpt>
      <trkpt lat="48.03377" lon="6.90118">
        <ele>1061</ele>
        <time>2015-05-14T15:10:57.614Z</time>
      </trkpt>
      <trkpt lat="48.03377" lon="6.90118">
        <ele>1061</ele>
        <time>2015-05-14T15:11:57.614Z</time>
      </trkpt>
      <trkpt lat="48.03376" lon="6.90151">
        <ele>1062</ele>
        <time>2015-05-14T15:12:58.611Z</time>
      </trkpt>
      <trkpt lat="48.03382" lon="6.90217">
        <ele>1068</ele>
        <time>2015-05-14T15:13:53.609Z</time>
      </trkpt>
      <trkpt lat="48.03372" lon="6.90284">
        <ele>1073</ele>
        <time>2015-05-14T15:14:48.608Z</time>
      </trkpt>
      <trkpt lat="48.03377" lon="6.90301">
        <ele>1074</ele>
        <time>2015-05-14T15:15:48.615Z</time>
      </trkpt>
      <trkpt lat="48.03374" lon="6.90303">
        <ele>1074</ele>
        <time>2015-05-14T15:16:48.618Z</time>
      </trkpt>
      <trkpt lat="48.03374" lon="6.90323">
        <ele>1075</ele>
        <time>2015-05-14T15:17:42.61Z</time>
      </trkpt>
      <trkpt lat="48.03369" lon="6.90344">
        <ele>1076</ele>
        <time>2015-05-14T15:17:56.61Z</time>
      </trkpt>
      <trkpt lat="48.03363" lon="6.90386">
        <ele>1076</ele>
        <time>2015-05-14T15:18:21.606Z</time>
      </trkpt>
      <trkpt lat="48.03369" lon="6.90406">
        <ele>1076</ele>
        <time>2015-05-14T15:18:34.609Z</time>
      </trkpt>
      <trkpt lat="48.03374" lon="6.90469">
        <ele>1076</ele>
        <time>2015-05-14T15:19:24.606Z</time>
      </trkpt>
      <trkpt lat="48.03358" lon="6.90566">
        <ele>1071</ele>
        <time>2015-05-14T15:20:15.609Z</time>
      </trkpt>
      <trkpt lat="48.03356" lon="6.90638">
        <ele>1064</ele>
        <time>2015-05-14T15:20:54.608Z</time>
      </trkpt>
      <trkpt lat="48.03374" lon="6.90711">
        <ele>1058</ele>
        <time>2015-05-14T15:21:38.606Z</time>
      </trkpt>
      <trkpt lat="48.0338" lon="6.90747">
        <ele>1057</ele>
        <time>2015-05-14T15:22:01.61Z</time>
      </trkpt>
      <trkpt lat="48.03383" lon="6.90778">
        <ele>1054</ele>
        <time>2015-05-14T15:22:18.611Z</time>
      </trkpt>
      <trkpt lat="48.03385" lon="6.90799">
        <ele>1054</ele>
        <time>2015-05-14T15:22:29.613Z</time>
      </trkpt>
      <trkpt lat="48.03393" lon="6.90859">
        <ele>1052</ele>
        <time>2015-05-14T15:23:25.611Z</time>
      </trkpt>
      <trkpt lat="48.03413" lon="6.90913">
        <ele>1054</ele>
        <time>2015-05-14T15:23:59.611Z</time>
      </trkpt>
      <trkpt lat="48.03422" lon="6.90941">
        <ele>1055</ele>
        <time>2015-05-14T15:24:20.61Z</time>
      </trkpt>
      <trkpt lat="48.03422" lon="6.90975">
        <ele>1054</ele>
        <time>2015-05-14T15:24:35.613Z</time>
      </trkpt>
      <trkpt lat="48.03438" lon="6.91011">
        <ele>1052</ele>
        <time>2015-05-14T15:24:58.61Z</time>
      </trkpt>
      <trkpt lat="48.03453" lon="6.91028">
        <ele>1052</ele>
        <time>2015-05-14T15:25:13.608Z</time>
      </trkpt>
      <trkpt lat="48.03461" lon="6.91044">
        <ele>1052</ele>
        <time>2015-05-14T15:25:24.61Z</time>
      </trkpt>
      <trkpt lat="48.03477" lon="6.91073">
        <ele>1053</ele>
        <time>2015-05-14T15:25:44.61Z</time>
      </trkpt>
      <trkpt lat="48.03487" lon="6.91097">
        <ele>1048</ele>
        <time>2015-05-14T15:25:58.61Z</time>
      </trkpt>
      <trkpt lat="48.03499" lon="6.91108">
        <ele>1046</ele>
        <time>2015-05-14T15:26:09.611Z</time>
      </trkpt>
      <trkpt lat="48.03503" lon="6.91117">
        <ele>1054</ele>
        <time>2015-05-14T15:27:09.614Z</time>
      </trkpt>
      <trkpt lat="48.03501" lon="6.91117">
        <ele>1054</ele>
        <time>2015-05-14T15:28:10.605Z</time>
      </trkpt>
      <trkpt lat="48.03499" lon="6.91116">
        <ele>1045</ele>
        <time>2015-05-14T15:29:10.613Z</time>
      </trkpt>
      <trkpt lat="48.03484" lon="6.91117">
        <ele>1044</ele>
        <time>2015-05-14T15:30:03.608Z</time>
      </trkpt>
      <trkpt lat="48.03423" lon="6.91111">
        <ele>1040</ele>
        <time>2015-05-14T15:30:56.606Z</time>
      </trkpt>
      <trkpt lat="48.03377" lon="6.9109">
        <ele>1032</ele>
        <time>2015-05-14T15:31:34.605Z</time>
      </trkpt>
      <trkpt lat="48.03363" lon="6.91082">
        <ele>1036</ele>
        <time>2015-05-14T15:31:46.605Z</time>
      </trkpt>
      <trkpt lat="48.03293" lon="6.91056">
        <ele>1024</ele>
        <time>2015-05-14T15:32:46.606Z</time>
      </trkpt>
      <trkpt lat="48.03266" lon="6.91028">
        <ele>1022</ele>
        <time>2015-05-14T15:33:16.606Z</time>
      </trkpt>
      <trkpt lat="48.03216" lon="6.9099">
        <ele>1010</ele>
        <time>2015-05-14T15:34:08.606Z</time>
      </trkpt>
      <trkpt lat="48.03186" lon="6.90967">
        <ele>1006</ele>
        <time>2015-05-14T15:34:40.605Z</time>
      </trkpt>
      <trkpt lat="48.03172" lon="6.90939">
        <ele>1005</ele>
        <time>2015-05-14T15:35:04.606Z</time>
      </trkpt>
      <trkpt lat="48.0316" lon="6.90908">
        <ele>998</ele>
        <time>2015-05-14T15:35:27.609Z</time>
      </trkpt>
      <trkpt lat="48.03133" lon="6.90858">
        <ele>994</ele>
        <time>2015-05-14T15:36:01.606Z</time>
      </trkpt>
      <trkpt lat="48.0313" lon="6.90836">
        <ele>994</ele>
        <time>2015-05-14T15:36:11.606Z</time>
      </trkpt>
      <trkpt lat="48.03125" lon="6.90815">
        <ele>995</ele>
        <time>2015-05-14T15:36:23.605Z</time>
      </trkpt>
      <trkpt lat="48.03114" lon="6.90803">
        <ele>994</ele>
        <time>2015-05-14T15:36:35.608Z</time>
      </trkpt>
      <trkpt lat="48.03096" lon="6.9077">
        <ele>991</ele>
        <time>2015-05-14T15:36:58.606Z</time>
      </trkpt>
      <trkpt lat="48.03074" lon="6.90693">
        <ele>978</ele>
        <time>2015-05-14T15:37:45.605Z</time>
      </trkpt>
      <trkpt lat="48.03074" lon="6.90673">
        <ele>982</ele>
        <time>2015-05-14T15:37:57.605Z</time>
      </trkpt>
      <trkpt lat="48.03057" lon="6.90617">
        <ele>979</ele>
        <time>2015-05-14T15:38:57.606Z</time>
      </trkpt>
      <trkpt lat="48.03045" lon="6.90618">
        <ele>977</ele>
        <time>2015-05-14T15:39:57.61Z</time>
      </trkpt>
      <trkpt lat="48.03043" lon="6.90626">
        <ele>977</ele>
        <time>2015-05-14T15:40:57.611Z</time>
      </trkpt>
      <trkpt lat="48.03051" lon="6.90609">
        <ele>978</ele>
        <time>2015-05-14T15:41:16.609Z</time>
      </trkpt>
      <trkpt lat="48.03042" lon="6.90593">
        <ele>977</ele>
        <time>2015-05-14T15:41:27.608Z</time>
      </trkpt>
      <trkpt lat="48.03035" lon="6.90585">
        <ele>976</ele>
        <time>2015-05-14T15:42:27.608Z</time>
      </trkpt>
      <trkpt lat="48.03028" lon="6.90575">
        <ele>979</ele>
        <time>2015-05-14T15:43:27.608Z</time>
      </trkpt>
      <trkpt lat="48.03018" lon="6.90559">
        <ele>979</ele>
        <time>2015-05-14T15:43:39.608Z</time>
      </trkpt>
      <trkpt lat="48.03006" lon="6.90536">
        <ele>980</ele>
        <time>2015-05-14T15:43:57.608Z</time>
      </trkpt>
      <trkpt lat="48.02987" lon="6.90514">
        <ele>968</ele>
        <time>2015-05-14T15:44:17.608Z</time>
      </trkpt>
      <trkpt lat="48.02968" lon="6.9049">
        <ele>971</ele>
        <time>2015-05-14T15:44:34.606Z</time>
      </trkpt>
      <trkpt lat="48.02961" lon="6.90472">
        <ele>970</ele>
        <time>2015-05-14T15:44:45.608Z</time>
      </trkpt>
      <trkpt lat="48.02952" lon="6.90456">
        <ele>970</ele>
        <time>2015-05-14T15:44:55.608Z</time>
      </trkpt>
      <trkpt lat="48.0294" lon="6.9044">
        <ele>970</ele>
        <time>2015-05-14T15:45:08.608Z</time>
      </trkpt>
      <trkpt lat="48.02899" lon="6.90404">
        <ele>966</ele>
        <time>2015-05-14T15:45:46.608Z</time>
      </trkpt>
      <trkpt lat="48.02864" lon="6.90397">
        <ele>962</ele>
        <time>2015-05-14T15:46:13.608Z</time>
      </trkpt>
      <trkpt lat="48.02851" lon="6.90388">
        <ele>961</ele>
        <time>2015-05-14T15:46:24.606Z</time>
      </trkpt>
      <trkpt lat="48.02835" lon="6.90385">
        <ele>960</ele>
        <time>2015-05-14T15:46:38.608Z</time>
      </trkpt>
      <trkpt lat="48.02787" lon="6.90376">
        <ele>946</ele>
        <time>2015-05-14T15:47:17.608Z</time>
      </trkpt>
      <trkpt lat="48.02764" lon="6.90374">
        <ele>944</ele>
        <time>2015-05-14T15:47:42.606Z</time>
      </trkpt>
      <trkpt lat="48.02785" lon="6.90393">
        <ele>944</ele>
        <time>2015-05-14T15:48:43.608Z</time>
      </trkpt>
      <trkpt lat="48.02796" lon="6.90407">
        <ele>944</ele>
        <time>2015-05-14T15:48:52.608Z</time>
      </trkpt>
      <trkpt lat="48.02799" lon="6.90426">
        <ele>935</ele>
        <time>2015-05-14T15:49:05.606Z</time>
      </trkpt>
      <trkpt lat="48.02814" lon="6.90485">
        <ele>932</ele>
        <time>2015-05-14T15:49:40.608Z</time>
      </trkpt>
      <trkpt lat="48.02824" lon="6.90504">
        <ele>929</ele>
        <time>2015-05-14T15:49:52.606Z</time>
      </trkpt>
      <trkpt lat="48.02834" lon="6.90527">
        <ele>935</ele>
        <time>2015-05-14T15:50:07.611Z</time>
      </trkpt>
      <trkpt lat="48.02845" lon="6.9054">
        <ele>935</ele>
        <time>2015-05-14T15:50:20.606Z</time>
      </trkpt>
      <trkpt lat="48.02853" lon="6.90559">
        <ele>934</ele>
        <time>2015-05-14T15:50:32.608Z</time>
      </trkpt>
      <trkpt lat="48.02861" lon="6.90579">
        <ele>933</ele>
        <time>2015-05-14T15:50:44.606Z</time>
      </trkpt>
      <trkpt lat="48.02865" lon="6.90615">
        <ele>929</ele>
        <time>2015-05-14T15:51:02.609Z</time>
      </trkpt>
      <trkpt lat="48.02868" lon="6.9067">
        <ele>925</ele>
        <time>2015-05-14T15:51:32.608Z</time>
      </trkpt>
      <trkpt lat="48.02862" lon="6.90702">
        <ele>925</ele>
        <time>2015-05-14T15:51:52.608Z</time>
      </trkpt>
      <trkpt lat="48.02858" lon="6.90722">
        <ele>924</ele>
        <time>2015-05-14T15:52:02.608Z</time>
      </trkpt>
      <trkpt lat="48.02849" lon="6.90792">
        <ele>925</ele>
        <time>2015-05-14T15:52:37.606Z</time>
      </trkpt>
      <trkpt lat="48.02847" lon="6.90826">
        <ele>923</ele>
        <time>2015-05-14T15:52:57.608Z</time>
      </trkpt>
      <trkpt lat="48.02843" lon="6.90846">
        <ele>923</ele>
        <time>2015-05-14T15:53:07.606Z</time>
      </trkpt>
      <trkpt lat="48.02822" lon="6.90903">
        <ele>913</ele>
        <time>2015-05-14T15:53:37.61Z</time>
      </trkpt>
      <trkpt lat="48.02818" lon="6.90975">
        <ele>910</ele>
        <time>2015-05-14T15:54:20.606Z</time>
      </trkpt>
      <trkpt lat="48.02821" lon="6.9102">
        <ele>908</ele>
        <time>2015-05-14T15:54:42.606Z</time>
      </trkpt>
      <trkpt lat="48.02823" lon="6.91045">
        <ele>905</ele>
        <time>2015-05-14T15:54:53.606Z</time>
      </trkpt>
      <trkpt lat="48.02836" lon="6.91076">
        <ele>917</ele>
        <time>2015-05-14T15:55:17.606Z</time>
      </trkpt>
      <trkpt lat="48.02856" lon="6.91111">
        <ele>921</ele>
        <time>2015-05-14T15:55:44.608Z</time>
      </trkpt>
      <trkpt lat="48.02868" lon="6.91125">
        <ele>923</ele>
        <time>2015-05-14T15:55:58.605Z</time>
      </trkpt>
      <trkpt lat="48.02891" lon="6.91168">
        <ele>921</ele>
        <time>2015-05-14T15:56:34.606Z</time>
      </trkpt>
      <trkpt lat="48.02902" lon="6.91186">
        <ele>922</ele>
        <time>2015-05-14T15:56:49.606Z</time>
      </trkpt>
      <trkpt lat="48.02921" lon="6.91209">
        <ele>934</ele>
        <time>2015-05-14T15:57:07.606Z</time>
      </trkpt>
      <trkpt lat="48.02934" lon="6.91199">
        <ele>936</ele>
        <time>2015-05-14T15:57:17.606Z</time>
      </trkpt>
      <trkpt lat="48.02932" lon="6.91177">
        <ele>935</ele>
        <time>2015-05-14T15:57:31.606Z</time>
      </trkpt>
      <trkpt lat="48.02928" lon="6.91151">
        <ele>940</ele>
        <time>2015-05-14T15:57:46.606Z</time>
      </trkpt>
      <trkpt lat="48.02925" lon="6.91122">
        <ele>944</ele>
        <time>2015-05-14T15:58:03.605Z</time>
      </trkpt>
      <trkpt lat="48.02925" lon="6.91079">
        <ele>946</ele>
        <time>2015-05-14T15:58:29.606Z</time>
      </trkpt>
      <trkpt lat="48.02914" lon="6.91066">
        <ele>936</ele>
        <time>2015-05-14T15:58:39.608Z</time>
      </trkpt>
      <trkpt lat="48.029" lon="6.91059">
        <ele>934</ele>
        <time>2015-05-14T15:58:46.606Z</time>
      </trkpt>
      <trkpt lat="48.02896" lon="6.91055">
        <ele>933</ele>
        <time>2015-05-14T15:59:08.61Z</time>
      </trkpt>
      <trkpt lat="48.02881" lon="6.91171">
        <ele>919</ele>
        <time>2015-05-15T07:05:04.938Z</time>
      </trkpt>
      <trkpt lat="48.02896" lon="6.91102">
        <ele>930</ele>
        <time>2015-05-15T07:05:07.938Z</time>
      </trkpt>
      <trkpt lat="48.02902" lon="6.91057">
        <ele>934</ele>
        <time>2015-05-15T07:06:07.94Z</time>
      </trkpt>
      <trkpt lat="48.02901" lon="6.91055">
        <ele>933</ele>
        <time>2015-05-15T07:07:07.94Z</time>
      </trkpt>
      <trkpt lat="48.029" lon="6.91057">
        <ele>933</ele>
        <time>2015-05-15T07:08:07.94Z</time>
      </trkpt>
      <trkpt lat="48.02916" lon="6.91085">
        <ele>942</ele>
        <time>2015-05-15T07:09:08.933Z</time>
      </trkpt>
      <trkpt lat="48.02956" lon="6.91115">
        <ele>947</ele>
        <time>2015-05-15T07:10:05.935Z</time>
      </trkpt>
      <trkpt lat="48.02989" lon="6.91154">
        <ele>950</ele>
        <time>2015-05-15T07:10:51.939Z</time>
      </trkpt>
      <trkpt lat="48.03017" lon="6.91187">
        <ele>955</ele>
        <time>2015-05-15T07:11:20.939Z</time>
      </trkpt>
      <trkpt lat="48.03061" lon="6.91223">
        <ele>956</ele>
        <time>2015-05-15T07:12:01.935Z</time>
      </trkpt>
      <trkpt lat="48.03088" lon="6.91218">
        <ele>966</ele>
        <time>2015-05-15T07:12:45.935Z</time>
      </trkpt>
      <trkpt lat="48.03101" lon="6.91222">
        <ele>967</ele>
        <time>2015-05-15T07:13:00.936Z</time>
      </trkpt>
      <trkpt lat="48.03112" lon="6.91238">
        <ele>967</ele>
        <time>2015-05-15T07:13:15.936Z</time>
      </trkpt>
      <trkpt lat="48.03144" lon="6.91255">
        <ele>963</ele>
        <time>2015-05-15T07:13:47.934Z</time>
      </trkpt>
      <trkpt lat="48.03157" lon="6.91266">
        <ele>964</ele>
        <time>2015-05-15T07:14:00.935Z</time>
      </trkpt>
      <trkpt lat="48.0318" lon="6.91284">
        <ele>971</ele>
        <time>2015-05-15T07:14:25.938Z</time>
      </trkpt>
      <trkpt lat="48.03196" lon="6.91297">
        <ele>971</ele>
        <time>2015-05-15T07:14:39.935Z</time>
      </trkpt>
      <trkpt lat="48.03228" lon="6.91314">
        <ele>972</ele>
        <time>2015-05-15T07:15:09.935Z</time>
      </trkpt>
      <trkpt lat="48.03254" lon="6.91307">
        <ele>981</ele>
        <time>2015-05-15T07:16:09.936Z</time>
      </trkpt>
      <trkpt lat="48.0326" lon="6.91309">
        <ele>981</ele>
        <time>2015-05-15T07:17:10.94Z</time>
      </trkpt>
      <trkpt lat="48.03275" lon="6.91313">
        <ele>981</ele>
        <time>2015-05-15T07:17:26.936Z</time>
      </trkpt>
      <trkpt lat="48.03326" lon="6.91322">
        <ele>981</ele>
        <time>2015-05-15T07:18:08.943Z</time>
      </trkpt>
      <trkpt lat="48.03381" lon="6.9132">
        <ele>986</ele>
        <time>2015-05-15T07:19:03.935Z</time>
      </trkpt>
      <trkpt lat="48.03398" lon="6.91306">
        <ele>987</ele>
        <time>2015-05-15T07:19:22.935Z</time>
      </trkpt>
      <trkpt lat="48.03411" lon="6.91314">
        <ele>985</ele>
        <time>2015-05-15T07:19:36.934Z</time>
      </trkpt>
      <trkpt lat="48.03472" lon="6.91355">
        <ele>979</ele>
        <time>2015-05-15T07:20:36.935Z</time>
      </trkpt>
      <trkpt lat="48.03516" lon="6.91378">
        <ele>990</ele>
        <time>2015-05-15T07:21:27.936Z</time>
      </trkpt>
      <trkpt lat="48.03563" lon="6.91391">
        <ele>993</ele>
        <time>2015-05-15T07:22:27.94Z</time>
      </trkpt>
      <trkpt lat="48.03601" lon="6.91395">
        <ele>1006</ele>
        <time>2015-05-15T07:23:27.944Z</time>
      </trkpt>
      <trkpt lat="48.03642" lon="6.9142">
        <ele>1001</ele>
        <time>2015-05-15T07:24:28.933Z</time>
      </trkpt>
      <trkpt lat="48.03674" lon="6.91422">
        <ele>1015</ele>
        <time>2015-05-15T07:25:28.935Z</time>
      </trkpt>
      <trkpt lat="48.03689" lon="6.91427">
        <ele>1019</ele>
        <time>2015-05-15T07:25:45.935Z</time>
      </trkpt>
      <trkpt lat="48.03702" lon="6.91441">
        <ele>1021</ele>
        <time>2015-05-15T07:26:03.936Z</time>
      </trkpt>
      <trkpt lat="48.03708" lon="6.91462">
        <ele>1020</ele>
        <time>2015-05-15T07:26:21.935Z</time>
      </trkpt>
      <trkpt lat="48.0372" lon="6.9149">
        <ele>1021</ele>
        <time>2015-05-15T07:26:39.935Z</time>
      </trkpt>
      <trkpt lat="48.03726" lon="6.91512">
        <ele>1014</ele>
        <time>2015-05-15T07:26:52.935Z</time>
      </trkpt>
      <trkpt lat="48.03736" lon="6.91528">
        <ele>1013</ele>
        <time>2015-05-15T07:27:03.935Z</time>
      </trkpt>
      <trkpt lat="48.03748" lon="6.91558">
        <ele>1012</ele>
        <time>2015-05-15T07:27:51.94Z</time>
      </trkpt>
      <trkpt lat="48.03759" lon="6.91622">
        <ele>1019</ele>
        <time>2015-05-15T07:28:52.934Z</time>
      </trkpt>
      <trkpt lat="48.03765" lon="6.91641">
        <ele>1018</ele>
        <time>2015-05-15T07:29:04.939Z</time>
      </trkpt>
      <trkpt lat="48.03791" lon="6.91696">
        <ele>1010</ele>
        <time>2015-05-15T07:29:42.938Z</time>
      </trkpt>
      <trkpt lat="48.03803" lon="6.91706">
        <ele>1011</ele>
        <time>2015-05-15T07:29:55.94Z</time>
      </trkpt>
      <trkpt lat="48.03832" lon="6.91743">
        <ele>1014</ele>
        <time>2015-05-15T07:30:27.936Z</time>
      </trkpt>
      <trkpt lat="48.03845" lon="6.9177">
        <ele>1017</ele>
        <time>2015-05-15T07:30:47.935Z</time>
      </trkpt>
      <trkpt lat="48.03876" lon="6.91809">
        <ele>1018</ele>
        <time>2015-05-15T07:31:47.943Z</time>
      </trkpt>
      <trkpt lat="48.03873" lon="6.91811">
        <ele>1017</ele>
        <time>2015-05-15T07:32:47.943Z</time>
      </trkpt>
      <trkpt lat="48.03873" lon="6.91807">
        <ele>1018</ele>
        <time>2015-05-15T07:33:48.936Z</time>
      </trkpt>
      <trkpt lat="48.03871" lon="6.91808">
        <ele>1017</ele>
        <time>2015-05-15T07:34:48.941Z</time>
      </trkpt>
      <trkpt lat="48.03874" lon="6.91814">
        <ele>1017</ele>
        <time>2015-05-15T07:35:48.941Z</time>
      </trkpt>
      <trkpt lat="48.03874" lon="6.91814">
        <ele>1017</ele>
        <time>2015-05-15T07:36:48.944Z</time>
      </trkpt>
      <trkpt lat="48.03874" lon="6.91814">
        <ele>1017</ele>
        <time>2015-05-15T07:37:49.935Z</time>
      </trkpt>
      <trkpt lat="48.03884" lon="6.9182">
        <ele>1018</ele>
        <time>2015-05-15T07:38:49.935Z</time>
      </trkpt>
      <trkpt lat="48.03907" lon="6.91853">
        <ele>1013</ele>
        <time>2015-05-15T07:39:49.939Z</time>
      </trkpt>
      <trkpt lat="48.03923" lon="6.91862">
        <ele>1023</ele>
        <time>2015-05-15T07:40:49.943Z</time>
      </trkpt>
      <trkpt lat="48.03926" lon="6.9186">
        <ele>1024</ele>
        <time>2015-05-15T07:41:50.941Z</time>
      </trkpt>
      <trkpt lat="48.03926" lon="6.9186">
        <ele>1024</ele>
        <time>2015-05-15T07:42:51.94Z</time>
      </trkpt>
      <trkpt lat="48.03924" lon="6.91859">
        <ele>1023</ele>
        <time>2015-05-15T07:43:51.94Z</time>
      </trkpt>
      <trkpt lat="48.03948" lon="6.91872">
        <ele>1025</ele>
        <time>2015-05-15T07:44:14.938Z</time>
      </trkpt>
      <trkpt lat="48.03969" lon="6.91887">
        <ele>1026</ele>
        <time>2015-05-15T07:44:36.938Z</time>
      </trkpt>
      <trkpt lat="48.04008" lon="6.91923">
        <ele>1027</ele>
        <time>2015-05-15T07:45:27.94Z</time>
      </trkpt>
      <trkpt lat="48.04025" lon="6.91927">
        <ele>1028</ele>
        <time>2015-05-15T07:45:43.938Z</time>
      </trkpt>
      <trkpt lat="48.04057" lon="6.91929">
        <ele>1032</ele>
        <time>2015-05-15T07:46:43.941Z</time>
      </trkpt>
      <trkpt lat="48.04056" lon="6.91931">
        <ele>1032</ele>
        <time>2015-05-15T07:47:43.944Z</time>
      </trkpt>
      <trkpt lat="48.04055" lon="6.91924">
        <ele>1032</ele>
        <time>2015-05-15T07:48:43.944Z</time>
      </trkpt>
      <trkpt lat="48.0406" lon="6.91925">
        <ele>1033</ele>
        <time>2015-05-15T07:49:44.948Z</time>
      </trkpt>
      <trkpt lat="48.04062" lon="6.91916">
        <ele>1042</ele>
        <time>2015-05-15T07:50:45.939Z</time>
      </trkpt>
      <trkpt lat="48.04053" lon="6.91887">
        <ele>1043</ele>
        <time>2015-05-15T07:51:31.941Z</time>
      </trkpt>
      <trkpt lat="48.04033" lon="6.91863">
        <ele>1043</ele>
        <time>2015-05-15T07:51:56.944Z</time>
      </trkpt>
      <trkpt lat="48.04019" lon="6.91846">
        <ele>1043</ele>
        <time>2015-05-15T07:52:10.941Z</time>
      </trkpt>
      <trkpt lat="48.03995" lon="6.91815">
        <ele>1041</ele>
        <time>2015-05-15T07:52:40.938Z</time>
      </trkpt>
      <trkpt lat="48.0399" lon="6.91794">
        <ele>1042</ele>
        <time>2015-05-15T07:52:53.94Z</time>
      </trkpt>
      <trkpt lat="48.03974" lon="6.91761">
        <ele>1044</ele>
        <time>2015-05-15T07:53:17.938Z</time>
      </trkpt>
      <trkpt lat="48.03966" lon="6.91741">
        <ele>1049</ele>
        <time>2015-05-15T07:53:29.936Z</time>
      </trkpt>
      <trkpt lat="48.03958" lon="6.91711">
        <ele>1049</ele>
        <time>2015-05-15T07:53:46.935Z</time>
      </trkpt>
      <trkpt lat="48.03958" lon="6.91689">
        <ele>1050</ele>
        <time>2015-05-15T07:54:02.939Z</time>
      </trkpt>
      <trkpt lat="48.03955" lon="6.9166">
        <ele>1055</ele>
        <time>2015-05-15T07:54:21.941Z</time>
      </trkpt>
      <trkpt lat="48.03969" lon="6.9165">
        <ele>1056</ele>
        <time>2015-05-15T07:54:34.935Z</time>
      </trkpt>
      <trkpt lat="48.03994" lon="6.91644">
        <ele>1058</ele>
        <time>2015-05-15T07:55:34.938Z</time>
      </trkpt>
      <trkpt lat="48.04004" lon="6.91656">
        <ele>1061</ele>
        <time>2015-05-15T07:55:46.939Z</time>
      </trkpt>
      <trkpt lat="48.04038" lon="6.91693">
        <ele>1063</ele>
        <time>2015-05-15T07:56:18.938Z</time>
      </trkpt>
      <trkpt lat="48.04048" lon="6.91707">
        <ele>1063</ele>
        <time>2015-05-15T07:56:29.935Z</time>
      </trkpt>
      <trkpt lat="48.04054" lon="6.91728">
        <ele>1063</ele>
        <time>2015-05-15T07:56:41.939Z</time>
      </trkpt>
      <trkpt lat="48.04061" lon="6.91762">
        <ele>1060</ele>
        <time>2015-05-15T07:57:00.938Z</time>
      </trkpt>
      <trkpt lat="48.04069" lon="6.91789">
        <ele>1058</ele>
        <time>2015-05-15T07:57:14.94Z</time>
      </trkpt>
      <trkpt lat="48.04079" lon="6.91813">
        <ele>1057</ele>
        <time>2015-05-15T07:57:27.939Z</time>
      </trkpt>
      <trkpt lat="48.041" lon="6.91859">
        <ele>1058</ele>
        <time>2015-05-15T07:57:55.94Z</time>
      </trkpt>
      <trkpt lat="48.04153" lon="6.91911">
        <ele>1059</ele>
        <time>2015-05-15T07:58:44.939Z</time>
      </trkpt>
      <trkpt lat="48.04167" lon="6.91917">
        <ele>1060</ele>
        <time>2015-05-15T07:58:54.936Z</time>
      </trkpt>
      <trkpt lat="48.04215" lon="6.91961">
        <ele>1065</ele>
        <time>2015-05-15T07:59:36.944Z</time>
      </trkpt>
      <trkpt lat="48.04257" lon="6.91991">
        <ele>1074</ele>
        <time>2015-05-15T08:00:16.944Z</time>
      </trkpt>
      <trkpt lat="48.04271" lon="6.92006">
        <ele>1071</ele>
        <time>2015-05-15T08:00:30.94Z</time>
      </trkpt>
      <trkpt lat="48.04321" lon="6.92057">
        <ele>1075</ele>
        <time>2015-05-15T08:01:22.94Z</time>
      </trkpt>
      <trkpt lat="48.04335" lon="6.92034">
        <ele>1087</ele>
        <time>2015-05-15T08:02:22.94Z</time>
      </trkpt>
      <trkpt lat="48.04335" lon="6.92034">
        <ele>1087</ele>
        <time>2015-05-15T08:03:22.945Z</time>
      </trkpt>
      <trkpt lat="48.04338" lon="6.92035">
        <ele>1087</ele>
        <time>2015-05-15T08:04:22.945Z</time>
      </trkpt>
      <trkpt lat="48.04361" lon="6.92049">
        <ele>1088</ele>
        <time>2015-05-15T08:05:23.94Z</time>
      </trkpt>
      <trkpt lat="48.04411" lon="6.92064">
        <ele>1089</ele>
        <time>2015-05-15T08:06:19.938Z</time>
      </trkpt>
      <trkpt lat="48.04444" lon="6.9205">
        <ele>1093</ele>
        <time>2015-05-15T08:06:56.94Z</time>
      </trkpt>
      <trkpt lat="48.04469" lon="6.91994">
        <ele>1107</ele>
        <time>2015-05-15T08:07:29.938Z</time>
      </trkpt>
      <trkpt lat="48.04474" lon="6.91997">
        <ele>1106</ele>
        <time>2015-05-15T08:08:29.941Z</time>
      </trkpt>
      <trkpt lat="48.04509" lon="6.91953">
        <ele>1109</ele>
        <time>2015-05-15T08:09:22.935Z</time>
      </trkpt>
      <trkpt lat="48.04522" lon="6.91946">
        <ele>1109</ele>
        <time>2015-05-15T08:09:34.935Z</time>
      </trkpt>
      <trkpt lat="48.04525" lon="6.91935">
        <ele>1110</ele>
        <time>2015-05-15T08:10:34.948Z</time>
      </trkpt>
      <trkpt lat="48.0458" lon="6.91939">
        <ele>1109</ele>
        <time>2015-05-15T08:11:28.934Z</time>
      </trkpt>
      <trkpt lat="48.04626" lon="6.91943">
        <ele>1101</ele>
        <time>2015-05-15T08:12:06.933Z</time>
      </trkpt>
      <trkpt lat="48.04649" lon="6.9194">
        <ele>1101</ele>
        <time>2015-05-15T08:12:29.933Z</time>
      </trkpt>
      <trkpt lat="48.04679" lon="6.91933">
        <ele>1097</ele>
        <time>2015-05-15T08:12:58.935Z</time>
      </trkpt>
      <trkpt lat="48.04706" lon="6.91935">
        <ele>1092</ele>
        <time>2015-05-15T08:13:17.931Z</time>
      </trkpt>
      <trkpt lat="48.04717" lon="6.91918">
        <ele>1092</ele>
        <time>2015-05-15T08:13:29.931Z</time>
      </trkpt>
      <trkpt lat="48.04724" lon="6.919">
        <ele>1099</ele>
        <time>2015-05-15T08:13:39.933Z</time>
      </trkpt>
      <trkpt lat="48.04737" lon="6.91885">
        <ele>1099</ele>
        <time>2015-05-15T08:13:57.94Z</time>
      </trkpt>
      <trkpt lat="48.04758" lon="6.91863">
        <ele>1088</ele>
        <time>2015-05-15T08:14:18.939Z</time>
      </trkpt>
      <trkpt lat="48.04772" lon="6.91897">
        <ele>1085</ele>
        <time>2015-05-15T08:15:16.935Z</time>
      </trkpt>
      <trkpt lat="48.04776" lon="6.91919">
        <ele>1081</ele>
        <time>2015-05-15T08:15:27.935Z</time>
      </trkpt>
      <trkpt lat="48.04785" lon="6.91939">
        <ele>1078</ele>
        <time>2015-05-15T08:15:38.935Z</time>
      </trkpt>
      <trkpt lat="48.0481" lon="6.92015">
        <ele>1069</ele>
        <time>2015-05-15T08:16:19.938Z</time>
      </trkpt>
      <trkpt lat="48.04816" lon="6.92039">
        <ele>1068</ele>
        <time>2015-05-15T08:16:32.935Z</time>
      </trkpt>
      <trkpt lat="48.04844" lon="6.92072">
        <ele>1062</ele>
        <time>2015-05-15T08:17:07.938Z</time>
      </trkpt>
      <trkpt lat="48.04858" lon="6.92062">
        <ele>1060</ele>
        <time>2015-05-15T08:17:18.936Z</time>
      </trkpt>
      <trkpt lat="48.04865" lon="6.92045">
        <ele>1059</ele>
        <time>2015-05-15T08:17:26.936Z</time>
      </trkpt>
      <trkpt lat="48.0486" lon="6.92045">
        <ele>1060</ele>
        <time>2015-05-15T08:18:26.944Z</time>
      </trkpt>
      <trkpt lat="48.04857" lon="6.92039">
        <ele>1060</ele>
        <time>2015-05-15T08:19:27.94Z</time>
      </trkpt>
      <trkpt lat="48.0486" lon="6.92047">
        <ele>1060</ele>
        <time>2015-05-15T08:20:28.935Z</time>
      </trkpt>
      <trkpt lat="48.04857" lon="6.9205">
        <ele>1060</ele>
        <time>2015-05-15T08:21:28.94Z</time>
      </trkpt>
      <trkpt lat="48.04859" lon="6.92047">
        <ele>1060</ele>
        <time>2015-05-15T08:22:28.944Z</time>
      </trkpt>
      <trkpt lat="48.04866" lon="6.92065">
        <ele>1059</ele>
        <time>2015-05-15T08:23:15.935Z</time>
      </trkpt>
      <trkpt lat="48.04909" lon="6.92044">
        <ele>1056</ele>
        <time>2015-05-15T08:24:12.944Z</time>
      </trkpt>
      <trkpt lat="48.04952" lon="6.92034">
        <ele>1044</ele>
        <time>2015-05-15T08:24:52.939Z</time>
      </trkpt>
      <trkpt lat="48.04986" lon="6.92032">
        <ele>1041</ele>
        <time>2015-05-15T08:25:52.95Z</time>
      </trkpt>
      <trkpt lat="48.04984" lon="6.9203">
        <ele>1041</ele>
        <time>2015-05-15T08:26:53.939Z</time>
      </trkpt>
      <trkpt lat="48.04986" lon="6.92038">
        <ele>1041</ele>
        <time>2015-05-15T08:27:54.94Z</time>
      </trkpt>
      <trkpt lat="48.04999" lon="6.92041">
        <ele>1041</ele>
        <time>2015-05-15T08:28:55.935Z</time>
      </trkpt>
      <trkpt lat="48.05013" lon="6.9198">
        <ele>1030</ele>
        <time>2015-05-15T08:29:35.936Z</time>
      </trkpt>
      <trkpt lat="48.0503" lon="6.91948">
        <ele>1028</ele>
        <time>2015-05-15T08:30:04.934Z</time>
      </trkpt>
      <trkpt lat="48.0504" lon="6.91933">
        <ele>1027</ele>
        <time>2015-05-15T08:30:16.938Z</time>
      </trkpt>
      <trkpt lat="48.05059" lon="6.91912">
        <ele>1025</ele>
        <time>2015-05-15T08:30:36.944Z</time>
      </trkpt>
      <trkpt lat="48.05082" lon="6.91879">
        <ele>1024</ele>
        <time>2015-05-15T08:31:08.944Z</time>
      </trkpt>
      <trkpt lat="48.05096" lon="6.91861">
        <ele>1014</ele>
        <time>2015-05-15T08:31:15.946Z</time>
      </trkpt>
      <trkpt lat="48.05093" lon="6.91883">
        <ele>1014</ele>
        <time>2015-05-15T08:32:16.933Z</time>
      </trkpt>
      <trkpt lat="48.05115" lon="6.91922">
        <ele>1013</ele>
        <time>2015-05-15T08:32:56.948Z</time>
      </trkpt>
      <trkpt lat="48.05129" lon="6.91942">
        <ele>1011</ele>
        <time>2015-05-15T08:33:28.948Z</time>
      </trkpt>
      <trkpt lat="48.05148" lon="6.91937">
        <ele>1009</ele>
        <time>2015-05-15T08:34:29.946Z</time>
      </trkpt>
      <trkpt lat="48.05148" lon="6.91937">
        <ele>1009</ele>
        <time>2015-05-15T08:35:30.936Z</time>
      </trkpt>
      <trkpt lat="48.05153" lon="6.91943">
        <ele>1009</ele>
        <time>2015-05-15T08:36:31.933Z</time>
      </trkpt>
      <trkpt lat="48.05162" lon="6.91936">
        <ele>1007</ele>
        <time>2015-05-15T08:37:31.94Z</time>
      </trkpt>
      <trkpt lat="48.05144" lon="6.91971">
        <ele>1010</ele>
        <time>2015-05-15T08:38:32.93Z</time>
      </trkpt>
      <trkpt lat="48.05116" lon="6.91985">
        <ele>1013</ele>
        <time>2015-05-15T08:39:08.928Z</time>
      </trkpt>
      <trkpt lat="48.05096" lon="6.92012">
        <ele>1018</ele>
        <time>2015-05-15T08:40:08.93Z</time>
      </trkpt>
      <trkpt lat="48.05079" lon="6.92073">
        <ele>1028</ele>
        <time>2015-05-15T08:41:08.931Z</time>
      </trkpt>
      <trkpt lat="48.05085" lon="6.92074">
        <ele>1024</ele>
        <time>2015-05-15T08:42:08.936Z</time>
      </trkpt>
      <trkpt lat="48.05085" lon="6.92082">
        <ele>1026</ele>
        <time>2015-05-15T08:43:09.935Z</time>
      </trkpt>
      <trkpt lat="48.05062" lon="6.92057">
        <ele>1029</ele>
        <time>2015-05-15T08:44:09.945Z</time>
      </trkpt>
      <trkpt lat="48.05033" lon="6.92038">
        <ele>1030</ele>
        <time>2015-05-15T08:45:10.933Z</time>
      </trkpt>
      <trkpt lat="48.04996" lon="6.92057">
        <ele>1041</ele>
        <time>2015-05-15T08:45:50.941Z</time>
      </trkpt>
      <trkpt lat="48.04999" lon="6.92078">
        <ele>1039</ele>
        <time>2015-05-15T08:45:58.938Z</time>
      </trkpt>
      <trkpt lat="48.05005" lon="6.921">
        <ele>1037</ele>
        <time>2015-05-15T08:46:09.938Z</time>
      </trkpt>
      <trkpt lat="48.05024" lon="6.92115">
        <ele>1037</ele>
        <time>2015-05-15T08:46:30.951Z</time>
      </trkpt>
      <trkpt lat="48.0507" lon="6.92147">
        <ele>1035</ele>
        <time>2015-05-15T08:47:09.93Z</time>
      </trkpt>
      <trkpt lat="48.05084" lon="6.92152">
        <ele>1031</ele>
        <time>2015-05-15T08:47:18.943Z</time>
      </trkpt>
      <trkpt lat="48.05091" lon="6.92203">
        <ele>1034</ele>
        <time>2015-05-15T08:47:57.94Z</time>
      </trkpt>
      <trkpt lat="48.05102" lon="6.92233">
        <ele>1035</ele>
        <time>2015-05-15T08:48:10.943Z</time>
      </trkpt>
      <trkpt lat="48.0511" lon="6.9225">
        <ele>1039</ele>
        <time>2015-05-15T08:48:19.94Z</time>
      </trkpt>
      <trkpt lat="48.05124" lon="6.92246">
        <ele>1034</ele>
        <time>2015-05-15T08:48:29.943Z</time>
      </trkpt>
      <trkpt lat="48.05138" lon="6.92242">
        <ele>1034</ele>
        <time>2015-05-15T08:48:40.941Z</time>
      </trkpt>
      <trkpt lat="48.05174" lon="6.92252">
        <ele>1036</ele>
        <time>2015-05-15T08:49:41.935Z</time>
      </trkpt>
      <trkpt lat="48.0516" lon="6.92235">
        <ele>1033</ele>
        <time>2015-05-15T08:50:07.933Z</time>
      </trkpt>
      <trkpt lat="48.05176" lon="6.92249">
        <ele>1034</ele>
        <time>2015-05-15T08:50:57.934Z</time>
      </trkpt>
      <trkpt lat="48.05197" lon="6.92305">
        <ele>1042</ele>
        <time>2015-05-15T08:51:57.935Z</time>
      </trkpt>
      <trkpt lat="48.05219" lon="6.92344">
        <ele>1047</ele>
        <time>2015-05-15T08:52:58.933Z</time>
      </trkpt>
      <trkpt lat="48.05218" lon="6.92394">
        <ele>1049</ele>
        <time>2015-05-15T08:53:31.934Z</time>
      </trkpt>
      <trkpt lat="48.05212" lon="6.92441">
        <ele>1052</ele>
        <time>2015-05-15T08:54:32.934Z</time>
      </trkpt>
      <trkpt lat="48.05206" lon="6.9244">
        <ele>1053</ele>
        <time>2015-05-15T08:55:32.935Z</time>
      </trkpt>
      <trkpt lat="48.05207" lon="6.92441">
        <ele>1053</ele>
        <time>2015-05-15T08:56:32.939Z</time>
      </trkpt>
      <trkpt lat="48.05198" lon="6.92476">
        <ele>1053</ele>
        <time>2015-05-15T08:57:33.933Z</time>
      </trkpt>
      <trkpt lat="48.05198" lon="6.92518">
        <ele>1055</ele>
        <time>2015-05-15T08:58:33.939Z</time>
      </trkpt>
      <trkpt lat="48.05194" lon="6.92553">
        <ele>1055</ele>
        <time>2015-05-15T08:59:03.936Z</time>
      </trkpt>
      <trkpt lat="48.05175" lon="6.92601">
        <ele>1056</ele>
        <time>2015-05-15T09:00:03.94Z</time>
      </trkpt>
      <trkpt lat="48.05173" lon="6.92638">
        <ele>1054</ele>
        <time>2015-05-15T09:01:03.943Z</time>
      </trkpt>
      <trkpt lat="48.05173" lon="6.92637">
        <ele>1054</ele>
        <time>2015-05-15T09:02:04.949Z</time>
      </trkpt>
      <trkpt lat="48.05173" lon="6.92638">
        <ele>1054</ele>
        <time>2015-05-15T09:03:05.938Z</time>
      </trkpt>
      <trkpt lat="48.05184" lon="6.9265">
        <ele>1054</ele>
        <time>2015-05-15T09:03:29.935Z</time>
      </trkpt>
      <trkpt lat="48.05192" lon="6.92667">
        <ele>1054</ele>
        <time>2015-05-15T09:03:38.935Z</time>
      </trkpt>
      <trkpt lat="48.05206" lon="6.92667">
        <ele>1054</ele>
        <time>2015-05-15T09:03:45.936Z</time>
      </trkpt>
      <trkpt lat="48.05221" lon="6.92692">
        <ele>1050</ele>
        <time>2015-05-15T09:04:08.935Z</time>
      </trkpt>
      <trkpt lat="48.05248" lon="6.92726">
        <ele>1050</ele>
        <time>2015-05-15T09:04:35.944Z</time>
      </trkpt>
      <trkpt lat="48.05293" lon="6.92742">
        <ele>1055</ele>
        <time>2015-05-15T09:05:13.936Z</time>
      </trkpt>
      <trkpt lat="48.05308" lon="6.92734">
        <ele>1056</ele>
        <time>2015-05-15T09:05:23.934Z</time>
      </trkpt>
      <trkpt lat="48.05321" lon="6.92744">
        <ele>1057</ele>
        <time>2015-05-15T09:05:36.935Z</time>
      </trkpt>
      <trkpt lat="48.05336" lon="6.92792">
        <ele>1063</ele>
        <time>2015-05-15T09:06:07.936Z</time>
      </trkpt>
      <trkpt lat="48.05341" lon="6.92816">
        <ele>1063</ele>
        <time>2015-05-15T09:06:21.935Z</time>
      </trkpt>
      <trkpt lat="48.05328" lon="6.92871">
        <ele>1055</ele>
        <time>2015-05-15T09:07:17.936Z</time>
      </trkpt>
      <trkpt lat="48.05329" lon="6.92892">
        <ele>1056</ele>
        <time>2015-05-15T09:07:28.938Z</time>
      </trkpt>
      <trkpt lat="48.05354" lon="6.92948">
        <ele>1062</ele>
        <time>2015-05-15T09:08:05.939Z</time>
      </trkpt>
      <trkpt lat="48.05352" lon="6.92969">
        <ele>1061</ele>
        <time>2015-05-15T09:08:17.935Z</time>
      </trkpt>
      <trkpt lat="48.05349" lon="6.93002">
        <ele>1056</ele>
        <time>2015-05-15T09:08:35.936Z</time>
      </trkpt>
      <trkpt lat="48.05354" lon="6.93028">
        <ele>1056</ele>
        <time>2015-05-15T09:08:49.93Z</time>
      </trkpt>
      <trkpt lat="48.05365" lon="6.93045">
        <ele>1056</ele>
        <time>2015-05-15T09:09:02.934Z</time>
      </trkpt>
      <trkpt lat="48.05367" lon="6.93082">
        <ele>1054</ele>
        <time>2015-05-15T09:09:24.934Z</time>
      </trkpt>
      <trkpt lat="48.05367" lon="6.93161">
        <ele>1046</ele>
        <time>2015-05-15T09:10:10.936Z</time>
      </trkpt>
      <trkpt lat="48.0537" lon="6.93217">
        <ele>1042</ele>
        <time>2015-05-15T09:11:10.943Z</time>
      </trkpt>
      <trkpt lat="48.05374" lon="6.93274">
        <ele>1039</ele>
        <time>2015-05-15T09:11:58.93Z</time>
      </trkpt>
      <trkpt lat="48.05381" lon="6.93293">
        <ele>1039</ele>
        <time>2015-05-15T09:12:09.934Z</time>
      </trkpt>
      <trkpt lat="48.05382" lon="6.93327">
        <ele>1039</ele>
        <time>2015-05-15T09:12:29.935Z</time>
      </trkpt>
      <trkpt lat="48.05378" lon="6.93349">
        <ele>1034</ele>
        <time>2015-05-15T09:12:41.934Z</time>
      </trkpt>
      <trkpt lat="48.05374" lon="6.93369">
        <ele>1032</ele>
        <time>2015-05-15T09:12:49.929Z</time>
      </trkpt>
      <trkpt lat="48.05378" lon="6.93391">
        <ele>1032</ele>
        <time>2015-05-15T09:12:57.931Z</time>
      </trkpt>
      <trkpt lat="48.05384" lon="6.9341">
        <ele>1032</ele>
        <time>2015-05-15T09:13:07.939Z</time>
      </trkpt>
      <trkpt lat="48.05401" lon="6.93432">
        <ele>1029</ele>
        <time>2015-05-15T09:13:24.935Z</time>
      </trkpt>
      <trkpt lat="48.05407" lon="6.93451">
        <ele>1026</ele>
        <time>2015-05-15T09:13:37.935Z</time>
      </trkpt>
      <trkpt lat="48.05417" lon="6.93493">
        <ele>1031</ele>
        <time>2015-05-15T09:14:02.935Z</time>
      </trkpt>
      <trkpt lat="48.05423" lon="6.93511">
        <ele>1028</ele>
        <time>2015-05-15T09:14:11.941Z</time>
      </trkpt>
      <trkpt lat="48.05427" lon="6.93532">
        <ele>1027</ele>
        <time>2015-05-15T09:14:25.934Z</time>
      </trkpt>
      <trkpt lat="48.05434" lon="6.9356">
        <ele>1024</ele>
        <time>2015-05-15T09:14:39.934Z</time>
      </trkpt>
      <trkpt lat="48.05445" lon="6.93579">
        <ele>1024</ele>
        <time>2015-05-15T09:14:53.935Z</time>
      </trkpt>
      <trkpt lat="48.05449" lon="6.93602">
        <ele>1015</ele>
        <time>2015-05-15T09:15:05.933Z</time>
      </trkpt>
      <trkpt lat="48.05462" lon="6.9363">
        <ele>1015</ele>
        <time>2015-05-15T09:15:21.935Z</time>
      </trkpt>
      <trkpt lat="48.05477" lon="6.93651">
        <ele>1016</ele>
        <time>2015-05-15T09:15:35.933Z</time>
      </trkpt>
      <trkpt lat="48.05486" lon="6.93666">
        <ele>1018</ele>
        <time>2015-05-15T09:15:45.933Z</time>
      </trkpt>
      <trkpt lat="48.05492" lon="6.93738">
        <ele>1008</ele>
        <time>2015-05-15T09:16:24.939Z</time>
      </trkpt>
      <trkpt lat="48.05506" lon="6.93785">
        <ele>1016</ele>
        <time>2015-05-15T09:16:49.94Z</time>
      </trkpt>
      <trkpt lat="48.05514" lon="6.93803">
        <ele>1015</ele>
        <time>2015-05-15T09:16:59.935Z</time>
      </trkpt>
      <trkpt lat="48.05524" lon="6.93854">
        <ele>1007</ele>
        <time>2015-05-15T09:17:26.935Z</time>
      </trkpt>
      <trkpt lat="48.05526" lon="6.93875">
        <ele>1007</ele>
        <time>2015-05-15T09:17:36.935Z</time>
      </trkpt>
      <trkpt lat="48.05528" lon="6.93896">
        <ele>1005</ele>
        <time>2015-05-15T09:17:48.934Z</time>
      </trkpt>
      <trkpt lat="48.05527" lon="6.93892">
        <ele>1005</ele>
        <time>2015-05-15T09:18:48.943Z</time>
      </trkpt>
      <trkpt lat="48.05527" lon="6.93892">
        <ele>1005</ele>
        <time>2015-05-15T09:19:49.939Z</time>
      </trkpt>
      <trkpt lat="48.05527" lon="6.93879">
        <ele>1006</ele>
        <time>2015-05-15T09:20:49.969Z</time>
      </trkpt>
      <trkpt lat="48.0553" lon="6.93885">
        <ele>1006</ele>
        <time>2015-05-15T09:21:50.941Z</time>
      </trkpt>
      <trkpt lat="48.0553" lon="6.93885">
        <ele>1006</ele>
        <time>2015-05-15T09:22:50.946Z</time>
      </trkpt>
      <trkpt lat="48.0553" lon="6.93884">
        <ele>1006</ele>
        <time>2015-05-15T09:23:51.943Z</time>
      </trkpt>
      <trkpt lat="48.0553" lon="6.93884">
        <ele>1006</ele>
        <time>2015-05-15T09:24:51.958Z</time>
      </trkpt>
      <trkpt lat="48.05533" lon="6.93892">
        <ele>1006</ele>
        <time>2015-05-15T09:25:52.938Z</time>
      </trkpt>
      <trkpt lat="48.05543" lon="6.93923">
        <ele>999</ele>
        <time>2015-05-15T09:26:24.94Z</time>
      </trkpt>
      <trkpt lat="48.0554" lon="6.93947">
        <ele>996</ele>
        <time>2015-05-15T09:26:35.939Z</time>
      </trkpt>
      <trkpt lat="48.05542" lon="6.9397">
        <ele>995</ele>
        <time>2015-05-15T09:26:46.94Z</time>
      </trkpt>
      <trkpt lat="48.05544" lon="6.93992">
        <ele>994</ele>
        <time>2015-05-15T09:26:57.939Z</time>
      </trkpt>
      <trkpt lat="48.05548" lon="6.94013">
        <ele>984</ele>
        <time>2015-05-15T09:27:09.938Z</time>
      </trkpt>
      <trkpt lat="48.0557" lon="6.94076">
        <ele>981</ele>
        <time>2015-05-15T09:27:57.939Z</time>
      </trkpt>
      <trkpt lat="48.05594" lon="6.9414">
        <ele>979</ele>
        <time>2015-05-15T09:28:46.94Z</time>
      </trkpt>
      <trkpt lat="48.05606" lon="6.94169">
        <ele>962</ele>
        <time>2015-05-15T09:29:04.939Z</time>
      </trkpt>
      <trkpt lat="48.0564" lon="6.94214">
        <ele>960</ele>
        <time>2015-05-15T09:29:46.94Z</time>
      </trkpt>
      <trkpt lat="48.05674" lon="6.94259">
        <ele>949</ele>
        <time>2015-05-15T09:30:39.939Z</time>
      </trkpt>
      <trkpt lat="48.05689" lon="6.94286">
        <ele>948</ele>
        <time>2015-05-15T09:31:09.94Z</time>
      </trkpt>
      <trkpt lat="48.05696" lon="6.94305">
        <ele>946</ele>
        <time>2015-05-15T09:32:09.946Z</time>
      </trkpt>
      <trkpt lat="48.05698" lon="6.94315">
        <ele>945</ele>
        <time>2015-05-15T09:33:09.95Z</time>
      </trkpt>
      <trkpt lat="48.05688" lon="6.94332">
        <ele>941</ele>
        <time>2015-05-15T09:33:53.941Z</time>
      </trkpt>
      <trkpt lat="48.05672" lon="6.94412">
        <ele>936</ele>
        <time>2015-05-15T09:34:38.94Z</time>
      </trkpt>
      <trkpt lat="48.05675" lon="6.9445">
        <ele>944</ele>
        <time>2015-05-15T09:34:56.94Z</time>
      </trkpt>
      <trkpt lat="48.05667" lon="6.94486">
        <ele>945</ele>
        <time>2015-05-15T09:35:18.94Z</time>
      </trkpt>
      <trkpt lat="48.05658" lon="6.94511">
        <ele>943</ele>
        <time>2015-05-15T09:35:33.94Z</time>
      </trkpt>
      <trkpt lat="48.05648" lon="6.94533">
        <ele>944</ele>
        <time>2015-05-15T09:35:44.944Z</time>
      </trkpt>
      <trkpt lat="48.05638" lon="6.94554">
        <ele>946</ele>
        <time>2015-05-15T09:36:02.941Z</time>
      </trkpt>
      <trkpt lat="48.05625" lon="6.94563">
        <ele>944</ele>
        <time>2015-05-15T09:36:09.945Z</time>
      </trkpt>
      <trkpt lat="48.05601" lon="6.94597">
        <ele>951</ele>
        <time>2015-05-15T09:36:34.944Z</time>
      </trkpt>
      <trkpt lat="48.05587" lon="6.94608">
        <ele>952</ele>
        <time>2015-05-15T09:36:43.944Z</time>
      </trkpt>
      <trkpt lat="48.05569" lon="6.94621">
        <ele>939</ele>
        <time>2015-05-15T09:37:01.944Z</time>
      </trkpt>
      <trkpt lat="48.05542" lon="6.94643">
        <ele>939</ele>
        <time>2015-05-15T09:37:20.943Z</time>
      </trkpt>
      <trkpt lat="48.0552" lon="6.94674">
        <ele>946</ele>
        <time>2015-05-15T09:37:41.945Z</time>
      </trkpt>
      <trkpt lat="48.05504" lon="6.94714">
        <ele>951</ele>
        <time>2015-05-15T09:38:04.944Z</time>
      </trkpt>
      <trkpt lat="48.05506" lon="6.94724">
        <ele>952</ele>
        <time>2015-05-15T09:39:05.94Z</time>
      </trkpt>
      <trkpt lat="48.05491" lon="6.9473">
        <ele>938</ele>
        <time>2015-05-15T09:39:19.939Z</time>
      </trkpt>
      <trkpt lat="48.05446" lon="6.94751">
        <ele>942</ele>
        <time>2015-05-15T09:39:49.939Z</time>
      </trkpt>
      <trkpt lat="48.05398" lon="6.94762">
        <ele>929</ele>
        <time>2015-05-15T09:40:20.94Z</time>
      </trkpt>
      <trkpt lat="48.05382" lon="6.94769">
        <ele>929</ele>
        <time>2015-05-15T09:40:33.943Z</time>
      </trkpt>
      <trkpt lat="48.05313" lon="6.94791">
        <ele>922</ele>
        <time>2015-05-15T09:41:23.955Z</time>
      </trkpt>
      <trkpt lat="48.05298" lon="6.94782">
        <ele>922</ele>
        <time>2015-05-15T09:42:05.949Z</time>
      </trkpt>
      <trkpt lat="48.05314" lon="6.94755">
        <ele>920</ele>
        <time>2015-05-15T09:42:28.955Z</time>
      </trkpt>
      <trkpt lat="48.05321" lon="6.94738">
        <ele>917</ele>
        <time>2015-05-15T09:42:40.95Z</time>
      </trkpt>
      <trkpt lat="48.05313" lon="6.94721">
        <ele>916</ele>
        <time>2015-05-15T09:42:49.95Z</time>
      </trkpt>
      <trkpt lat="48.05301" lon="6.94726">
        <ele>916</ele>
        <time>2015-05-15T09:43:50.95Z</time>
      </trkpt>
      <trkpt lat="48.05295" lon="6.94726">
        <ele>916</ele>
        <time>2015-05-15T09:44:50.951Z</time>
      </trkpt>
      <trkpt lat="48.05293" lon="6.94724">
        <ele>916</ele>
        <time>2015-05-15T09:45:51.95Z</time>
      </trkpt>
      <trkpt lat="48.05299" lon="6.94725">
        <ele>916</ele>
        <time>2015-05-15T09:46:52.939Z</time>
      </trkpt>
      <trkpt lat="48.05304" lon="6.94723">
        <ele>916</ele>
        <time>2015-05-15T09:47:52.943Z</time>
      </trkpt>
      <trkpt lat="48.05305" lon="6.94725">
        <ele>916</ele>
        <time>2015-05-15T09:48:52.949Z</time>
      </trkpt>
      <trkpt lat="48.05284" lon="6.94737">
        <ele>916</ele>
        <time>2015-05-15T09:49:53.95Z</time>
      </trkpt>
      <trkpt lat="48.05288" lon="6.94733">
        <ele>916</ele>
        <time>2015-05-15T09:50:54.946Z</time>
      </trkpt>
      <trkpt lat="48.05291" lon="6.9473">
        <ele>916</ele>
        <time>2015-05-15T09:51:55.945Z</time>
      </trkpt>
      <trkpt lat="48.05291" lon="6.9473">
        <ele>916</ele>
        <time>2015-05-15T09:52:56.946Z</time>
      </trkpt>
      <trkpt lat="48.05291" lon="6.9473">
        <ele>916</ele>
        <time>2015-05-15T09:53:57.941Z</time>
      </trkpt>
      <trkpt lat="48.05291" lon="6.9473">
        <ele>916</ele>
        <time>2015-05-15T09:54:57.943Z</time>
      </trkpt>
      <trkpt lat="48.05291" lon="6.9473">
        <ele>916</ele>
        <time>2015-05-15T09:55:58.94Z</time>
      </trkpt>
      <trkpt lat="48.05291" lon="6.9473">
        <ele>916</ele>
        <time>2015-05-15T09:56:58.94Z</time>
      </trkpt>
      <trkpt lat="48.05291" lon="6.9473">
        <ele>916</ele>
        <time>2015-05-15T09:57:58.941Z</time>
      </trkpt>
      <trkpt lat="48.05291" lon="6.9473">
        <ele>916</ele>
        <time>2015-05-15T09:58:59.939Z</time>
      </trkpt>
      <trkpt lat="48.05291" lon="6.9473">
        <ele>916</ele>
        <time>2015-05-15T09:59:59.943Z</time>
      </trkpt>
      <trkpt lat="48.05291" lon="6.9473">
        <ele>916</ele>
        <time>2015-05-15T10:00:59.946Z</time>
      </trkpt>
      <trkpt lat="48.05291" lon="6.9473">
        <ele>916</ele>
        <time>2015-05-15T10:02:00.94Z</time>
      </trkpt>
      <trkpt lat="48.05291" lon="6.9473">
        <ele>916</ele>
        <time>2015-05-15T10:03:01.936Z</time>
      </trkpt>
      <trkpt lat="48.05292" lon="6.9473">
        <ele>916</ele>
        <time>2015-05-15T10:04:01.938Z</time>
      </trkpt>
      <trkpt lat="48.05292" lon="6.9473">
        <ele>916</ele>
        <time>2015-05-15T10:05:01.94Z</time>
      </trkpt>
      <trkpt lat="48.05292" lon="6.94729">
        <ele>916</ele>
        <time>2015-05-15T10:06:02.94Z</time>
      </trkpt>
      <trkpt lat="48.05292" lon="6.94729">
        <ele>916</ele>
        <time>2015-05-15T10:07:03.938Z</time>
      </trkpt>
      <trkpt lat="48.05292" lon="6.94729">
        <ele>916</ele>
        <time>2015-05-15T10:08:04.935Z</time>
      </trkpt>
      <trkpt lat="48.05292" lon="6.94729">
        <ele>916</ele>
        <time>2015-05-15T10:09:04.939Z</time>
      </trkpt>
      <trkpt lat="48.05292" lon="6.94729">
        <ele>916</ele>
        <time>2015-05-15T10:10:05.935Z</time>
      </trkpt>
      <trkpt lat="48.05292" lon="6.94729">
        <ele>916</ele>
        <time>2015-05-15T10:11:06.935Z</time>
      </trkpt>
      <trkpt lat="48.05292" lon="6.94729">
        <ele>916</ele>
        <time>2015-05-15T10:12:07.933Z</time>
      </trkpt>
      <trkpt lat="48.05292" lon="6.94729">
        <ele>916</ele>
        <time>2015-05-15T10:13:07.934Z</time>
      </trkpt>
      <trkpt lat="48.05292" lon="6.94729">
        <ele>916</ele>
        <time>2015-05-15T10:14:07.935Z</time>
      </trkpt>
      <trkpt lat="48.05292" lon="6.94729">
        <ele>916</ele>
        <time>2015-05-15T10:15:08.931Z</time>
      </trkpt>
      <trkpt lat="48.05292" lon="6.94729">
        <ele>916</ele>
        <time>2015-05-15T10:16:08.935Z</time>
      </trkpt>
      <trkpt lat="48.05292" lon="6.94729">
        <ele>916</ele>
        <time>2015-05-15T10:17:08.936Z</time>
      </trkpt>
      <trkpt lat="48.05292" lon="6.94729">
        <ele>916</ele>
        <time>2015-05-15T10:18:09.939Z</time>
      </trkpt>
      <trkpt lat="48.05296" lon="6.94736">
        <ele>916</ele>
        <time>2015-05-15T10:19:09.941Z</time>
      </trkpt>
      <trkpt lat="48.05296" lon="6.94736">
        <ele>916</ele>
        <time>2015-05-15T10:20:10.935Z</time>
      </trkpt>
      <trkpt lat="48.05297" lon="6.94736">
        <ele>916</ele>
        <time>2015-05-15T10:21:10.935Z</time>
      </trkpt>
      <trkpt lat="48.05308" lon="6.94741">
        <ele>917</ele>
        <time>2015-05-15T10:22:11.935Z</time>
      </trkpt>
      <trkpt lat="48.05303" lon="6.94748">
        <ele>917</ele>
        <time>2015-05-15T10:23:11.938Z</time>
      </trkpt>
      <trkpt lat="48.05292" lon="6.94745">
        <ele>917</ele>
        <time>2015-05-15T10:24:11.938Z</time>
      </trkpt>
      <trkpt lat="48.05303" lon="6.9474">
        <ele>917</ele>
        <time>2015-05-15T10:25:12.935Z</time>
      </trkpt>
      <trkpt lat="48.05304" lon="6.94741">
        <ele>917</ele>
        <time>2015-05-15T10:26:12.936Z</time>
      </trkpt>
      <trkpt lat="48.05294" lon="6.94727">
        <ele>916</ele>
        <time>2015-05-15T10:27:12.94Z</time>
      </trkpt>
      <trkpt lat="48.05285" lon="6.94729">
        <ele>916</ele>
        <time>2015-05-15T10:28:12.94Z</time>
      </trkpt>
      <trkpt lat="48.05279" lon="6.94732">
        <ele>916</ele>
        <time>2015-05-15T10:29:13.935Z</time>
      </trkpt>
      <trkpt lat="48.05277" lon="6.94768">
        <ele>920</ele>
        <time>2015-05-15T10:29:33.935Z</time>
      </trkpt>
      <trkpt lat="48.05288" lon="6.94783">
        <ele>921</ele>
        <time>2015-05-15T10:29:37.936Z</time>
      </trkpt>
      <trkpt lat="48.053" lon="6.94798">
        <ele>922</ele>
        <time>2015-05-15T10:29:43.935Z</time>
      </trkpt>
      <trkpt lat="48.05313" lon="6.94814">
        <ele>924</ele>
        <time>2015-05-15T10:30:43.935Z</time>
      </trkpt>
      <trkpt lat="48.0533" lon="6.94838">
        <ele>932</ele>
        <time>2015-05-15T10:31:44.93Z</time>
      </trkpt>
      <trkpt lat="48.05334" lon="6.94848">
        <ele>940</ele>
        <time>2015-05-15T10:32:44.935Z</time>
      </trkpt>
      <trkpt lat="48.05375" lon="6.94859">
        <ele>950</ele>
        <time>2015-05-15T10:33:44.935Z</time>
      </trkpt>
      <trkpt lat="48.05375" lon="6.94856">
        <ele>950</ele>
        <time>2015-05-15T10:34:45.934Z</time>
      </trkpt>
      <trkpt lat="48.05412" lon="6.94862">
        <ele>953</ele>
        <time>2015-05-15T10:35:19.931Z</time>
      </trkpt>
      <trkpt lat="48.05457" lon="6.94853">
        <ele>972</ele>
        <time>2015-05-15T10:35:28.931Z</time>
      </trkpt>
      <trkpt lat="48.0553" lon="6.94851">
        <ele>994</ele>
        <time>2015-05-15T10:36:20.935Z</time>
      </trkpt>
      <trkpt lat="48.05563" lon="6.94844">
        <ele>998</ele>
        <time>2015-05-15T10:37:08.933Z</time>
      </trkpt>
      <trkpt lat="48.05595" lon="6.94824">
        <ele>999</ele>
        <time>2015-05-15T10:37:32.931Z</time>
      </trkpt>
      <trkpt lat="48.05617" lon="6.94806">
        <ele>1000</ele>
        <time>2015-05-15T10:38:01.933Z</time>
      </trkpt>
      <trkpt lat="48.05632" lon="6.94802">
        <ele>1001</ele>
        <time>2015-05-15T10:38:07.933Z</time>
      </trkpt>
      <trkpt lat="48.0565" lon="6.94783">
        <ele>1001</ele>
        <time>2015-05-15T10:38:22.933Z</time>
      </trkpt>
      <trkpt lat="48.0566" lon="6.94774">
        <ele>1002</ele>
        <time>2015-05-15T10:39:22.94Z</time>
      </trkpt>
      <trkpt lat="48.05655" lon="6.94769">
        <ele>1002</ele>
        <time>2015-05-15T10:40:22.941Z</time>
      </trkpt>
      <trkpt lat="48.05655" lon="6.94769">
        <ele>1002</ele>
        <time>2015-05-15T10:41:23.953Z</time>
      </trkpt>
      <trkpt lat="48.05661" lon="6.94782">
        <ele>1002</ele>
        <time>2015-05-15T10:42:24.945Z</time>
      </trkpt>
      <trkpt lat="48.05651" lon="6.94848">
        <ele>1014</ele>
        <time>2015-05-15T10:43:23.936Z</time>
      </trkpt>
      <trkpt lat="48.05665" lon="6.94917">
        <ele>1025</ele>
        <time>2015-05-15T10:44:24.936Z</time>
      </trkpt>
      <trkpt lat="48.05674" lon="6.94932">
        <ele>1028</ele>
        <time>2015-05-15T10:44:33.935Z</time>
      </trkpt>
      <trkpt lat="48.05708" lon="6.94979">
        <ele>1031</ele>
        <time>2015-05-15T10:45:16.938Z</time>
      </trkpt>
      <trkpt lat="48.05726" lon="6.95047">
        <ele>1037</ele>
        <time>2015-05-15T10:46:04.935Z</time>
      </trkpt>
      <trkpt lat="48.0573" lon="6.95114">
        <ele>1044</ele>
        <time>2015-05-15T10:46:45.95Z</time>
      </trkpt>
      <trkpt lat="48.05732" lon="6.95181">
        <ele>1049</ele>
        <time>2015-05-15T10:47:22.93Z</time>
      </trkpt>
      <trkpt lat="48.05748" lon="6.95245">
        <ele>1049</ele>
        <time>2015-05-15T10:48:00.933Z</time>
      </trkpt>
      <trkpt lat="48.05746" lon="6.95328">
        <ele>1058</ele>
        <time>2015-05-15T10:48:48.93Z</time>
      </trkpt>
      <trkpt lat="48.05726" lon="6.95353">
        <ele>1067</ele>
        <time>2015-05-15T10:49:16.93Z</time>
      </trkpt>
      <trkpt lat="48.05718" lon="6.95419">
        <ele>1069</ele>
        <time>2015-05-15T10:50:14.935Z</time>
      </trkpt>
      <trkpt lat="48.05714" lon="6.95422">
        <ele>1069</ele>
        <time>2015-05-15T10:51:14.936Z</time>
      </trkpt>
      <trkpt lat="48.05709" lon="6.95414">
        <ele>1071</ele>
        <time>2015-05-15T10:52:15.933Z</time>
      </trkpt>
      <trkpt lat="48.05707" lon="6.95416">
        <ele>1071</ele>
        <time>2015-05-15T10:53:15.934Z</time>
      </trkpt>
      <trkpt lat="48.05714" lon="6.95479">
        <ele>1070</ele>
        <time>2015-05-15T10:53:58.93Z</time>
      </trkpt>
      <trkpt lat="48.05691" lon="6.95539">
        <ele>1073</ele>
        <time>2015-05-15T10:54:41.93Z</time>
      </trkpt>
      <trkpt lat="48.05661" lon="6.95589">
        <ele>1078</ele>
        <time>2015-05-15T10:55:28.93Z</time>
      </trkpt>
      <trkpt lat="48.0565" lon="6.956">
        <ele>1078</ele>
        <time>2015-05-15T10:55:35.93Z</time>
      </trkpt>
      <trkpt lat="48.05628" lon="6.95609">
        <ele>1079</ele>
        <time>2015-05-15T10:55:59.93Z</time>
      </trkpt>
      <trkpt lat="48.05583" lon="6.95593">
        <ele>1082</ele>
        <time>2015-05-15T10:56:42.93Z</time>
      </trkpt>
      <trkpt lat="48.05531" lon="6.95575">
        <ele>1089</ele>
        <time>2015-05-15T10:57:19.938Z</time>
      </trkpt>
      <trkpt lat="48.0552" lon="6.9559">
        <ele>1086</ele>
        <time>2015-05-15T10:57:34.929Z</time>
      </trkpt>
      <trkpt lat="48.05472" lon="6.95613">
        <ele>1086</ele>
        <time>2015-05-15T10:58:18.936Z</time>
      </trkpt>
      <trkpt lat="48.05448" lon="6.95621">
        <ele>1085</ele>
        <time>2015-05-15T10:58:47.934Z</time>
      </trkpt>
      <trkpt lat="48.05416" lon="6.95669">
        <ele>1080</ele>
        <time>2015-05-15T10:59:25.934Z</time>
      </trkpt>
      <trkpt lat="48.05398" lon="6.95731">
        <ele>1076</ele>
        <time>2015-05-15T11:00:05.933Z</time>
      </trkpt>
      <trkpt lat="48.05368" lon="6.95745">
        <ele>1074</ele>
        <time>2015-05-15T11:00:30.933Z</time>
      </trkpt>
      <trkpt lat="48.05334" lon="6.95783">
        <ele>1070</ele>
        <time>2015-05-15T11:01:30.933Z</time>
      </trkpt>
      <trkpt lat="48.05295" lon="6.95825">
        <ele>1067</ele>
        <time>2015-05-15T11:02:04.934Z</time>
      </trkpt>
      <trkpt lat="48.05243" lon="6.9584">
        <ele>1068</ele>
        <time>2015-05-15T11:02:48.935Z</time>
      </trkpt>
      <trkpt lat="48.0523" lon="6.95855">
        <ele>1067</ele>
        <time>2015-05-15T11:03:00.931Z</time>
      </trkpt>
      <trkpt lat="48.05212" lon="6.95866">
        <ele>1066</ele>
        <time>2015-05-15T11:03:13.93Z</time>
      </trkpt>
      <trkpt lat="48.05215" lon="6.95874">
        <ele>1067</ele>
        <time>2015-05-15T11:04:14.929Z</time>
      </trkpt>
      <trkpt lat="48.05229" lon="6.95867">
        <ele>1067</ele>
        <time>2015-05-15T11:04:22.93Z</time>
      </trkpt>
      <trkpt lat="48.05252" lon="6.95849">
        <ele>1070</ele>
        <time>2015-05-15T11:04:37.931Z</time>
      </trkpt>
      <trkpt lat="48.05299" lon="6.95837">
        <ele>1070</ele>
        <time>2015-05-15T11:05:29.933Z</time>
      </trkpt>
      <trkpt lat="48.05328" lon="6.9587">
        <ele>1071</ele>
        <time>2015-05-15T11:06:29.938Z</time>
      </trkpt>
      <trkpt lat="48.05341" lon="6.959">
        <ele>1074</ele>
        <time>2015-05-15T11:07:29.938Z</time>
      </trkpt>
      <trkpt lat="48.05366" lon="6.95957">
        <ele>1082</ele>
        <time>2015-05-15T11:08:19.933Z</time>
      </trkpt>
      <trkpt lat="48.05365" lon="6.9598">
        <ele>1084</ele>
        <time>2015-05-15T11:09:19.94Z</time>
      </trkpt>
      <trkpt lat="48.05365" lon="6.9598">
        <ele>1084</ele>
        <time>2015-05-15T11:10:19.941Z</time>
      </trkpt>
      <trkpt lat="48.05365" lon="6.9598">
        <ele>1084</ele>
        <time>2015-05-15T11:11:20.939Z</time>
      </trkpt>
      <trkpt lat="48.05365" lon="6.9598">
        <ele>1084</ele>
        <time>2015-05-15T11:12:21.933Z</time>
      </trkpt>
      <trkpt lat="48.05367" lon="6.95988">
        <ele>1084</ele>
        <time>2015-05-15T11:13:21.94Z</time>
      </trkpt>
      <trkpt lat="48.05352" lon="6.9598">
        <ele>1084</ele>
        <time>2015-05-15T11:14:22.935Z</time>
      </trkpt>
      <trkpt lat="48.05332" lon="6.9598">
        <ele>1083</ele>
        <time>2015-05-15T11:14:42.935Z</time>
      </trkpt>
      <trkpt lat="48.05287" lon="6.9599">
        <ele>1081</ele>
        <time>2015-05-15T11:15:39.936Z</time>
      </trkpt>
      <trkpt lat="48.0527" lon="6.95973">
        <ele>1080</ele>
        <time>2015-05-15T11:16:03.94Z</time>
      </trkpt>
      <trkpt lat="48.0525" lon="6.9595">
        <ele>1074</ele>
        <time>2015-05-15T11:16:21.938Z</time>
      </trkpt>
      <trkpt lat="48.05238" lon="6.9594">
        <ele>1073</ele>
        <time>2015-05-15T11:16:30.935Z</time>
      </trkpt>
      <trkpt lat="48.05194" lon="6.95956">
        <ele>1070</ele>
        <time>2015-05-15T11:17:08.938Z</time>
      </trkpt>
      <trkpt lat="48.05172" lon="6.95959">
        <ele>1068</ele>
        <time>2015-05-15T11:17:19.936Z</time>
      </trkpt>
      <trkpt lat="48.05158" lon="6.95958">
        <ele>1058</ele>
        <time>2015-05-15T11:17:33.936Z</time>
      </trkpt>
      <trkpt lat="48.05143" lon="6.9596">
        <ele>1058</ele>
        <time>2015-05-15T11:17:48.938Z</time>
      </trkpt>
      <trkpt lat="48.0513" lon="6.95968">
        <ele>1057</ele>
        <time>2015-05-15T11:18:48.948Z</time>
      </trkpt>
      <trkpt lat="48.05132" lon="6.95961">
        <ele>1057</ele>
        <time>2015-05-15T11:19:49.943Z</time>
      </trkpt>
      <trkpt lat="48.05131" lon="6.95976">
        <ele>1057</ele>
        <time>2015-05-15T11:20:50.94Z</time>
      </trkpt>
      <trkpt lat="48.05121" lon="6.9599">
        <ele>1056</ele>
        <time>2015-05-15T11:21:00.94Z</time>
      </trkpt>
      <trkpt lat="48.05104" lon="6.96022">
        <ele>1056</ele>
        <time>2015-05-15T11:21:25.943Z</time>
      </trkpt>
      <trkpt lat="48.05096" lon="6.9605">
        <ele>1056</ele>
        <time>2015-05-15T11:21:41.941Z</time>
      </trkpt>
      <trkpt lat="48.05101" lon="6.96075">
        <ele>1056</ele>
        <time>2015-05-15T11:21:53.941Z</time>
      </trkpt>
      <trkpt lat="48.0509" lon="6.96087">
        <ele>1053</ele>
        <time>2015-05-15T11:22:02.94Z</time>
      </trkpt>
      <trkpt lat="48.05088" lon="6.9611">
        <ele>1055</ele>
        <time>2015-05-15T11:22:12.94Z</time>
      </trkpt>
      <trkpt lat="48.05094" lon="6.96129">
        <ele>1055</ele>
        <time>2015-05-15T11:22:20.941Z</time>
      </trkpt>
      <trkpt lat="48.05103" lon="6.96172">
        <ele>1052</ele>
        <time>2015-05-15T11:22:37.94Z</time>
      </trkpt>
      <trkpt lat="48.05115" lon="6.96226">
        <ele>1052</ele>
        <time>2015-05-15T11:23:09.94Z</time>
      </trkpt>
      <trkpt lat="48.05106" lon="6.96253">
        <ele>1050</ele>
        <time>2015-05-15T11:23:37.94Z</time>
      </trkpt>
      <trkpt lat="48.05074" lon="6.96288">
        <ele>1037</ele>
        <time>2015-05-15T11:24:07.94Z</time>
      </trkpt>
      <trkpt lat="48.05058" lon="6.96338">
        <ele>1038</ele>
        <time>2015-05-15T11:24:31.941Z</time>
      </trkpt>
      <trkpt lat="48.0505" lon="6.9639">
        <ele>1036</ele>
        <time>2015-05-15T11:24:58.941Z</time>
      </trkpt>
      <trkpt lat="48.05042" lon="6.96409">
        <ele>1035</ele>
        <time>2015-05-15T11:25:07.94Z</time>
      </trkpt>
      <trkpt lat="48.05019" lon="6.96444">
        <ele>1033</ele>
        <time>2015-05-15T11:25:37.94Z</time>
      </trkpt>
      <trkpt lat="48.05002" lon="6.96458">
        <ele>1032</ele>
        <time>2015-05-15T11:25:51.94Z</time>
      </trkpt>
      <trkpt lat="48.04989" lon="6.96481">
        <ele>1021</ele>
        <time>2015-05-15T11:26:09.94Z</time>
      </trkpt>
      <trkpt lat="48.04975" lon="6.96496">
        <ele>1020</ele>
        <time>2015-05-15T11:26:19.94Z</time>
      </trkpt>
      <trkpt lat="48.0495" lon="6.96531">
        <ele>1021</ele>
        <time>2015-05-15T11:26:46.94Z</time>
      </trkpt>
      <trkpt lat="48.04939" lon="6.96544">
        <ele>1021</ele>
        <time>2015-05-15T11:26:57.94Z</time>
      </trkpt>
      <trkpt lat="48.04926" lon="6.96537">
        <ele>1019</ele>
        <time>2015-05-15T11:27:09.94Z</time>
      </trkpt>
      <trkpt lat="48.04911" lon="6.96551">
        <ele>1008</ele>
        <time>2015-05-15T11:27:19.941Z</time>
      </trkpt>
      <trkpt lat="48.04923" lon="6.96556">
        <ele>1020</ele>
        <time>2015-05-15T11:28:20.938Z</time>
      </trkpt>
      <trkpt lat="48.04923" lon="6.96556">
        <ele>1020</ele>
        <time>2015-05-15T11:29:20.943Z</time>
      </trkpt>
      <trkpt lat="48.04915" lon="6.96566">
        <ele>1011</ele>
        <time>2015-05-15T11:30:21.94Z</time>
      </trkpt>
      <trkpt lat="48.04898" lon="6.96585">
        <ele>1013</ele>
        <time>2015-05-15T11:30:39.94Z</time>
      </trkpt>
      <trkpt lat="48.04889" lon="6.96601">
        <ele>1011</ele>
        <time>2015-05-15T11:30:50.94Z</time>
      </trkpt>
      <trkpt lat="48.04882" lon="6.96623">
        <ele>1010</ele>
        <time>2015-05-15T11:31:04.939Z</time>
      </trkpt>
      <trkpt lat="48.04875" lon="6.96651">
        <ele>1010</ele>
        <time>2015-05-15T11:31:21.94Z</time>
      </trkpt>
      <trkpt lat="48.04862" lon="6.96693">
        <ele>1011</ele>
        <time>2015-05-15T11:31:48.94Z</time>
      </trkpt>
      <trkpt lat="48.04855" lon="6.96741">
        <ele>1010</ele>
        <time>2015-05-15T11:32:18.94Z</time>
      </trkpt>
      <trkpt lat="48.04852" lon="6.96765">
        <ele>1012</ele>
        <time>2015-05-15T11:32:34.94Z</time>
      </trkpt>
      <trkpt lat="48.04839" lon="6.96775">
        <ele>1012</ele>
        <time>2015-05-15T11:32:46.939Z</time>
      </trkpt>
      <trkpt lat="48.04834" lon="6.96793">
        <ele>1013</ele>
        <time>2015-05-15T11:32:58.939Z</time>
      </trkpt>
      <trkpt lat="48.04831" lon="6.96817">
        <ele>1005</ele>
        <time>2015-05-15T11:33:14.94Z</time>
      </trkpt>
      <trkpt lat="48.04819" lon="6.96841">
        <ele>1006</ele>
        <time>2015-05-15T11:33:32.94Z</time>
      </trkpt>
      <trkpt lat="48.04805" lon="6.96853">
        <ele>1004</ele>
        <time>2015-05-15T11:33:46.944Z</time>
      </trkpt>
      <trkpt lat="48.04782" lon="6.96852">
        <ele>1002</ele>
        <time>2015-05-15T11:34:08.94Z</time>
      </trkpt>
      <trkpt lat="48.04736" lon="6.96842">
        <ele>997</ele>
        <time>2015-05-15T11:34:48.945Z</time>
      </trkpt>
      <trkpt lat="48.04719" lon="6.96836">
        <ele>998</ele>
        <time>2015-05-15T11:35:48.949Z</time>
      </trkpt>
      <trkpt lat="48.04719" lon="6.96823">
        <ele>999</ele>
        <time>2015-05-15T11:36:48.949Z</time>
      </trkpt>
      <trkpt lat="48.0473" lon="6.96831">
        <ele>998</ele>
        <time>2015-05-15T11:37:48.949Z</time>
      </trkpt>
      <trkpt lat="48.04728" lon="6.9684">
        <ele>997</ele>
        <time>2015-05-15T11:38:48.95Z</time>
      </trkpt>
      <trkpt lat="48.04702" lon="6.96854">
        <ele>998</ele>
        <time>2015-05-15T11:39:22.945Z</time>
      </trkpt>
      <trkpt lat="48.04699" lon="6.96885">
        <ele>997</ele>
        <time>2015-05-15T11:39:34.945Z</time>
      </trkpt>
      <trkpt lat="48.04699" lon="6.96912">
        <ele>996</ele>
        <time>2015-05-15T11:39:48.945Z</time>
      </trkpt>
      <trkpt lat="48.04707" lon="6.96938">
        <ele>993</ele>
        <time>2015-05-15T11:40:03.943Z</time>
      </trkpt>
      <trkpt lat="48.04711" lon="6.96962">
        <ele>992</ele>
        <time>2015-05-15T11:40:15.944Z</time>
      </trkpt>
      <trkpt lat="48.04724" lon="6.97011">
        <ele>988</ele>
        <time>2015-05-15T11:40:37.941Z</time>
      </trkpt>
      <trkpt lat="48.04731" lon="6.97047">
        <ele>987</ele>
        <time>2015-05-15T11:40:57.943Z</time>
      </trkpt>
      <trkpt lat="48.04735" lon="6.97085">
        <ele>985</ele>
        <time>2015-05-15T11:41:16.941Z</time>
      </trkpt>
      <trkpt lat="48.04729" lon="6.97126">
        <ele>982</ele>
        <time>2015-05-15T11:41:37.943Z</time>
      </trkpt>
      <trkpt lat="48.04716" lon="6.97145">
        <ele>981</ele>
        <time>2015-05-15T11:41:51.945Z</time>
      </trkpt>
      <trkpt lat="48.04716" lon="6.97167">
        <ele>976</ele>
        <time>2015-05-15T11:42:03.945Z</time>
      </trkpt>
      <trkpt lat="48.04719" lon="6.9719">
        <ele>975</ele>
        <time>2015-05-15T11:42:11.946Z</time>
      </trkpt>
      <trkpt lat="48.04731" lon="6.97234">
        <ele>975</ele>
        <time>2015-05-15T11:42:29.944Z</time>
      </trkpt>
      <trkpt lat="48.04748" lon="6.97286">
        <ele>966</ele>
        <time>2015-05-15T11:42:56.939Z</time>
      </trkpt>
      <trkpt lat="48.04758" lon="6.97302">
        <ele>980</ele>
        <time>2015-05-15T11:43:07.939Z</time>
      </trkpt>
      <trkpt lat="48.04787" lon="6.97353">
        <ele>973</ele>
        <time>2015-05-15T11:43:38.944Z</time>
      </trkpt>
      <trkpt lat="48.04787" lon="6.97375">
        <ele>971</ele>
        <time>2015-05-15T11:43:49.943Z</time>
      </trkpt>
      <trkpt lat="48.04786" lon="6.97423">
        <ele>964</ele>
        <time>2015-05-15T11:44:13.944Z</time>
      </trkpt>
      <trkpt lat="48.04784" lon="6.97443">
        <ele>963</ele>
        <time>2015-05-15T11:44:24.943Z</time>
      </trkpt>
      <trkpt lat="48.04777" lon="6.97462">
        <ele>962</ele>
        <time>2015-05-15T11:44:36.943Z</time>
      </trkpt>
      <trkpt lat="48.0477" lon="6.97499">
        <ele>960</ele>
        <time>2015-05-15T11:44:53.944Z</time>
      </trkpt>
      <trkpt lat="48.04764" lon="6.9753">
        <ele>959</ele>
        <time>2015-05-15T11:45:13.944Z</time>
      </trkpt>
      <trkpt lat="48.04763" lon="6.97551">
        <ele>960</ele>
        <time>2015-05-15T11:45:31.946Z</time>
      </trkpt>
      <trkpt lat="48.04757" lon="6.97572">
        <ele>960</ele>
        <time>2015-05-15T11:46:31.95Z</time>
      </trkpt>
      <trkpt lat="48.04749" lon="6.97579">
        <ele>958</ele>
        <time>2015-05-15T11:47:31.951Z</time>
      </trkpt>
      <trkpt lat="48.04748" lon="6.97587">
        <ele>960</ele>
        <time>2015-05-15T11:48:31.955Z</time>
      </trkpt>
      <trkpt lat="48.04748" lon="6.97591">
        <ele>961</ele>
        <time>2015-05-15T11:49:32.953Z</time>
      </trkpt>
      <trkpt lat="48.04748" lon="6.97571">
        <ele>956</ele>
        <time>2015-05-15T11:50:33.95Z</time>
      </trkpt>
      <trkpt lat="48.0475" lon="6.97566">
        <ele>956</ele>
        <time>2015-05-15T11:51:33.956Z</time>
      </trkpt>
      <trkpt lat="48.04758" lon="6.97585">
        <ele>960</ele>
        <time>2015-05-15T11:52:12.951Z</time>
      </trkpt>
      <trkpt lat="48.04767" lon="6.97599">
        <ele>962</ele>
        <time>2015-05-15T11:53:13.95Z</time>
      </trkpt>
      <trkpt lat="48.04745" lon="6.97608">
        <ele>964</ele>
        <time>2015-05-15T11:53:39.95Z</time>
      </trkpt>
      <trkpt lat="48.04752" lon="6.97639">
        <ele>967</ele>
        <time>2015-05-15T11:54:16.948Z</time>
      </trkpt>
      <trkpt lat="48.04764" lon="6.97684">
        <ele>974</ele>
        <time>2015-05-15T11:55:16.949Z</time>
      </trkpt>
      <trkpt lat="48.04756" lon="6.97733">
        <ele>982</ele>
        <time>2015-05-15T11:56:17.945Z</time>
      </trkpt>
      <trkpt lat="48.04753" lon="6.97765">
        <ele>991</ele>
        <time>2015-05-15T11:57:17.948Z</time>
      </trkpt>
      <trkpt lat="48.04764" lon="6.97797">
        <ele>993</ele>
        <time>2015-05-15T11:58:18.948Z</time>
      </trkpt>
      <trkpt lat="48.0477" lon="6.97838">
        <ele>1008</ele>
        <time>2015-05-15T11:59:19.939Z</time>
      </trkpt>
      <trkpt lat="48.04763" lon="6.97904">
        <ele>1017</ele>
        <time>2015-05-15T12:00:19.94Z</time>
      </trkpt>
      <trkpt lat="48.04737" lon="6.97958">
        <ele>1037</ele>
        <time>2015-05-15T12:01:19.94Z</time>
      </trkpt>
      <trkpt lat="48.0473" lon="6.98019">
        <ele>1046</ele>
        <time>2015-05-15T12:02:19.941Z</time>
      </trkpt>
      <trkpt lat="48.04724" lon="6.9805">
        <ele>1049</ele>
        <time>2015-05-15T12:03:19.941Z</time>
      </trkpt>
      <trkpt lat="48.04724" lon="6.9805">
        <ele>1049</ele>
        <time>2015-05-15T12:04:20.941Z</time>
      </trkpt>
      <trkpt lat="48.04725" lon="6.98043">
        <ele>1048</ele>
        <time>2015-05-15T12:05:21.94Z</time>
      </trkpt>
      <trkpt lat="48.04724" lon="6.98043">
        <ele>1048</ele>
        <time>2015-05-15T12:06:22.941Z</time>
      </trkpt>
      <trkpt lat="48.04713" lon="6.98058">
        <ele>1049</ele>
        <time>2015-05-15T12:07:23.931Z</time>
      </trkpt>
      <trkpt lat="48.04704" lon="6.98094">
        <ele>1056</ele>
        <time>2015-05-15T12:07:39.934Z</time>
      </trkpt>
      <trkpt lat="48.04702" lon="6.98153">
        <ele>1058</ele>
        <time>2015-05-15T12:08:39.935Z</time>
      </trkpt>
      <trkpt lat="48.04717" lon="6.98195">
        <ele>1064</ele>
        <time>2015-05-15T12:09:39.936Z</time>
      </trkpt>
      <trkpt lat="48.04732" lon="6.98236">
        <ele>1067</ele>
        <time>2015-05-15T12:10:39.943Z</time>
      </trkpt>
      <trkpt lat="48.04738" lon="6.98287">
        <ele>1073</ele>
        <time>2015-05-15T12:11:40.939Z</time>
      </trkpt>
      <trkpt lat="48.0472" lon="6.98412">
        <ele>1081</ele>
        <time>2015-05-15T12:14:23.936Z</time>
      </trkpt>
      <trkpt lat="48.04704" lon="6.98425">
        <ele>1086</ele>
        <time>2015-05-15T12:15:24.934Z</time>
      </trkpt>
      <trkpt lat="48.04683" lon="6.98461">
        <ele>1088</ele>
        <time>2015-05-15T12:16:24.944Z</time>
      </trkpt>
      <trkpt lat="48.04669" lon="6.98521">
        <ele>1094</ele>
        <time>2015-05-15T12:17:25.935Z</time>
      </trkpt>
      <trkpt lat="48.04633" lon="6.98566">
        <ele>1105</ele>
        <time>2015-05-15T12:18:15.935Z</time>
      </trkpt>
      <trkpt lat="48.04614" lon="6.98607">
        <ele>1110</ele>
        <time>2015-05-15T12:19:15.94Z</time>
      </trkpt>
      <trkpt lat="48.04614" lon="6.98608">
        <ele>1110</ele>
        <time>2015-05-15T12:20:16.936Z</time>
      </trkpt>
      <trkpt lat="48.04572" lon="6.9863">
        <ele>1126</ele>
        <time>2015-05-15T12:21:16.938Z</time>
      </trkpt>
      <trkpt lat="48.04545" lon="6.98656">
        <ele>1129</ele>
        <time>2015-05-15T12:22:16.939Z</time>
      </trkpt>
      <trkpt lat="48.04506" lon="6.98689">
        <ele>1136</ele>
        <time>2015-05-15T12:23:16.94Z</time>
      </trkpt>
      <trkpt lat="48.04481" lon="6.98732">
        <ele>1146</ele>
        <time>2015-05-15T12:24:16.94Z</time>
      </trkpt>
      <trkpt lat="48.0444" lon="6.98768">
        <ele>1150</ele>
        <time>2015-05-15T12:24:54.936Z</time>
      </trkpt>
      <trkpt lat="48.04397" lon="6.98791">
        <ele>1156</ele>
        <time>2015-05-15T12:25:45.936Z</time>
      </trkpt>
      <trkpt lat="48.0437" lon="6.98803">
        <ele>1156</ele>
        <time>2015-05-15T12:26:02.935Z</time>
      </trkpt>
      <trkpt lat="48.04342" lon="6.98806">
        <ele>1156</ele>
        <time>2015-05-15T12:26:23.939Z</time>
      </trkpt>
      <trkpt lat="48.04343" lon="6.98832">
        <ele>1157</ele>
        <time>2015-05-15T12:27:24.938Z</time>
      </trkpt>
      <trkpt lat="48.04309" lon="6.9888">
        <ele>1156</ele>
        <time>2015-05-15T12:28:11.934Z</time>
      </trkpt>
      <trkpt lat="48.04287" lon="6.9891">
        <ele>1155</ele>
        <time>2015-05-15T12:28:32.933Z</time>
      </trkpt>
      <trkpt lat="48.04274" lon="6.98958">
        <ele>1152</ele>
        <time>2015-05-15T12:29:01.934Z</time>
      </trkpt>
      <trkpt lat="48.04272" lon="6.99008">
        <ele>1149</ele>
        <time>2015-05-15T12:30:01.94Z</time>
      </trkpt>
      <trkpt lat="48.04297" lon="6.99061">
        <ele>1151</ele>
        <time>2015-05-15T12:31:01.943Z</time>
      </trkpt>
      <trkpt lat="48.04323" lon="6.99118">
        <ele>1154</ele>
        <time>2015-05-15T12:31:57.941Z</time>
      </trkpt>
      <trkpt lat="48.04325" lon="6.99154">
        <ele>1156</ele>
        <time>2015-05-15T12:32:58.933Z</time>
      </trkpt>
      <trkpt lat="48.04328" lon="6.99213">
        <ele>1159</ele>
        <time>2015-05-15T12:33:58.936Z</time>
      </trkpt>
      <trkpt lat="48.0433" lon="6.9928">
        <ele>1163</ele>
        <time>2015-05-15T12:34:46.939Z</time>
      </trkpt>
      <trkpt lat="48.04342" lon="6.99345">
        <ele>1166</ele>
        <time>2015-05-15T12:35:27.935Z</time>
      </trkpt>
      <trkpt lat="48.04333" lon="6.99421">
        <ele>1170</ele>
        <time>2015-05-15T12:36:12.934Z</time>
      </trkpt>
      <trkpt lat="48.04315" lon="6.99467">
        <ele>1168</ele>
        <time>2015-05-15T12:36:41.935Z</time>
      </trkpt>
      <trkpt lat="48.04286" lon="6.99527">
        <ele>1166</ele>
        <time>2015-05-15T12:37:30.935Z</time>
      </trkpt>
      <trkpt lat="48.04278" lon="6.99544">
        <ele>1166</ele>
        <time>2015-05-15T12:37:36.935Z</time>
      </trkpt>
      <trkpt lat="48.04269" lon="6.99561">
        <ele>1166</ele>
        <time>2015-05-15T12:37:47.935Z</time>
      </trkpt>
      <trkpt lat="48.04259" lon="6.99579">
        <ele>1166</ele>
        <time>2015-05-15T12:38:00.934Z</time>
      </trkpt>
      <trkpt lat="48.04226" lon="6.99634">
        <ele>1154</ele>
        <time>2015-05-15T12:38:43.935Z</time>
      </trkpt>
      <trkpt lat="48.04197" lon="6.9969">
        <ele>1141</ele>
        <time>2015-05-15T12:39:28.934Z</time>
      </trkpt>
      <trkpt lat="48.04153" lon="6.99897">
        <ele>1118</ele>
        <time>2015-05-15T12:43:53.934Z</time>
      </trkpt>
      <trkpt lat="48.04139" lon="6.99903">
        <ele>1117</ele>
        <time>2015-05-15T12:44:09.939Z</time>
      </trkpt>
      <trkpt lat="48.0413" lon="6.99908">
        <ele>1117</ele>
        <time>2015-05-15T12:45:09.948Z</time>
      </trkpt>
      <trkpt lat="48.04127" lon="6.99917">
        <ele>1117</ele>
        <time>2015-05-15T12:46:10.95Z</time>
      </trkpt>
      <trkpt lat="48.04127" lon="6.99904">
        <ele>1117</ele>
        <time>2015-05-15T12:47:11.95Z</time>
      </trkpt>
      <trkpt lat="48.04129" lon="6.99929">
        <ele>1126</ele>
        <time>2015-05-15T12:48:12.939Z</time>
      </trkpt>
      <trkpt lat="48.04149" lon="6.99945">
        <ele>1127</ele>
        <time>2015-05-15T12:48:43.945Z</time>
      </trkpt>
      <trkpt lat="48.04171" lon="6.99946">
        <ele>1130</ele>
        <time>2015-05-15T12:49:10.944Z</time>
      </trkpt>
      <trkpt lat="48.04211" lon="6.99977">
        <ele>1136</ele>
        <time>2015-05-15T12:50:08.946Z</time>
      </trkpt>
      <trkpt lat="48.04248" lon="6.99988">
        <ele>1143</ele>
        <time>2015-05-15T12:51:08.95Z</time>
      </trkpt>
      <trkpt lat="48.04287" lon="7.00023">
        <ele>1152</ele>
        <time>2015-05-15T12:51:49.949Z</time>
      </trkpt>
      <trkpt lat="48.04325" lon="7.00061">
        <ele>1156</ele>
        <time>2015-05-15T12:52:40.945Z</time>
      </trkpt>
      <trkpt lat="48.04295" lon="7.00056">
        <ele>1155</ele>
        <time>2015-05-15T12:53:40.95Z</time>
      </trkpt>
      <trkpt lat="48.04294" lon="7.00092">
        <ele>1167</ele>
        <time>2015-05-15T12:54:41.944Z</time>
      </trkpt>
      <trkpt lat="48.04294" lon="7.00094">
        <ele>1167</ele>
        <time>2015-05-15T12:55:41.944Z</time>
      </trkpt>
      <trkpt lat="48.04291" lon="7.00094">
        <ele>1167</ele>
        <time>2015-05-15T12:56:42.935Z</time>
      </trkpt>
      <trkpt lat="48.04309" lon="7.00107">
        <ele>1167</ele>
        <time>2015-05-15T12:57:05.934Z</time>
      </trkpt>
      <trkpt lat="48.04319" lon="7.00122">
        <ele>1168</ele>
        <time>2015-05-15T12:57:19.935Z</time>
      </trkpt>
      <trkpt lat="48.04327" lon="7.00139">
        <ele>1169</ele>
        <time>2015-05-15T12:57:35.936Z</time>
      </trkpt>
      <trkpt lat="48.04333" lon="7.00172">
        <ele>1173</ele>
        <time>2015-05-15T12:57:57.94Z</time>
      </trkpt>
      <trkpt lat="48.04321" lon="7.00194">
        <ele>1179</ele>
        <time>2015-05-15T12:58:40.938Z</time>
      </trkpt>
      <trkpt lat="48.04308" lon="7.002">
        <ele>1180</ele>
        <time>2015-05-15T12:58:58.939Z</time>
      </trkpt>
      <trkpt lat="48.04296" lon="7.00248">
        <ele>1184</ele>
        <time>2015-05-15T12:59:58.94Z</time>
      </trkpt>
      <trkpt lat="48.04285" lon="7.00266">
        <ele>1195</ele>
        <time>2015-05-15T13:00:54.945Z</time>
      </trkpt>
      <trkpt lat="48.04277" lon="7.00259">
        <ele>1195</ele>
        <time>2015-05-15T13:01:50.94Z</time>
      </trkpt>
      <trkpt lat="48.04277" lon="7.0026">
        <ele>1195</ele>
        <time>2015-05-16T07:31:52.7Z</time>
      </trkpt>
      <trkpt lat="48.0429" lon="7.00274">
        <ele>1195</ele>
        <time>2015-05-16T07:32:07.746Z</time>
      </trkpt>
      <trkpt lat="48.04297" lon="7.00292">
        <ele>1196</ele>
        <time>2015-05-16T07:32:18.765Z</time>
      </trkpt>
      <trkpt lat="48.04314" lon="7.00317">
        <ele>1198</ele>
        <time>2015-05-16T07:32:42.771Z</time>
      </trkpt>
      <trkpt lat="48.04324" lon="7.00346">
        <ele>1206</ele>
        <time>2015-05-16T07:33:00.755Z</time>
      </trkpt>
      <trkpt lat="48.04341" lon="7.00366">
        <ele>1199</ele>
        <time>2015-05-16T07:33:16.75Z</time>
      </trkpt>
      <trkpt lat="48.04354" lon="7.00383">
        <ele>1200</ele>
        <time>2015-05-16T07:33:30.745Z</time>
      </trkpt>
      <trkpt lat="48.04381" lon="7.00437">
        <ele>1214</ele>
        <time>2015-05-16T07:34:14.745Z</time>
      </trkpt>
      <trkpt lat="48.04402" lon="7.00485">
        <ele>1218</ele>
        <time>2015-05-16T07:34:40.743Z</time>
      </trkpt>
      <trkpt lat="48.04433" lon="7.00539">
        <ele>1218</ele>
        <time>2015-05-16T07:35:18.728Z</time>
      </trkpt>
      <trkpt lat="48.04461" lon="7.00597">
        <ele>1231</ele>
        <time>2015-05-16T07:36:08.72Z</time>
      </trkpt>
      <trkpt lat="48.04476" lon="7.00625">
        <ele>1232</ele>
        <time>2015-05-16T07:37:08.725Z</time>
      </trkpt>
      <trkpt lat="48.04513" lon="7.00646">
        <ele>1223</ele>
        <time>2015-05-16T07:38:06.713Z</time>
      </trkpt>
      <trkpt lat="48.04557" lon="7.00665">
        <ele>1218</ele>
        <time>2015-05-16T07:38:44.704Z</time>
      </trkpt>
      <trkpt lat="48.046" lon="7.00684">
        <ele>1219</ele>
        <time>2015-05-16T07:39:19.694Z</time>
      </trkpt>
      <trkpt lat="48.04645" lon="7.00694">
        <ele>1217</ele>
        <time>2015-05-16T07:39:57.688Z</time>
      </trkpt>
      <trkpt lat="48.04691" lon="7.00689">
        <ele>1210</ele>
        <time>2015-05-16T07:40:31.679Z</time>
      </trkpt>
      <trkpt lat="48.04737" lon="7.00686">
        <ele>1207</ele>
        <time>2015-05-16T07:41:10.674Z</time>
      </trkpt>
      <trkpt lat="48.04792" lon="7.00685">
        <ele>1200</ele>
        <time>2015-05-16T07:41:44.671Z</time>
      </trkpt>
      <trkpt lat="48.04837" lon="7.00688">
        <ele>1189</ele>
        <time>2015-05-16T07:42:19.67Z</time>
      </trkpt>
      <trkpt lat="48.04897" lon="7.00692">
        <ele>1184</ele>
        <time>2015-05-16T07:43:02.635Z</time>
      </trkpt>
      <trkpt lat="48.04913" lon="7.00694">
        <ele>1183</ele>
        <time>2015-05-16T07:43:22.661Z</time>
      </trkpt>
      <trkpt lat="48.04926" lon="7.00687">
        <ele>1175</ele>
        <time>2015-05-16T07:43:32.66Z</time>
      </trkpt>
      <trkpt lat="48.0494" lon="7.00692">
        <ele>1175</ele>
        <time>2015-05-16T07:43:40.654Z</time>
      </trkpt>
      <trkpt lat="48.04968" lon="7.00696">
        <ele>1174</ele>
        <time>2015-05-16T07:44:05.645Z</time>
      </trkpt>
      <trkpt lat="48.04985" lon="7.00695">
        <ele>1173</ele>
        <time>2015-05-16T07:44:19.636Z</time>
      </trkpt>
      <trkpt lat="48.05006" lon="7.00702">
        <ele>1169</ele>
        <time>2015-05-16T07:44:36.649Z</time>
      </trkpt>
      <trkpt lat="48.05051" lon="7.00704">
        <ele>1168</ele>
        <time>2015-05-16T07:45:17.645Z</time>
      </trkpt>
      <trkpt lat="48.05095" lon="7.0069">
        <ele>1163</ele>
        <time>2015-05-16T07:45:52.649Z</time>
      </trkpt>
      <trkpt lat="48.0514" lon="7.00674">
        <ele>1161</ele>
        <time>2015-05-16T07:46:39.641Z</time>
      </trkpt>
      <trkpt lat="48.05184" lon="7.00656">
        <ele>1149</ele>
        <time>2015-05-16T07:47:12.643Z</time>
      </trkpt>
      <trkpt lat="48.05231" lon="7.00655">
        <ele>1147</ele>
        <time>2015-05-16T07:47:38.645Z</time>
      </trkpt>
      <trkpt lat="48.05278" lon="7.00658">
        <ele>1141</ele>
        <time>2015-05-16T07:48:19.629Z</time>
      </trkpt>
      <trkpt lat="48.05295" lon="7.00656">
        <ele>1138</ele>
        <time>2015-05-16T07:48:25.635Z</time>
      </trkpt>
      <trkpt lat="48.05348" lon="7.00642">
        <ele>1132</ele>
        <time>2015-05-16T07:48:59.635Z</time>
      </trkpt>
      <trkpt lat="48.05357" lon="7.00627">
        <ele>1130</ele>
        <time>2015-05-16T07:49:10.635Z</time>
      </trkpt>
      <trkpt lat="48.05368" lon="7.00611">
        <ele>1129</ele>
        <time>2015-05-16T07:49:21.638Z</time>
      </trkpt>
      <trkpt lat="48.05375" lon="7.00591">
        <ele>1128</ele>
        <time>2015-05-16T07:49:29.645Z</time>
      </trkpt>
      <trkpt lat="48.05385" lon="7.00544">
        <ele>1116</ele>
        <time>2015-05-16T07:49:57.644Z</time>
      </trkpt>
      <trkpt lat="48.05395" lon="7.00526">
        <ele>1115</ele>
        <time>2015-05-16T07:50:09.635Z</time>
      </trkpt>
      <trkpt lat="48.05404" lon="7.00505">
        <ele>1113</ele>
        <time>2015-05-16T07:50:24.63Z</time>
      </trkpt>
      <trkpt lat="48.05431" lon="7.00463">
        <ele>1109</ele>
        <time>2015-05-16T07:51:03.626Z</time>
      </trkpt>
      <trkpt lat="48.05441" lon="7.00447">
        <ele>1108</ele>
        <time>2015-05-16T07:51:18.616Z</time>
      </trkpt>
      <trkpt lat="48.05439" lon="7.0043">
        <ele>1108</ele>
        <time>2015-05-16T07:52:18.624Z</time>
      </trkpt>
      <trkpt lat="48.05436" lon="7.00433">
        <ele>1108</ele>
        <time>2015-05-16T07:53:18.649Z</time>
      </trkpt>
      <trkpt lat="48.05445" lon="7.00417">
        <ele>1108</ele>
        <time>2015-05-16T07:53:43.645Z</time>
      </trkpt>
      <trkpt lat="48.05445" lon="7.00392">
        <ele>1113</ele>
        <time>2015-05-16T07:53:57.643Z</time>
      </trkpt>
      <trkpt lat="48.0545" lon="7.00325">
        <ele>1131</ele>
        <time>2015-05-16T07:54:51.638Z</time>
      </trkpt>
      <trkpt lat="48.05449" lon="7.0028">
        <ele>1137</ele>
        <time>2015-05-16T07:55:51.643Z</time>
      </trkpt>
      <trkpt lat="48.05457" lon="7.00236">
        <ele>1155</ele>
        <time>2015-05-16T07:56:52.635Z</time>
      </trkpt>
      <trkpt lat="48.05456" lon="7.00189">
        <ele>1161</ele>
        <time>2015-05-16T07:57:52.643Z</time>
      </trkpt>
      <trkpt lat="48.05472" lon="7.0014">
        <ele>1175</ele>
        <time>2015-05-16T07:58:53.645Z</time>
      </trkpt>
      <trkpt lat="48.05491" lon="7.00081">
        <ele>1186</ele>
        <time>2015-05-16T07:59:53.664Z</time>
      </trkpt>
      <trkpt lat="48.05499" lon="7.00062">
        <ele>1185</ele>
        <time>2015-05-16T08:00:09.655Z</time>
      </trkpt>
      <trkpt lat="48.05536" lon="7.00023">
        <ele>1190</ele>
        <time>2015-05-16T08:00:58.655Z</time>
      </trkpt>
      <trkpt lat="48.05524" lon="7.00028">
        <ele>1190</ele>
        <time>2015-05-16T08:01:58.673Z</time>
      </trkpt>
      <trkpt lat="48.05523" lon="7.00034">
        <ele>1190</ele>
        <time>2015-05-16T08:02:59.668Z</time>
      </trkpt>
      <trkpt lat="48.05525" lon="7.00028">
        <ele>1190</ele>
        <time>2015-05-16T08:04:00.666Z</time>
      </trkpt>
      <trkpt lat="48.05522" lon="7.00024">
        <ele>1190</ele>
        <time>2015-05-16T08:05:00.684Z</time>
      </trkpt>
      <trkpt lat="48.05522" lon="7.00024">
        <ele>1190</ele>
        <time>2015-05-16T08:06:00.696Z</time>
      </trkpt>
      <trkpt lat="48.0553" lon="7.00024">
        <ele>1190</ele>
        <time>2015-05-16T08:07:01.683Z</time>
      </trkpt>
      <trkpt lat="48.0553" lon="7.00031">
        <ele>1190</ele>
        <time>2015-05-16T08:08:01.695Z</time>
      </trkpt>
      <trkpt lat="48.05551" lon="7.00002">
        <ele>1191</ele>
        <time>2015-05-16T08:08:34.691Z</time>
      </trkpt>
      <trkpt lat="48.05574" lon="6.99994">
        <ele>1190</ele>
        <time>2015-05-16T08:08:58.69Z</time>
      </trkpt>
      <trkpt lat="48.05603" lon="6.99992">
        <ele>1191</ele>
        <time>2015-05-16T08:09:24.695Z</time>
      </trkpt>
      <trkpt lat="48.0565" lon="6.99977">
        <ele>1189</ele>
        <time>2015-05-16T08:10:03.69Z</time>
      </trkpt>
      <trkpt lat="48.057" lon="6.99962">
        <ele>1187</ele>
        <time>2015-05-16T08:10:47.688Z</time>
      </trkpt>
      <trkpt lat="48.05717" lon="6.99957">
        <ele>1186</ele>
        <time>2015-05-16T08:10:59.691Z</time>
      </trkpt>
      <trkpt lat="48.05741" lon="6.99947">
        <ele>1186</ele>
        <time>2015-05-16T08:11:20.678Z</time>
      </trkpt>
      <trkpt lat="48.05764" lon="6.99939">
        <ele>1185</ele>
        <time>2015-05-16T08:11:39.68Z</time>
      </trkpt>
      <trkpt lat="48.05806" lon="6.9993">
        <ele>1185</ele>
        <time>2015-05-16T08:12:29.675Z</time>
      </trkpt>
      <trkpt lat="48.05849" lon="6.99912">
        <ele>1186</ele>
        <time>2015-05-16T08:13:05.668Z</time>
      </trkpt>
      <trkpt lat="48.05877" lon="6.9991">
        <ele>1185</ele>
        <time>2015-05-16T08:13:27.681Z</time>
      </trkpt>
      <trkpt lat="48.05941" lon="6.99921">
        <ele>1180</ele>
        <time>2015-05-16T08:14:19.675Z</time>
      </trkpt>
      <trkpt lat="48.05956" lon="6.99927">
        <ele>1178</ele>
        <time>2015-05-16T08:14:30.671Z</time>
      </trkpt>
      <trkpt lat="48.0603" lon="6.99946">
        <ele>1167</ele>
        <time>2015-05-16T08:15:31.665Z</time>
      </trkpt>
      <trkpt lat="48.06046" lon="6.99948">
        <ele>1166</ele>
        <time>2015-05-16T08:16:32.665Z</time>
      </trkpt>
      <trkpt lat="48.06045" lon="6.99946">
        <ele>1166</ele>
        <time>2015-05-16T08:17:33.655Z</time>
      </trkpt>
      <trkpt lat="48.0606" lon="6.99951">
        <ele>1165</ele>
        <time>2015-05-16T08:17:46.665Z</time>
      </trkpt>
      <trkpt lat="48.06075" lon="6.99955">
        <ele>1164</ele>
        <time>2015-05-16T08:17:55.655Z</time>
      </trkpt>
      <trkpt lat="48.06101" lon="6.99966">
        <ele>1158</ele>
        <time>2015-05-16T08:18:17.661Z</time>
      </trkpt>
      <trkpt lat="48.0613" lon="6.99977">
        <ele>1158</ele>
        <time>2015-05-16T08:18:39.659Z</time>
      </trkpt>
      <trkpt lat="48.06144" lon="6.99977">
        <ele>1158</ele>
        <time>2015-05-16T08:18:48.655Z</time>
      </trkpt>
      <trkpt lat="48.06177" lon="6.99983">
        <ele>1159</ele>
        <time>2015-05-16T08:19:11.66Z</time>
      </trkpt>
      <trkpt lat="48.06203" lon="6.9999">
        <ele>1159</ele>
        <time>2015-05-16T08:19:38.648Z</time>
      </trkpt>
      <trkpt lat="48.06249" lon="7.00007">
        <ele>1168</ele>
        <time>2015-05-16T08:20:20.658Z</time>
      </trkpt>
      <trkpt lat="48.06296" lon="7.00021">
        <ele>1173</ele>
        <time>2015-05-16T08:21:05.65Z</time>
      </trkpt>
      <trkpt lat="48.06314" lon="7.0002">
        <ele>1174</ele>
        <time>2015-05-16T08:22:06.649Z</time>
      </trkpt>
      <trkpt lat="48.06359" lon="7.00032">
        <ele>1175</ele>
        <time>2015-05-16T08:22:42.646Z</time>
      </trkpt>
      <trkpt lat="48.06377" lon="7.0004">
        <ele>1176</ele>
        <time>2015-05-16T08:22:59.649Z</time>
      </trkpt>
      <trkpt lat="48.06423" lon="7.00044">
        <ele>1174</ele>
        <time>2015-05-16T08:23:40.653Z</time>
      </trkpt>
      <trkpt lat="48.06464" lon="7.00072">
        <ele>1175</ele>
        <time>2015-05-16T08:24:24.65Z</time>
      </trkpt>
      <trkpt lat="48.06499" lon="7.00089">
        <ele>1176</ele>
        <time>2015-05-16T08:24:54.654Z</time>
      </trkpt>
      <trkpt lat="48.06512" lon="7.00098">
        <ele>1174</ele>
        <time>2015-05-16T08:25:05.65Z</time>
      </trkpt>
      <trkpt lat="48.06524" lon="7.00109">
        <ele>1173</ele>
        <time>2015-05-16T08:25:26.675Z</time>
      </trkpt>
      <trkpt lat="48.06566" lon="7.00109">
        <ele>1171</ele>
        <time>2015-05-16T08:26:10.666Z</time>
      </trkpt>
      <trkpt lat="48.06596" lon="7.00125">
        <ele>1162</ele>
        <time>2015-05-16T08:27:10.72Z</time>
      </trkpt>
      <trkpt lat="48.06638" lon="7.00128">
        <ele>1158</ele>
        <time>2015-05-16T08:28:10.72Z</time>
      </trkpt>
      <trkpt lat="48.06663" lon="7.00111">
        <ele>1156</ele>
        <time>2015-05-16T08:29:00.701Z</time>
      </trkpt>
      <trkpt lat="48.06679" lon="7.00104">
        <ele>1149</ele>
        <time>2015-05-16T08:29:17.703Z</time>
      </trkpt>
      <trkpt lat="48.06725" lon="7.00111">
        <ele>1145</ele>
        <time>2015-05-16T08:30:03.693Z</time>
      </trkpt>
      <trkpt lat="48.06785" lon="7.00108">
        <ele>1138</ele>
        <time>2015-05-16T08:30:56.683Z</time>
      </trkpt>
      <trkpt lat="48.06831" lon="7.00119">
        <ele>1137</ele>
        <time>2015-05-16T08:31:52.651Z</time>
      </trkpt>
      <trkpt lat="48.06852" lon="7.00146">
        <ele>1132</ele>
        <time>2015-05-16T08:32:52.655Z</time>
      </trkpt>
      <trkpt lat="48.0687" lon="7.0016">
        <ele>1131</ele>
        <time>2015-05-16T08:33:53.653Z</time>
      </trkpt>
      <trkpt lat="48.06911" lon="7.0019">
        <ele>1127</ele>
        <time>2015-05-16T08:34:43.646Z</time>
      </trkpt>
      <trkpt lat="48.0695" lon="7.00223">
        <ele>1123</ele>
        <time>2015-05-16T08:35:31.65Z</time>
      </trkpt>
      <trkpt lat="48.06966" lon="7.00229">
        <ele>1122</ele>
        <time>2015-05-16T08:36:31.65Z</time>
      </trkpt>
      <trkpt lat="48.06996" lon="7.00256">
        <ele>1117</ele>
        <time>2015-05-16T08:37:31.65Z</time>
      </trkpt>
      <trkpt lat="48.07015" lon="7.00263">
        <ele>1114</ele>
        <time>2015-05-16T08:38:31.66Z</time>
      </trkpt>
      <trkpt lat="48.0703" lon="7.00273">
        <ele>1112</ele>
        <time>2015-05-16T08:39:31.69Z</time>
      </trkpt>
      <trkpt lat="48.07067" lon="7.00296">
        <ele>1109</ele>
        <time>2015-05-16T08:40:32.658Z</time>
      </trkpt>
      <trkpt lat="48.07111" lon="7.00299">
        <ele>1104</ele>
        <time>2015-05-16T08:41:32.66Z</time>
      </trkpt>
      <trkpt lat="48.07144" lon="7.00334">
        <ele>1097</ele>
        <time>2015-05-16T08:42:32.695Z</time>
      </trkpt>
      <trkpt lat="48.07153" lon="7.00339">
        <ele>1098</ele>
        <time>2015-05-16T08:43:33.67Z</time>
      </trkpt>
      <trkpt lat="48.07152" lon="7.00339">
        <ele>1098</ele>
        <time>2015-05-16T08:44:34.658Z</time>
      </trkpt>
      <trkpt lat="48.07151" lon="7.0036">
        <ele>1094</ele>
        <time>2015-05-16T08:45:34.659Z</time>
      </trkpt>
      <trkpt lat="48.07191" lon="7.00396">
        <ele>1093</ele>
        <time>2015-05-16T08:46:15.658Z</time>
      </trkpt>
      <trkpt lat="48.07235" lon="7.00412">
        <ele>1095</ele>
        <time>2015-05-16T08:47:00.659Z</time>
      </trkpt>
      <trkpt lat="48.0728" lon="7.00428">
        <ele>1087</ele>
        <time>2015-05-16T08:47:42.665Z</time>
      </trkpt>
      <trkpt lat="48.07323" lon="7.00446">
        <ele>1083</ele>
        <time>2015-05-16T08:48:26.68Z</time>
      </trkpt>
      <trkpt lat="48.07368" lon="7.0046">
        <ele>1075</ele>
        <time>2015-05-16T08:49:05.694Z</time>
      </trkpt>
      <trkpt lat="48.07412" lon="7.0048">
        <ele>1073</ele>
        <time>2015-05-16T08:49:41.675Z</time>
      </trkpt>
      <trkpt lat="48.07455" lon="7.00503">
        <ele>1067</ele>
        <time>2015-05-16T08:50:31.656Z</time>
      </trkpt>
      <trkpt lat="48.07481" lon="7.00516">
        <ele>1066</ele>
        <time>2015-05-16T08:51:02.656Z</time>
      </trkpt>
      <trkpt lat="48.07518" lon="7.00504">
        <ele>1066</ele>
        <time>2015-05-16T08:52:03.653Z</time>
      </trkpt>
      <trkpt lat="48.07551" lon="7.00526">
        <ele>1065</ele>
        <time>2015-05-16T08:53:04.645Z</time>
      </trkpt>
      <trkpt lat="48.07577" lon="7.00584">
        <ele>1066</ele>
        <time>2015-05-16T08:53:44.635Z</time>
      </trkpt>
      <trkpt lat="48.0759" lon="7.00608">
        <ele>1065</ele>
        <time>2015-05-16T08:54:04.648Z</time>
      </trkpt>
      <trkpt lat="48.07621" lon="7.00656">
        <ele>1065</ele>
        <time>2015-05-16T08:54:46.641Z</time>
      </trkpt>
      <trkpt lat="48.0763" lon="7.00672">
        <ele>1062</ele>
        <time>2015-05-16T08:55:46.653Z</time>
      </trkpt>
      <trkpt lat="48.0763" lon="7.00672">
        <ele>1062</ele>
        <time>2015-05-16T08:56:46.671Z</time>
      </trkpt>
      <trkpt lat="48.07636" lon="7.00684">
        <ele>1062</ele>
        <time>2015-05-16T08:57:47.665Z</time>
      </trkpt>
      <trkpt lat="48.07668" lon="7.00706">
        <ele>1059</ele>
        <time>2015-05-16T08:58:48.66Z</time>
      </trkpt>
      <trkpt lat="48.0769" lon="7.00723">
        <ele>1058</ele>
        <time>2015-05-16T08:59:15.643Z</time>
      </trkpt>
      <trkpt lat="48.07725" lon="7.00738">
        <ele>1056</ele>
        <time>2015-05-16T08:59:44.645Z</time>
      </trkpt>
      <trkpt lat="48.07738" lon="7.00746">
        <ele>1056</ele>
        <time>2015-05-16T08:59:54.645Z</time>
      </trkpt>
      <trkpt lat="48.07763" lon="7.00761">
        <ele>1052</ele>
        <time>2015-05-16T09:00:17.643Z</time>
      </trkpt>
      <trkpt lat="48.07776" lon="7.00776">
        <ele>1050</ele>
        <time>2015-05-16T09:00:33.644Z</time>
      </trkpt>
      <trkpt lat="48.07818" lon="7.00794">
        <ele>1049</ele>
        <time>2015-05-16T09:01:33.646Z</time>
      </trkpt>
      <trkpt lat="48.07856" lon="7.00808">
        <ele>1049</ele>
        <time>2015-05-16T09:02:09.645Z</time>
      </trkpt>
      <trkpt lat="48.07904" lon="7.00815">
        <ele>1049</ele>
        <time>2015-05-16T09:02:56.648Z</time>
      </trkpt>
      <trkpt lat="48.07923" lon="7.00813">
        <ele>1050</ele>
        <time>2015-05-16T09:03:14.634Z</time>
      </trkpt>
      <trkpt lat="48.07953" lon="7.00805">
        <ele>1051</ele>
        <time>2015-05-16T09:03:53.645Z</time>
      </trkpt>
      <trkpt lat="48.07949" lon="7.00796">
        <ele>1051</ele>
        <time>2015-05-16T09:04:54.639Z</time>
      </trkpt>
      <trkpt lat="48.0794" lon="7.00828">
        <ele>1051</ele>
        <time>2015-05-16T09:05:54.64Z</time>
      </trkpt>
      <trkpt lat="48.07976" lon="7.00824">
        <ele>1053</ele>
        <time>2015-05-16T09:06:32.631Z</time>
      </trkpt>
      <trkpt lat="48.08022" lon="7.00814">
        <ele>1057</ele>
        <time>2015-05-16T09:07:24.625Z</time>
      </trkpt>
      <trkpt lat="48.08044" lon="7.00827">
        <ele>1057</ele>
        <time>2015-05-16T09:07:45.695Z</time>
      </trkpt>
      <trkpt lat="48.08068" lon="7.0083">
        <ele>1058</ele>
        <time>2015-05-16T09:08:03.643Z</time>
      </trkpt>
      <trkpt lat="48.08089" lon="7.00818">
        <ele>1062</ele>
        <time>2015-05-16T09:08:34.646Z</time>
      </trkpt>
      <trkpt lat="48.08109" lon="7.00815">
        <ele>1064</ele>
        <time>2015-05-16T09:09:22.64Z</time>
      </trkpt>
      <trkpt lat="48.08126" lon="7.00801">
        <ele>1065</ele>
        <time>2015-05-16T09:09:38.648Z</time>
      </trkpt>
      <trkpt lat="48.08167" lon="7.00802">
        <ele>1068</ele>
        <time>2015-05-16T09:10:39.61Z</time>
      </trkpt>
      <trkpt lat="48.08209" lon="7.00786">
        <ele>1082</ele>
        <time>2015-05-16T09:11:39.61Z</time>
      </trkpt>
      <trkpt lat="48.08261" lon="7.00769">
        <ele>1095</ele>
        <time>2015-05-16T09:12:39.618Z</time>
      </trkpt>
      <trkpt lat="48.08277" lon="7.0076">
        <ele>1096</ele>
        <time>2015-05-16T09:12:47.61Z</time>
      </trkpt>
      <trkpt lat="48.08309" lon="7.0075">
        <ele>1098</ele>
        <time>2015-05-16T09:13:47.629Z</time>
      </trkpt>
      <trkpt lat="48.08313" lon="7.00751">
        <ele>1099</ele>
        <time>2015-05-16T09:14:47.635Z</time>
      </trkpt>
      <trkpt lat="48.08344" lon="7.00689">
        <ele>1095</ele>
        <time>2015-05-16T09:15:31.66Z</time>
      </trkpt>
      <trkpt lat="48.08367" lon="7.00673">
        <ele>1094</ele>
        <time>2015-05-16T09:16:31.67Z</time>
      </trkpt>
      <trkpt lat="48.08386" lon="7.00662">
        <ele>1088</ele>
        <time>2015-05-16T09:17:09.661Z</time>
      </trkpt>
      <trkpt lat="48.0843" lon="7.00647">
        <ele>1079</ele>
        <time>2015-05-16T09:17:56.655Z</time>
      </trkpt>
      <trkpt lat="48.08442" lon="7.00636">
        <ele>1077</ele>
        <time>2015-05-16T09:18:04.655Z</time>
      </trkpt>
      <trkpt lat="48.08486" lon="7.00622">
        <ele>1072</ele>
        <time>2015-05-16T09:19:01.666Z</time>
      </trkpt>
      <trkpt lat="48.08528" lon="7.00611">
        <ele>1059</ele>
        <time>2015-05-16T09:20:02.66Z</time>
      </trkpt>
      <trkpt lat="48.08584" lon="7.00586">
        <ele>1046</ele>
        <time>2015-05-16T09:20:52.646Z</time>
      </trkpt>
      <trkpt lat="48.0862" lon="7.00555">
        <ele>1038</ele>
        <time>2015-05-16T09:21:52.655Z</time>
      </trkpt>
      <trkpt lat="48.08666" lon="7.00526">
        <ele>1032</ele>
        <time>2015-05-16T09:22:36.646Z</time>
      </trkpt>
      <trkpt lat="48.08708" lon="7.005">
        <ele>1017</ele>
        <time>2015-05-16T09:23:36.648Z</time>
      </trkpt>
      <trkpt lat="48.08764" lon="7.00448">
        <ele>999</ele>
        <time>2015-05-16T09:24:34.646Z</time>
      </trkpt>
      <trkpt lat="48.08808" lon="7.00429">
        <ele>996</ele>
        <time>2015-05-16T09:25:23.646Z</time>
      </trkpt>
      <trkpt lat="48.08827" lon="7.00416">
        <ele>993</ele>
        <time>2015-05-16T09:25:39.658Z</time>
      </trkpt>
      <trkpt lat="48.08874" lon="7.00384">
        <ele>991</ele>
        <time>2015-05-16T09:26:32.64Z</time>
      </trkpt>
      <trkpt lat="48.0892" lon="7.00346">
        <ele>989</ele>
        <time>2015-05-16T09:27:25.65Z</time>
      </trkpt>
      <trkpt lat="48.08962" lon="7.00319">
        <ele>981</ele>
        <time>2015-05-16T09:28:14.661Z</time>
      </trkpt>
      <trkpt lat="48.08983" lon="7.00309">
        <ele>980</ele>
        <time>2015-05-16T09:28:40.655Z</time>
      </trkpt>
      <trkpt lat="48.08997" lon="7.00295">
        <ele>978</ele>
        <time>2015-05-16T09:28:52.645Z</time>
      </trkpt>
      <trkpt lat="48.09047" lon="7.00271">
        <ele>968</ele>
        <time>2015-05-16T09:29:40.65Z</time>
      </trkpt>
      <trkpt lat="48.09089" lon="7.00245">
        <ele>955</ele>
        <time>2015-05-16T09:30:38.65Z</time>
      </trkpt>
      <trkpt lat="48.09132" lon="7.00221">
        <ele>943</ele>
        <time>2015-05-16T09:31:16.654Z</time>
      </trkpt>
      <trkpt lat="48.09189" lon="7.00186">
        <ele>924</ele>
        <time>2015-05-16T09:32:16.65Z</time>
      </trkpt>
      <trkpt lat="48.0923" lon="7.00157">
        <ele>909</ele>
        <time>2015-05-16T09:33:11.655Z</time>
      </trkpt>
      <trkpt lat="48.09257" lon="7.00148">
        <ele>898</ele>
        <time>2015-05-16T09:33:46.655Z</time>
      </trkpt>
      <trkpt lat="48.09291" lon="7.00139">
        <ele>889</ele>
        <time>2015-05-16T09:34:46.655Z</time>
      </trkpt>
      <trkpt lat="48.0933" lon="7.00127">
        <ele>883</ele>
        <time>2015-05-16T09:35:46.655Z</time>
      </trkpt>
      <trkpt lat="48.09342" lon="7.00118">
        <ele>868</ele>
        <time>2015-05-16T09:35:56.653Z</time>
      </trkpt>
      <trkpt lat="48.09356" lon="7.00102">
        <ele>867</ele>
        <time>2015-05-16T09:36:23.656Z</time>
      </trkpt>
      <trkpt lat="48.09354" lon="7.00101">
        <ele>867</ele>
        <time>2015-05-16T09:37:24.649Z</time>
      </trkpt>
      <trkpt lat="48.09358" lon="7.00101">
        <ele>867</ele>
        <time>2015-05-16T09:38:24.65Z</time>
      </trkpt>
      <trkpt lat="48.09357" lon="7.00103">
        <ele>867</ele>
        <time>2015-05-16T09:39:25.646Z</time>
      </trkpt>
      <trkpt lat="48.09358" lon="7.00103">
        <ele>867</ele>
        <time>2015-05-16T09:40:25.65Z</time>
      </trkpt>
      <trkpt lat="48.09363" lon="7.00101">
        <ele>866</ele>
        <time>2015-05-16T09:41:25.651Z</time>
      </trkpt>
      <trkpt lat="48.09363" lon="7.00101">
        <ele>866</ele>
        <time>2015-05-16T09:42:26.639Z</time>
      </trkpt>
      <trkpt lat="48.09363" lon="7.00101">
        <ele>866</ele>
        <time>2015-05-16T09:43:26.646Z</time>
      </trkpt>
      <trkpt lat="48.09363" lon="7.00101">
        <ele>866</ele>
        <time>2015-05-16T09:44:27.645Z</time>
      </trkpt>
      <trkpt lat="48.09363" lon="7.00101">
        <ele>866</ele>
        <time>2015-05-16T09:45:28.643Z</time>
      </trkpt>
      <trkpt lat="48.09363" lon="7.00101">
        <ele>866</ele>
        <time>2015-05-16T09:46:28.646Z</time>
      </trkpt>
      <trkpt lat="48.09363" lon="7.001">
        <ele>866</ele>
        <time>2015-05-16T09:47:28.648Z</time>
      </trkpt>
      <trkpt lat="48.09367" lon="7.00095">
        <ele>866</ele>
        <time>2015-05-16T09:48:28.67Z</time>
      </trkpt>
      <trkpt lat="48.09376" lon="7.0011">
        <ele>865</ele>
        <time>2015-05-16T09:49:13.689Z</time>
      </trkpt>
      <trkpt lat="48.0939" lon="7.00123">
        <ele>863</ele>
        <time>2015-05-16T09:49:31.685Z</time>
      </trkpt>
      <trkpt lat="48.09416" lon="7.0013">
        <ele>862</ele>
        <time>2015-05-16T09:50:00.694Z</time>
      </trkpt>
      <trkpt lat="48.0943" lon="7.00127">
        <ele>854</ele>
        <time>2015-05-16T09:50:13.698Z</time>
      </trkpt>
      <trkpt lat="48.09444" lon="7.00122">
        <ele>854</ele>
        <time>2015-05-16T09:50:24.69Z</time>
      </trkpt>
      <trkpt lat="48.09511" lon="7.00105">
        <ele>855</ele>
        <time>2015-05-16T09:51:22.735Z</time>
      </trkpt>
      <trkpt lat="48.09526" lon="7.00098">
        <ele>856</ele>
        <time>2015-05-16T09:51:48.735Z</time>
      </trkpt>
      <trkpt lat="48.09533" lon="7.00076">
        <ele>855</ele>
        <time>2015-05-16T09:52:05.735Z</time>
      </trkpt>
      <trkpt lat="48.09539" lon="7.00059">
        <ele>855</ele>
        <time>2015-05-16T09:52:15.715Z</time>
      </trkpt>
      <trkpt lat="48.09535" lon="7.00044">
        <ele>854</ele>
        <time>2015-05-16T09:53:16.025Z</time>
      </trkpt>
      <trkpt lat="48.09547" lon="7.00053">
        <ele>855</ele>
        <time>2015-05-16T09:53:50.681Z</time>
      </trkpt>
      <trkpt lat="48.09567" lon="7.00045">
        <ele>856</ele>
        <time>2015-05-16T09:54:09.683Z</time>
      </trkpt>
      <trkpt lat="48.0958" lon="7.00029">
        <ele>856</ele>
        <time>2015-05-16T09:54:29.69Z</time>
      </trkpt>
      <trkpt lat="48.09589" lon="7.00013">
        <ele>861</ele>
        <time>2015-05-16T09:54:45.675Z</time>
      </trkpt>
      <trkpt lat="48.09592" lon="6.99977">
        <ele>863</ele>
        <time>2015-05-16T09:55:03.698Z</time>
      </trkpt>
      <trkpt lat="48.0961" lon="6.99969">
        <ele>864</ele>
        <time>2015-05-16T09:55:42.716Z</time>
      </trkpt>
      <trkpt lat="48.09627" lon="6.99978">
        <ele>866</ele>
        <time>2015-05-16T09:56:02.724Z</time>
      </trkpt>
      <trkpt lat="48.09651" lon="6.99993">
        <ele>869</ele>
        <time>2015-05-16T09:56:46.685Z</time>
      </trkpt>
      <trkpt lat="48.09672" lon="7.00003">
        <ele>874</ele>
        <time>2015-05-16T09:57:17.709Z</time>
      </trkpt>
      <trkpt lat="48.09686" lon="7.00004">
        <ele>877</ele>
        <time>2015-05-16T09:57:33.72Z</time>
      </trkpt>
      <trkpt lat="48.09708" lon="7.00018">
        <ele>881</ele>
        <time>2015-05-16T09:57:57.731Z</time>
      </trkpt>
      <trkpt lat="48.09729" lon="7.00027">
        <ele>883</ele>
        <time>2015-05-16T09:58:27.723Z</time>
      </trkpt>
      <trkpt lat="48.09748" lon="7.00023">
        <ele>885</ele>
        <time>2015-05-16T09:59:27.724Z</time>
      </trkpt>
      <trkpt lat="48.09763" lon="7.0003">
        <ele>896</ele>
        <time>2015-05-16T10:00:04.814Z</time>
      </trkpt>
      <trkpt lat="48.09775" lon="7.00039">
        <ele>897</ele>
        <time>2015-05-16T10:00:19.801Z</time>
      </trkpt>
      <trkpt lat="48.0979" lon="7.00054">
        <ele>898</ele>
        <time>2015-05-16T10:00:33.79Z</time>
      </trkpt>
      <trkpt lat="48.09833" lon="7.00072">
        <ele>903</ele>
        <time>2015-05-16T10:01:27.9Z</time>
      </trkpt>
      <trkpt lat="48.0985" lon="7.00068">
        <ele>913</ele>
        <time>2015-05-16T10:02:28.756Z</time>
      </trkpt>
      <trkpt lat="48.09883" lon="7.00073">
        <ele>919</ele>
        <time>2015-05-16T10:03:29.718Z</time>
      </trkpt>
      <trkpt lat="48.09916" lon="7.00044">
        <ele>922</ele>
        <time>2015-05-16T10:04:29.739Z</time>
      </trkpt>
      <trkpt lat="48.09915" lon="7.00023">
        <ele>924</ele>
        <time>2015-05-16T10:05:04.705Z</time>
      </trkpt>
      <trkpt lat="48.09912" lon="7.00013">
        <ele>926</ele>
        <time>2015-05-16T10:06:04.816Z</time>
      </trkpt>
      <trkpt lat="48.0991" lon="7.00007">
        <ele>927</ele>
        <time>2015-05-16T10:07:05.725Z</time>
      </trkpt>
      <trkpt lat="48.09914" lon="7.00006">
        <ele>928</ele>
        <time>2015-05-16T10:08:05.739Z</time>
      </trkpt>
      <trkpt lat="48.09917" lon="7.00005">
        <ele>932</ele>
        <time>2015-05-16T10:09:06.741Z</time>
      </trkpt>
      <trkpt lat="48.09909" lon="7.00027">
        <ele>923</ele>
        <time>2015-05-16T10:09:40.745Z</time>
      </trkpt>
      <trkpt lat="48.09912" lon="7.00048">
        <ele>922</ele>
        <time>2015-05-16T10:09:51.71Z</time>
      </trkpt>
      <trkpt lat="48.09913" lon="7.00074">
        <ele>925</ele>
        <time>2015-05-16T10:10:06.711Z</time>
      </trkpt>
      <trkpt lat="48.09926" lon="7.00098">
        <ele>931</ele>
        <time>2015-05-16T10:10:24.716Z</time>
      </trkpt>
      <trkpt lat="48.09916" lon="7.00061">
        <ele>923</ele>
        <time>2015-05-16T10:11:00.716Z</time>
      </trkpt>
      <trkpt lat="48.09919" lon="7.00042">
        <ele>936</ele>
        <time>2015-05-16T10:11:08.711Z</time>
      </trkpt>
      <trkpt lat="48.09913" lon="7.00022">
        <ele>924</ele>
        <time>2015-05-16T10:11:20.703Z</time>
      </trkpt>
      <trkpt lat="48.0991" lon="7.00006">
        <ele>927</ele>
        <time>2015-05-16T10:12:21.704Z</time>
      </trkpt>
      <trkpt lat="48.0991" lon="7.00006">
        <ele>927</ele>
        <time>2015-05-16T10:13:21.71Z</time>
      </trkpt>
      <trkpt lat="48.0991" lon="7.00006">
        <ele>927</ele>
        <time>2015-05-16T10:14:28.686Z</time>
      </trkpt>
      <trkpt lat="48.0991" lon="7.00006">
        <ele>927</ele>
        <time>2015-05-16T10:15:28.694Z</time>
      </trkpt>
      <trkpt lat="48.0991" lon="7.00006">
        <ele>927</ele>
        <time>2015-05-16T10:16:29.688Z</time>
      </trkpt>
      <trkpt lat="48.09916" lon="7.00002">
        <ele>930</ele>
        <time>2015-05-16T10:17:29.7Z</time>
      </trkpt>
      <trkpt lat="48.09917" lon="6.99987">
        <ele>934</ele>
        <time>2015-05-16T10:18:29.704Z</time>
      </trkpt>
      <trkpt lat="48.09917" lon="6.99986">
        <ele>934</ele>
        <time>2015-05-16T10:19:29.728Z</time>
      </trkpt>
      <trkpt lat="48.09919" lon="6.99981">
        <ele>935</ele>
        <time>2015-05-16T10:20:30.701Z</time>
      </trkpt>
      <trkpt lat="48.09917" lon="6.99974">
        <ele>936</ele>
        <time>2015-05-16T10:21:31.7Z</time>
      </trkpt>
      <trkpt lat="48.09918" lon="6.99974">
        <ele>936</ele>
        <time>2015-05-16T10:22:31.725Z</time>
      </trkpt>
      <trkpt lat="48.09919" lon="6.99976">
        <ele>936</ele>
        <time>2015-05-16T10:23:31.799Z</time>
      </trkpt>
      <trkpt lat="48.09919" lon="6.99976">
        <ele>936</ele>
        <time>2015-05-16T10:24:31.853Z</time>
      </trkpt>
      <trkpt lat="48.09919" lon="6.99976">
        <ele>936</ele>
        <time>2015-05-16T10:25:32.845Z</time>
      </trkpt>
      <trkpt lat="48.09919" lon="6.99976">
        <ele>936</ele>
        <time>2015-05-16T10:26:33.843Z</time>
      </trkpt>
      <trkpt lat="48.09919" lon="6.99976">
        <ele>936</ele>
        <time>2015-05-16T10:27:34.84Z</time>
      </trkpt>
      <trkpt lat="48.09919" lon="6.99976">
        <ele>936</ele>
        <time>2015-05-16T10:28:35.843Z</time>
      </trkpt>
      <trkpt lat="48.09919" lon="6.99976">
        <ele>936</ele>
        <time>2015-05-16T10:29:35.861Z</time>
      </trkpt>
      <trkpt lat="48.09919" lon="6.99976">
        <ele>936</ele>
        <time>2015-05-16T10:30:36.843Z</time>
      </trkpt>
      <trkpt lat="48.09919" lon="6.99976">
        <ele>936</ele>
        <time>2015-05-16T10:31:36.853Z</time>
      </trkpt>
      <trkpt lat="48.09919" lon="6.99976">
        <ele>936</ele>
        <time>2015-05-16T10:32:37.835Z</time>
      </trkpt>
      <trkpt lat="48.09919" lon="6.99976">
        <ele>936</ele>
        <time>2015-05-16T10:33:37.84Z</time>
      </trkpt>
      <trkpt lat="48.09919" lon="6.99976">
        <ele>936</ele>
        <time>2015-05-16T10:34:37.87Z</time>
      </trkpt>
      <trkpt lat="48.09919" lon="6.99976">
        <ele>936</ele>
        <time>2015-05-16T10:35:37.87Z</time>
      </trkpt>
      <trkpt lat="48.09919" lon="6.99976">
        <ele>936</ele>
        <time>2015-05-16T10:36:38.87Z</time>
      </trkpt>
      <trkpt lat="48.09919" lon="6.99976">
        <ele>936</ele>
        <time>2015-05-16T10:37:38.878Z</time>
      </trkpt>
      <trkpt lat="48.09919" lon="6.99976">
        <ele>936</ele>
        <time>2015-05-16T10:38:39.868Z</time>
      </trkpt>
      <trkpt lat="48.09919" lon="6.99976">
        <ele>936</ele>
        <time>2015-05-16T10:39:39.87Z</time>
      </trkpt>
      <trkpt lat="48.09919" lon="6.99976">
        <ele>936</ele>
        <time>2015-05-16T10:40:39.878Z</time>
      </trkpt>
      <trkpt lat="48.09919" lon="6.99976">
        <ele>936</ele>
        <time>2015-05-16T10:41:39.878Z</time>
      </trkpt>
      <trkpt lat="48.09919" lon="6.99976">
        <ele>936</ele>
        <time>2015-05-16T10:42:39.891Z</time>
      </trkpt>
      <trkpt lat="48.09919" lon="6.99976">
        <ele>936</ele>
        <time>2015-05-16T10:43:39.914Z</time>
      </trkpt>
      <trkpt lat="48.09919" lon="6.99976">
        <ele>936</ele>
        <time>2015-05-16T10:44:39.918Z</time>
      </trkpt>
      <trkpt lat="48.09919" lon="6.99976">
        <ele>936</ele>
        <time>2015-05-16T10:45:40.909Z</time>
      </trkpt>
      <trkpt lat="48.09919" lon="6.99976">
        <ele>936</ele>
        <time>2015-05-16T10:46:41.905Z</time>
      </trkpt>
      <trkpt lat="48.09918" lon="6.99976">
        <ele>936</ele>
        <time>2015-05-16T10:47:42.898Z</time>
      </trkpt>
      <trkpt lat="48.09918" lon="6.99976">
        <ele>936</ele>
        <time>2015-05-16T10:48:42.899Z</time>
      </trkpt>
      <trkpt lat="48.09918" lon="6.99976">
        <ele>936</ele>
        <time>2015-05-16T10:49:43.879Z</time>
      </trkpt>
      <trkpt lat="48.09918" lon="6.99976">
        <ele>936</ele>
        <time>2015-05-16T10:50:43.891Z</time>
      </trkpt>
      <trkpt lat="48.09918" lon="6.99976">
        <ele>936</ele>
        <time>2015-05-16T10:51:43.908Z</time>
      </trkpt>
      <trkpt lat="48.09918" lon="6.99976">
        <ele>936</ele>
        <time>2015-05-16T10:52:44.89Z</time>
      </trkpt>
      <trkpt lat="48.09918" lon="6.99976">
        <ele>936</ele>
        <time>2015-05-16T10:53:44.89Z</time>
      </trkpt>
      <trkpt lat="48.09918" lon="6.99976">
        <ele>936</ele>
        <time>2015-05-16T10:54:45.915Z</time>
      </trkpt>
      <trkpt lat="48.09918" lon="6.99976">
        <ele>936</ele>
        <time>2015-05-16T10:55:46.886Z</time>
      </trkpt>
      <trkpt lat="48.09918" lon="6.99976">
        <ele>936</ele>
        <time>2015-05-16T10:56:47.876Z</time>
      </trkpt>
      <trkpt lat="48.09918" lon="6.99976">
        <ele>936</ele>
        <time>2015-05-16T10:57:47.885Z</time>
      </trkpt>
      <trkpt lat="48.09918" lon="6.99976">
        <ele>936</ele>
        <time>2015-05-16T10:58:48.875Z</time>
      </trkpt>
      <trkpt lat="48.09918" lon="6.99976">
        <ele>936</ele>
        <time>2015-05-16T10:59:49.863Z</time>
      </trkpt>
      <trkpt lat="48.09918" lon="6.99976">
        <ele>936</ele>
        <time>2015-05-16T11:00:49.863Z</time>
      </trkpt>
      <trkpt lat="48.09918" lon="6.99976">
        <ele>936</ele>
        <time>2015-05-16T11:01:50.841Z</time>
      </trkpt>
      <trkpt lat="48.09918" lon="6.99976">
        <ele>936</ele>
        <time>2015-05-16T11:02:50.855Z</time>
      </trkpt>
      <trkpt lat="48.09918" lon="6.99976">
        <ele>936</ele>
        <time>2015-05-16T11:03:51.845Z</time>
      </trkpt>
      <trkpt lat="48.09918" lon="6.99976">
        <ele>936</ele>
        <time>2015-05-16T11:04:52.83Z</time>
      </trkpt>
      <trkpt lat="48.09918" lon="6.99976">
        <ele>936</ele>
        <time>2015-05-16T11:05:52.83Z</time>
      </trkpt>
      <trkpt lat="48.09917" lon="6.99976">
        <ele>936</ele>
        <time>2015-05-16T11:06:52.835Z</time>
      </trkpt>
      <trkpt lat="48.09917" lon="6.99976">
        <ele>936</ele>
        <time>2015-05-16T11:07:53.821Z</time>
      </trkpt>
      <trkpt lat="48.09917" lon="6.99976">
        <ele>936</ele>
        <time>2015-05-16T11:08:53.821Z</time>
      </trkpt>
      <trkpt lat="48.0992" lon="6.99979">
        <ele>936</ele>
        <time>2015-05-16T11:09:54.818Z</time>
      </trkpt>
      <trkpt lat="48.09917" lon="6.9998">
        <ele>935</ele>
        <time>2015-05-16T11:10:55.804Z</time>
      </trkpt>
      <trkpt lat="48.09922" lon="6.99978">
        <ele>936</ele>
        <time>2015-05-16T11:11:55.81Z</time>
      </trkpt>
      <trkpt lat="48.09921" lon="6.99988">
        <ele>934</ele>
        <time>2015-05-16T11:12:56.805Z</time>
      </trkpt>
      <trkpt lat="48.09922" lon="6.99988">
        <ele>934</ele>
        <time>2015-05-16T11:13:57.778Z</time>
      </trkpt>
      <trkpt lat="48.0992" lon="6.99984">
        <ele>935</ele>
        <time>2015-05-16T11:14:57.793Z</time>
      </trkpt>
      <trkpt lat="48.09924" lon="6.99989">
        <ele>935</ele>
        <time>2015-05-16T11:15:58.804Z</time>
      </trkpt>
      <trkpt lat="48.0992" lon="6.99984">
        <ele>935</ele>
        <time>2015-05-16T11:16:59.775Z</time>
      </trkpt>
      <trkpt lat="48.09908" lon="6.99999">
        <ele>928</ele>
        <time>2015-05-16T11:17:26.786Z</time>
      </trkpt>
      <trkpt lat="48.0991" lon="7.00024">
        <ele>924</ele>
        <time>2015-05-16T11:17:43.761Z</time>
      </trkpt>
      <trkpt lat="48.0991" lon="7.00045">
        <ele>922</ele>
        <time>2015-05-16T11:17:56.745Z</time>
      </trkpt>
      <trkpt lat="48.09915" lon="7.00076">
        <ele>926</ele>
        <time>2015-05-16T11:18:15.778Z</time>
      </trkpt>
      <trkpt lat="48.09958" lon="7.00118">
        <ele>935</ele>
        <time>2015-05-16T11:19:15.778Z</time>
      </trkpt>
      <trkpt lat="48.09993" lon="7.0016">
        <ele>942</ele>
        <time>2015-05-16T11:19:59.765Z</time>
      </trkpt>
      <trkpt lat="48.10035" lon="7.00187">
        <ele>953</ele>
        <time>2015-05-16T11:20:52.724Z</time>
      </trkpt>
      <trkpt lat="48.10076" lon="7.00221">
        <ele>957</ele>
        <time>2015-05-16T11:21:37.92Z</time>
      </trkpt>
      <trkpt lat="48.10085" lon="7.00221">
        <ele>974</ele>
        <time>2015-05-16T11:22:38.708Z</time>
      </trkpt>
      <trkpt lat="48.10122" lon="7.0026">
        <ele>969</ele>
        <time>2015-05-16T11:23:20.705Z</time>
      </trkpt>
      <trkpt lat="48.10136" lon="7.00268">
        <ele>972</ele>
        <time>2015-05-16T11:23:37.706Z</time>
      </trkpt>
      <trkpt lat="48.10177" lon="7.00294">
        <ele>991</ele>
        <time>2015-05-16T11:24:37.716Z</time>
      </trkpt>
      <trkpt lat="48.10217" lon="7.00324">
        <ele>996</ele>
        <time>2015-05-16T11:25:20.706Z</time>
      </trkpt>
      <trkpt lat="48.10261" lon="7.00348">
        <ele>1004</ele>
        <time>2015-05-16T11:26:09.706Z</time>
      </trkpt>
      <trkpt lat="48.10303" lon="7.00374">
        <ele>1007</ele>
        <time>2015-05-16T11:26:55.709Z</time>
      </trkpt>
      <trkpt lat="48.10323" lon="7.00381">
        <ele>1008</ele>
        <time>2015-05-16T11:27:10.713Z</time>
      </trkpt>
      <trkpt lat="48.10368" lon="7.0039">
        <ele>1019</ele>
        <time>2015-05-16T11:28:05.705Z</time>
      </trkpt>
      <trkpt lat="48.10413" lon="7.00408">
        <ele>1019</ele>
        <time>2015-05-16T11:28:52.705Z</time>
      </trkpt>
      <trkpt lat="48.10427" lon="7.00411">
        <ele>1024</ele>
        <time>2015-05-16T11:29:05.705Z</time>
      </trkpt>
      <trkpt lat="48.10446" lon="7.00428">
        <ele>1023</ele>
        <time>2015-05-16T11:30:05.705Z</time>
      </trkpt>
      <trkpt lat="48.10471" lon="7.00425">
        <ele>1026</ele>
        <time>2015-05-16T11:31:05.708Z</time>
      </trkpt>
      <trkpt lat="48.10477" lon="7.00429">
        <ele>1026</ele>
        <time>2015-05-16T11:32:06.705Z</time>
      </trkpt>
      <trkpt lat="48.10494" lon="7.00447">
        <ele>1027</ele>
        <time>2015-05-16T11:32:22.706Z</time>
      </trkpt>
      <trkpt lat="48.10513" lon="7.00456">
        <ele>1040</ele>
        <time>2015-05-16T11:32:40.708Z</time>
      </trkpt>
      <trkpt lat="48.10553" lon="7.00486">
        <ele>1045</ele>
        <time>2015-05-16T11:33:40.708Z</time>
      </trkpt>
      <trkpt lat="48.10593" lon="7.00498">
        <ele>1058</ele>
        <time>2015-05-16T11:34:40.708Z</time>
      </trkpt>
      <trkpt lat="48.1063" lon="7.00514">
        <ele>1065</ele>
        <time>2015-05-16T11:35:40.708Z</time>
      </trkpt>
      <trkpt lat="48.10665" lon="7.00524">
        <ele>1070</ele>
        <time>2015-05-16T11:36:41.706Z</time>
      </trkpt>
      <trkpt lat="48.107" lon="7.00526">
        <ele>1085</ele>
        <time>2015-05-16T11:37:18.709Z</time>
      </trkpt>
      <trkpt lat="48.10722" lon="7.00529">
        <ele>1088</ele>
        <time>2015-05-16T11:38:18.71Z</time>
      </trkpt>
      <trkpt lat="48.10762" lon="7.00537">
        <ele>1099</ele>
        <time>2015-05-16T11:38:54.709Z</time>
      </trkpt>
      <trkpt lat="48.10775" lon="7.00546">
        <ele>1098</ele>
        <time>2015-05-16T11:39:09.71Z</time>
      </trkpt>
      <trkpt lat="48.10792" lon="7.00536">
        <ele>1099</ele>
        <time>2015-05-16T11:40:09.714Z</time>
      </trkpt>
      <trkpt lat="48.10793" lon="7.00536">
        <ele>1099</ele>
        <time>2015-05-16T11:41:09.714Z</time>
      </trkpt>
      <trkpt lat="48.10796" lon="7.00524">
        <ele>1101</ele>
        <time>2015-05-16T11:42:10.71Z</time>
      </trkpt>
      <trkpt lat="48.10795" lon="7.00524">
        <ele>1100</ele>
        <time>2015-05-16T11:43:10.71Z</time>
      </trkpt>
      <trkpt lat="48.10795" lon="7.00517">
        <ele>1101</ele>
        <time>2015-05-16T11:44:10.711Z</time>
      </trkpt>
      <trkpt lat="48.1079" lon="7.00496">
        <ele>1109</ele>
        <time>2015-05-16T11:45:11.708Z</time>
      </trkpt>
      <trkpt lat="48.10786" lon="7.00476">
        <ele>1110</ele>
        <time>2015-05-16T11:45:21.715Z</time>
      </trkpt>
      <trkpt lat="48.10767" lon="7.00427">
        <ele>1110</ele>
        <time>2015-05-16T11:45:57.706Z</time>
      </trkpt>
      <trkpt lat="48.10757" lon="7.00402">
        <ele>1115</ele>
        <time>2015-05-16T11:46:17.708Z</time>
      </trkpt>
      <trkpt lat="48.10751" lon="7.00383">
        <ele>1119</ele>
        <time>2015-05-16T11:46:28.705Z</time>
      </trkpt>
      <trkpt lat="48.10739" lon="7.00353">
        <ele>1110</ele>
        <time>2015-05-16T11:46:46.709Z</time>
      </trkpt>
      <trkpt lat="48.10728" lon="7.00295">
        <ele>1114</ele>
        <time>2015-05-16T11:47:27.706Z</time>
      </trkpt>
      <trkpt lat="48.10726" lon="7.00272">
        <ele>1116</ele>
        <time>2015-05-16T11:47:41.708Z</time>
      </trkpt>
      <trkpt lat="48.10719" lon="7.00253">
        <ele>1116</ele>
        <time>2015-05-16T11:47:53.711Z</time>
      </trkpt>
      <trkpt lat="48.10711" lon="7.00231">
        <ele>1116</ele>
        <time>2015-05-16T11:48:07.71Z</time>
      </trkpt>
      <trkpt lat="48.10716" lon="7.00212">
        <ele>1116</ele>
        <time>2015-05-16T11:48:22.708Z</time>
      </trkpt>
      <trkpt lat="48.10713" lon="7.0019">
        <ele>1116</ele>
        <time>2015-05-16T11:48:35.706Z</time>
      </trkpt>
      <trkpt lat="48.10717" lon="7.00161">
        <ele>1116</ele>
        <time>2015-05-16T11:49:01.705Z</time>
      </trkpt>
      <trkpt lat="48.10721" lon="7.00129">
        <ele>1115</ele>
        <time>2015-05-16T11:49:18.705Z</time>
      </trkpt>
      <trkpt lat="48.10722" lon="7.00117">
        <ele>1115</ele>
        <time>2015-05-16T11:50:18.715Z</time>
      </trkpt>
      <trkpt lat="48.10724" lon="7.00122">
        <ele>1115</ele>
        <time>2015-05-16T11:51:19.71Z</time>
      </trkpt>
      <trkpt lat="48.10721" lon="7.00118">
        <ele>1115</ele>
        <time>2015-05-16T11:52:19.71Z</time>
      </trkpt>
      <trkpt lat="48.10721" lon="7.00117">
        <ele>1115</ele>
        <time>2015-05-16T11:53:19.713Z</time>
      </trkpt>
      <trkpt lat="48.10721" lon="7.00117">
        <ele>1115</ele>
        <time>2015-05-16T11:54:19.715Z</time>
      </trkpt>
      <trkpt lat="48.10731" lon="7.00102">
        <ele>1116</ele>
        <time>2015-05-16T11:54:41.71Z</time>
      </trkpt>
      <trkpt lat="48.10736" lon="7.00079">
        <ele>1116</ele>
        <time>2015-05-16T11:54:53.713Z</time>
      </trkpt>
      <trkpt lat="48.10742" lon="7.00061">
        <ele>1115</ele>
        <time>2015-05-16T11:55:05.711Z</time>
      </trkpt>
      <trkpt lat="48.10777" lon="6.99983">
        <ele>1117</ele>
        <time>2015-05-16T11:55:56.706Z</time>
      </trkpt>
      <trkpt lat="48.10797" lon="6.99957">
        <ele>1118</ele>
        <time>2015-05-16T11:56:15.706Z</time>
      </trkpt>
      <trkpt lat="48.10827" lon="6.99926">
        <ele>1120</ele>
        <time>2015-05-16T11:57:15.715Z</time>
      </trkpt>
      <trkpt lat="48.10827" lon="6.99926">
        <ele>1120</ele>
        <time>2015-05-16T11:58:15.715Z</time>
      </trkpt>
      <trkpt lat="48.1082" lon="6.99918">
        <ele>1119</ele>
        <time>2015-05-16T11:59:16.71Z</time>
      </trkpt>
      <trkpt lat="48.10818" lon="6.99914">
        <ele>1117</ele>
        <time>2015-05-16T12:00:16.715Z</time>
      </trkpt>
      <trkpt lat="48.10851" lon="6.99896">
        <ele>1121</ele>
        <time>2015-05-16T12:00:54.71Z</time>
      </trkpt>
      <trkpt lat="48.10865" lon="6.99918">
        <ele>1125</ele>
        <time>2015-05-16T12:01:14.711Z</time>
      </trkpt>
      <trkpt lat="48.10864" lon="6.99939">
        <ele>1125</ele>
        <time>2015-05-16T12:01:33.71Z</time>
      </trkpt>
      <trkpt lat="48.10864" lon="7.00039">
        <ele>1131</ele>
        <time>2015-05-16T12:02:34.708Z</time>
      </trkpt>
      <trkpt lat="48.10865" lon="7.0014">
        <ele>1137</ele>
        <time>2015-05-16T12:03:34.709Z</time>
      </trkpt>
      <trkpt lat="48.10859" lon="7.00174">
        <ele>1140</ele>
        <time>2015-05-16T12:03:54.706Z</time>
      </trkpt>
      <trkpt lat="48.10861" lon="7.00199">
        <ele>1141</ele>
        <time>2015-05-16T12:04:07.71Z</time>
      </trkpt>
      <trkpt lat="48.1086" lon="7.00271">
        <ele>1143</ele>
        <time>2015-05-16T12:04:49.709Z</time>
      </trkpt>
      <trkpt lat="48.10859" lon="7.00307">
        <ele>1143</ele>
        <time>2015-05-16T12:05:49.71Z</time>
      </trkpt>
      <trkpt lat="48.10894" lon="7.00315">
        <ele>1144</ele>
        <time>2015-05-16T12:06:49.711Z</time>
      </trkpt>
      <trkpt lat="48.10908" lon="7.00302">
        <ele>1144</ele>
        <time>2015-05-16T12:06:57.714Z</time>
      </trkpt>
      <trkpt lat="48.10951" lon="7.00262">
        <ele>1141</ele>
        <time>2015-05-16T12:07:58.715Z</time>
      </trkpt>
      <trkpt lat="48.10963" lon="7.00249">
        <ele>1144</ele>
        <time>2015-05-16T12:08:11.71Z</time>
      </trkpt>
      <trkpt lat="48.1099" lon="7.00241">
        <ele>1143</ele>
        <time>2015-05-16T12:08:33.715Z</time>
      </trkpt>
      <trkpt lat="48.11035" lon="7.00219">
        <ele>1144</ele>
        <time>2015-05-16T12:09:15.71Z</time>
      </trkpt>
      <trkpt lat="48.1106" lon="7.00207">
        <ele>1144</ele>
        <time>2015-05-16T12:09:40.71Z</time>
      </trkpt>
      <trkpt lat="48.11075" lon="7.00197">
        <ele>1144</ele>
        <time>2015-05-16T12:10:41.713Z</time>
      </trkpt>
      <trkpt lat="48.11079" lon="7.00208">
        <ele>1144</ele>
        <time>2015-05-16T12:11:42.71Z</time>
      </trkpt>
      <trkpt lat="48.11088" lon="7.00224">
        <ele>1142</ele>
        <time>2015-05-16T12:11:55.71Z</time>
      </trkpt>
      <trkpt lat="48.11101" lon="7.00235">
        <ele>1142</ele>
        <time>2015-05-16T12:12:04.71Z</time>
      </trkpt>
      <trkpt lat="48.11122" lon="7.00271">
        <ele>1137</ele>
        <time>2015-05-16T12:12:32.706Z</time>
      </trkpt>
      <trkpt lat="48.11132" lon="7.00286">
        <ele>1135</ele>
        <time>2015-05-16T12:12:46.708Z</time>
      </trkpt>
      <trkpt lat="48.11143" lon="7.00302">
        <ele>1134</ele>
        <time>2015-05-16T12:12:56.709Z</time>
      </trkpt>
      <trkpt lat="48.11171" lon="7.0032">
        <ele>1131</ele>
        <time>2015-05-16T12:13:26.705Z</time>
      </trkpt>
      <trkpt lat="48.11219" lon="7.00334">
        <ele>1121</ele>
        <time>2015-05-16T12:14:10.71Z</time>
      </trkpt>
      <trkpt lat="48.1124" lon="7.00336">
        <ele>1122</ele>
        <time>2015-05-16T12:14:24.71Z</time>
      </trkpt>
      <trkpt lat="48.11285" lon="7.00362">
        <ele>1119</ele>
        <time>2015-05-16T12:15:04.708Z</time>
      </trkpt>
      <trkpt lat="48.11328" lon="7.00389">
        <ele>1117</ele>
        <time>2015-05-16T12:16:00.708Z</time>
      </trkpt>
      <trkpt lat="48.11342" lon="7.00405">
        <ele>1116</ele>
        <time>2015-05-16T12:16:11.708Z</time>
      </trkpt>
      <trkpt lat="48.11358" lon="7.00409">
        <ele>1116</ele>
        <time>2015-05-16T12:16:24.709Z</time>
      </trkpt>
      <trkpt lat="48.11391" lon="7.00423">
        <ele>1109</ele>
        <time>2015-05-16T12:16:55.71Z</time>
      </trkpt>
      <trkpt lat="48.11436" lon="7.00454">
        <ele>1111</ele>
        <time>2015-05-16T12:17:41.71Z</time>
      </trkpt>
      <trkpt lat="48.1145" lon="7.00464">
        <ele>1111</ele>
        <time>2015-05-16T12:17:54.71Z</time>
      </trkpt>
      <trkpt lat="48.11482" lon="7.00513">
        <ele>1110</ele>
        <time>2015-05-16T12:18:39.708Z</time>
      </trkpt>
      <trkpt lat="48.11503" lon="7.00572">
        <ele>1117</ele>
        <time>2015-05-16T12:19:29.709Z</time>
      </trkpt>
      <trkpt lat="48.11519" lon="7.00606">
        <ele>1118</ele>
        <time>2015-05-16T12:19:56.709Z</time>
      </trkpt>
      <trkpt lat="48.11535" lon="7.00677">
        <ele>1117</ele>
        <time>2015-05-16T12:20:52.71Z</time>
      </trkpt>
      <trkpt lat="48.11546" lon="7.00701">
        <ele>1119</ele>
        <time>2015-05-16T12:21:53.711Z</time>
      </trkpt>
      <trkpt lat="48.11545" lon="7.00701">
        <ele>1118</ele>
        <time>2015-05-16T12:22:54.716Z</time>
      </trkpt>
      <trkpt lat="48.11538" lon="7.00709">
        <ele>1117</ele>
        <time>2015-05-16T12:23:55.715Z</time>
      </trkpt>
      <trkpt lat="48.11566" lon="7.00763">
        <ele>1120</ele>
        <time>2015-05-16T12:24:53.709Z</time>
      </trkpt>
      <trkpt lat="48.11601" lon="7.00824">
        <ele>1125</ele>
        <time>2015-05-16T12:25:34.709Z</time>
      </trkpt>
      <trkpt lat="48.11635" lon="7.00832">
        <ele>1126</ele>
        <time>2015-05-16T12:26:34.711Z</time>
      </trkpt>
      <trkpt lat="48.11678" lon="7.00809">
        <ele>1120</ele>
        <time>2015-05-16T12:27:18.708Z</time>
      </trkpt>
      <trkpt lat="48.11716" lon="7.00774">
        <ele>1117</ele>
        <time>2015-05-16T12:27:59.708Z</time>
      </trkpt>
      <trkpt lat="48.11749" lon="7.00727">
        <ele>1117</ele>
        <time>2015-05-16T12:28:31.706Z</time>
      </trkpt>
      <trkpt lat="48.11771" lon="7.0071">
        <ele>1111</ele>
        <time>2015-05-16T12:28:50.708Z</time>
      </trkpt>
      <trkpt lat="48.11801" lon="7.00661">
        <ele>1112</ele>
        <time>2015-05-16T12:29:20.708Z</time>
      </trkpt>
      <trkpt lat="48.11835" lon="7.00639">
        <ele>1111</ele>
        <time>2015-05-16T12:30:00.706Z</time>
      </trkpt>
      <trkpt lat="48.11885" lon="7.00645">
        <ele>1110</ele>
        <time>2015-05-16T12:30:44.705Z</time>
      </trkpt>
      <trkpt lat="48.11932" lon="7.00636">
        <ele>1110</ele>
        <time>2015-05-16T12:31:25.706Z</time>
      </trkpt>
      <trkpt lat="48.11969" lon="7.00629">
        <ele>1111</ele>
        <time>2015-05-16T12:31:59.705Z</time>
      </trkpt>
      <trkpt lat="48.11988" lon="7.00617">
        <ele>1112</ele>
        <time>2015-05-16T12:32:17.708Z</time>
      </trkpt>
      <trkpt lat="48.12034" lon="7.00616">
        <ele>1112</ele>
        <time>2015-05-16T12:32:58.708Z</time>
      </trkpt>
      <trkpt lat="48.12047" lon="7.00612">
        <ele>1112</ele>
        <time>2015-05-16T12:33:58.71Z</time>
      </trkpt>
      <trkpt lat="48.12059" lon="7.00624">
        <ele>1112</ele>
        <time>2015-05-16T12:34:11.706Z</time>
      </trkpt>
      <trkpt lat="48.12072" lon="7.00631">
        <ele>1112</ele>
        <time>2015-05-16T12:34:18.708Z</time>
      </trkpt>
      <trkpt lat="48.12111" lon="7.00647">
        <ele>1111</ele>
        <time>2015-05-16T12:34:53.706Z</time>
      </trkpt>
      <trkpt lat="48.1215" lon="7.00685">
        <ele>1105</ele>
        <time>2015-05-16T12:35:50.706Z</time>
      </trkpt>
      <trkpt lat="48.12184" lon="7.0073">
        <ele>1100</ele>
        <time>2015-05-16T12:36:25.705Z</time>
      </trkpt>
      <trkpt lat="48.12217" lon="7.00761">
        <ele>1092</ele>
        <time>2015-05-16T12:36:54.705Z</time>
      </trkpt>
      <trkpt lat="48.12247" lon="7.00787">
        <ele>1091</ele>
        <time>2015-05-16T12:37:54.709Z</time>
      </trkpt>
      <trkpt lat="48.12247" lon="7.00787">
        <ele>1091</ele>
        <time>2015-05-16T12:38:54.719Z</time>
      </trkpt>
      <trkpt lat="48.12247" lon="7.00788">
        <ele>1091</ele>
        <time>2015-05-16T12:39:55.705Z</time>
      </trkpt>
      <trkpt lat="48.12247" lon="7.00788">
        <ele>1091</ele>
        <time>2015-05-16T12:40:55.709Z</time>
      </trkpt>
      <trkpt lat="48.12247" lon="7.00788">
        <ele>1091</ele>
        <time>2015-05-16T12:41:56.709Z</time>
      </trkpt>
      <trkpt lat="48.12265" lon="7.00826">
        <ele>1092</ele>
        <time>2015-05-16T12:42:56.71Z</time>
      </trkpt>
      <trkpt lat="48.12274" lon="7.00896">
        <ele>1086</ele>
        <time>2015-05-16T12:43:45.706Z</time>
      </trkpt>
      <trkpt lat="48.1227" lon="7.0094">
        <ele>1081</ele>
        <time>2015-05-16T12:44:45.706Z</time>
      </trkpt>
      <trkpt lat="48.12255" lon="7.00952">
        <ele>1080</ele>
        <time>2015-05-16T12:45:01.706Z</time>
      </trkpt>
      <trkpt lat="48.12256" lon="7.00954">
        <ele>1080</ele>
        <time>2015-05-16T12:46:01.71Z</time>
      </trkpt>
      <trkpt lat="48.12258" lon="7.00959">
        <ele>1079</ele>
        <time>2015-05-16T12:47:02.709Z</time>
      </trkpt>
      <trkpt lat="48.12286" lon="7.00977">
        <ele>1082</ele>
        <time>2015-05-16T12:48:02.71Z</time>
      </trkpt>
      <trkpt lat="48.12285" lon="7.00973">
        <ele>1082</ele>
        <time>2015-05-16T12:49:02.71Z</time>
      </trkpt>
      <trkpt lat="48.12319" lon="7.01012">
        <ele>1087</ele>
        <time>2015-05-16T12:50:03.706Z</time>
      </trkpt>
      <trkpt lat="48.12363" lon="7.01036">
        <ele>1093</ele>
        <time>2015-05-16T12:51:01.706Z</time>
      </trkpt>
      <trkpt lat="48.12395" lon="7.01037">
        <ele>1091</ele>
        <time>2015-05-16T12:51:29.705Z</time>
      </trkpt>
      <trkpt lat="48.12441" lon="7.01023">
        <ele>1086</ele>
        <time>2015-05-16T12:51:57.706Z</time>
      </trkpt>
      <trkpt lat="48.12495" lon="7.01002">
        <ele>1085</ele>
        <time>2015-05-16T12:52:41.706Z</time>
      </trkpt>
      <trkpt lat="48.12557" lon="7.01015">
        <ele>1081</ele>
        <time>2015-05-16T12:53:36.708Z</time>
      </trkpt>
      <trkpt lat="48.12594" lon="7.0101">
        <ele>1082</ele>
        <time>2015-05-16T12:54:18.708Z</time>
      </trkpt>
      <trkpt lat="48.12638" lon="7.01031">
        <ele>1082</ele>
        <time>2015-05-16T12:55:08.713Z</time>
      </trkpt>
      <trkpt lat="48.12665" lon="7.01045">
        <ele>1082</ele>
        <time>2015-05-16T12:55:17.708Z</time>
      </trkpt>
      <trkpt lat="48.1268" lon="7.01051">
        <ele>1083</ele>
        <time>2015-05-16T12:55:23.706Z</time>
      </trkpt>
      <trkpt lat="48.12682" lon="7.01052">
        <ele>1083</ele>
        <time>2015-05-16T12:56:23.706Z</time>
      </trkpt>
      <trkpt lat="48.12682" lon="7.01051">
        <ele>1083</ele>
        <time>2015-05-16T12:57:23.708Z</time>
      </trkpt>
      <trkpt lat="48.12693" lon="7.01043">
        <ele>1083</ele>
        <time>2015-05-16T12:58:23.71Z</time>
      </trkpt>
      <trkpt lat="48.12693" lon="7.01043">
        <ele>1083</ele>
        <time>2015-05-16T12:59:23.71Z</time>
      </trkpt>
      <trkpt lat="48.12693" lon="7.01042">
        <ele>1083</ele>
        <time>2015-05-16T13:00:23.71Z</time>
      </trkpt>
      <trkpt lat="48.12694" lon="7.01041">
        <ele>1083</ele>
        <time>2015-05-16T13:01:23.713Z</time>
      </trkpt>
      <trkpt lat="48.12694" lon="7.01041">
        <ele>1083</ele>
        <time>2015-05-16T13:02:24.709Z</time>
      </trkpt>
      <trkpt lat="48.12705" lon="7.01045">
        <ele>1083</ele>
        <time>2015-05-16T13:03:24.715Z</time>
      </trkpt>
      <trkpt lat="48.12752" lon="7.01063">
        <ele>1084</ele>
        <time>2015-05-16T13:04:10.709Z</time>
      </trkpt>
      <trkpt lat="48.12794" lon="7.01087">
        <ele>1085</ele>
        <time>2015-05-16T13:04:29.709Z</time>
      </trkpt>
      <trkpt lat="48.12836" lon="7.01118">
        <ele>1086</ele>
        <time>2015-05-16T13:05:19.71Z</time>
      </trkpt>
      <trkpt lat="48.12873" lon="7.01156">
        <ele>1087</ele>
        <time>2015-05-16T13:05:46.71Z</time>
      </trkpt>
      <trkpt lat="48.12912" lon="7.01191">
        <ele>1087</ele>
        <time>2015-05-16T13:06:38.71Z</time>
      </trkpt>
      <trkpt lat="48.12954" lon="7.01218">
        <ele>1088</ele>
        <time>2015-05-16T13:07:26.709Z</time>
      </trkpt>
      <trkpt lat="48.12995" lon="7.01252">
        <ele>1087</ele>
        <time>2015-05-16T13:08:05.709Z</time>
      </trkpt>
      <trkpt lat="48.13042" lon="7.01223">
        <ele>1082</ele>
        <time>2015-05-16T13:08:47.705Z</time>
      </trkpt>
      <trkpt lat="48.13056" lon="7.01188">
        <ele>1083</ele>
        <time>2015-05-16T13:09:15.706Z</time>
      </trkpt>
      <trkpt lat="48.13069" lon="7.01174">
        <ele>1083</ele>
        <time>2015-05-16T13:09:23.709Z</time>
      </trkpt>
      <trkpt lat="48.13075" lon="7.01191">
        <ele>1082</ele>
        <time>2015-05-16T13:10:24.708Z</time>
      </trkpt>
      <trkpt lat="48.13073" lon="7.01185">
        <ele>1082</ele>
        <time>2015-05-16T13:11:24.708Z</time>
      </trkpt>
      <trkpt lat="48.13073" lon="7.01185">
        <ele>1082</ele>
        <time>2015-05-16T13:12:24.709Z</time>
      </trkpt>
      <trkpt lat="48.13078" lon="7.0116">
        <ele>1083</ele>
        <time>2015-05-16T13:13:25.705Z</time>
      </trkpt>
      <trkpt lat="48.13104" lon="7.01105">
        <ele>1077</ele>
        <time>2015-05-16T13:14:14.708Z</time>
      </trkpt>
      <trkpt lat="48.13141" lon="7.01072">
        <ele>1079</ele>
        <time>2015-05-16T13:15:14.715Z</time>
      </trkpt>
      <trkpt lat="48.13153" lon="7.01009">
        <ele>1081</ele>
        <time>2015-05-16T13:15:43.708Z</time>
      </trkpt>
      <trkpt lat="48.13147" lon="7.00982">
        <ele>1078</ele>
        <time>2015-05-16T13:15:56.706Z</time>
      </trkpt>
      <trkpt lat="48.1313" lon="7.00918">
        <ele>1075</ele>
        <time>2015-05-16T13:16:52.71Z</time>
      </trkpt>
      <trkpt lat="48.13128" lon="7.00897">
        <ele>1070</ele>
        <time>2015-05-16T13:17:02.709Z</time>
      </trkpt>
      <trkpt lat="48.13128" lon="7.00838">
        <ele>1068</ele>
        <time>2015-05-16T13:17:38.71Z</time>
      </trkpt>
      <trkpt lat="48.13122" lon="7.00818">
        <ele>1061</ele>
        <time>2015-05-16T13:17:50.705Z</time>
      </trkpt>
      <trkpt lat="48.13114" lon="7.00797">
        <ele>1060</ele>
        <time>2015-05-16T13:18:04.705Z</time>
      </trkpt>
      <trkpt lat="48.13114" lon="7.00777">
        <ele>1059</ele>
        <time>2015-05-16T13:18:16.705Z</time>
      </trkpt>
      <trkpt lat="48.1311" lon="7.00752">
        <ele>1058</ele>
        <time>2015-05-16T13:18:28.704Z</time>
      </trkpt>
      <trkpt lat="48.13111" lon="7.00712">
        <ele>1049</ele>
        <time>2015-05-16T13:19:28.708Z</time>
      </trkpt>
      <trkpt lat="48.13124" lon="7.00702">
        <ele>1048</ele>
        <time>2015-05-16T13:19:39.705Z</time>
      </trkpt>
      <trkpt lat="48.13109" lon="7.00685">
        <ele>1046</ele>
        <time>2015-05-16T13:19:47.705Z</time>
      </trkpt>
      <trkpt lat="48.1309" lon="7.00627">
        <ele>1035</ele>
        <time>2015-05-16T13:20:19.705Z</time>
      </trkpt>
      <trkpt lat="48.1309" lon="7.00603">
        <ele>1032</ele>
        <time>2015-05-16T13:20:37.705Z</time>
      </trkpt>
      <trkpt lat="48.13088" lon="7.00563">
        <ele>1024</ele>
        <time>2015-05-16T13:21:00.705Z</time>
      </trkpt>
      <trkpt lat="48.13091" lon="7.0054">
        <ele>1021</ele>
        <time>2015-05-16T13:21:09.705Z</time>
      </trkpt>
      <trkpt lat="48.13079" lon="7.00525">
        <ele>1021</ele>
        <time>2015-05-16T13:21:17.705Z</time>
      </trkpt>
      <trkpt lat="48.13086" lon="7.00493">
        <ele>1014</ele>
        <time>2015-05-16T13:21:42.705Z</time>
      </trkpt>
      <trkpt lat="48.1308" lon="7.00472">
        <ele>1014</ele>
        <time>2015-05-16T13:21:51.705Z</time>
      </trkpt>
      <trkpt lat="48.1307" lon="7.00457">
        <ele>1013</ele>
        <time>2015-05-16T13:21:57.705Z</time>
      </trkpt>
      <trkpt lat="48.13066" lon="7.00435">
        <ele>1012</ele>
        <time>2015-05-16T13:22:10.71Z</time>
      </trkpt>
      <trkpt lat="48.13078" lon="7.00406">
        <ele>1007</ele>
        <time>2015-05-16T13:22:31.706Z</time>
      </trkpt>
      <trkpt lat="48.1307" lon="7.00392">
        <ele>1006</ele>
        <time>2015-05-16T13:23:31.706Z</time>
      </trkpt>
      <trkpt lat="48.13049" lon="7.00345">
        <ele>1003</ele>
        <time>2015-05-16T13:24:32.704Z</time>
      </trkpt>
      <trkpt lat="48.13058" lon="7.00311">
        <ele>995</ele>
        <time>2015-05-16T13:25:04.706Z</time>
      </trkpt>
      <trkpt lat="48.13071" lon="7.00286">
        <ele>993</ele>
        <time>2015-05-16T13:25:22.705Z</time>
      </trkpt>
      <trkpt lat="48.13068" lon="7.00207">
        <ele>984</ele>
        <time>2015-05-16T13:26:03.705Z</time>
      </trkpt>
      <trkpt lat="48.13066" lon="7.00186">
        <ele>982</ele>
        <time>2015-05-16T13:26:15.709Z</time>
      </trkpt>
      <trkpt lat="48.13066" lon="7.0016">
        <ele>975</ele>
        <time>2015-05-16T13:26:46.705Z</time>
      </trkpt>
      <trkpt lat="48.13072" lon="7.00087">
        <ele>969</ele>
        <time>2015-05-16T13:27:37.705Z</time>
      </trkpt>
      <trkpt lat="48.13075" lon="7.00052">
        <ele>965</ele>
        <time>2015-05-16T13:28:37.705Z</time>
      </trkpt>
      <trkpt lat="48.13075" lon="7.00053">
        <ele>965</ele>
        <time>2015-05-16T13:29:37.705Z</time>
      </trkpt>
      <trkpt lat="48.13077" lon="7.00046">
        <ele>965</ele>
        <time>2015-05-16T13:30:37.714Z</time>
      </trkpt>
      <trkpt lat="48.13069" lon="7.0005">
        <ele>965</ele>
        <time>2015-05-16T13:31:38.706Z</time>
      </trkpt>
      <trkpt lat="48.13089" lon="7.00043">
        <ele>954</ele>
        <time>2015-05-16T13:32:35.701Z</time>
      </trkpt>
      <trkpt lat="48.13133" lon="7.00022">
        <ele>950</ele>
        <time>2015-05-16T13:33:17.703Z</time>
      </trkpt>
      <trkpt lat="48.13168" lon="6.99998">
        <ele>941</ele>
        <time>2015-05-16T13:34:17.706Z</time>
      </trkpt>
      <trkpt lat="48.13184" lon="6.99983">
        <ele>938</ele>
        <time>2015-05-16T13:34:32.708Z</time>
      </trkpt>
      <trkpt lat="48.13203" lon="6.99983">
        <ele>936</ele>
        <time>2015-05-16T13:34:47.708Z</time>
      </trkpt>
      <trkpt lat="48.13237" lon="6.99972">
        <ele>933</ele>
        <time>2015-05-16T13:35:47.71Z</time>
      </trkpt>
      <trkpt lat="48.13253" lon="6.99966">
        <ele>921</ele>
        <time>2015-05-16T13:36:48.705Z</time>
      </trkpt>
      <trkpt lat="48.13284" lon="6.99943">
        <ele>918</ele>
        <time>2015-05-16T13:37:48.71Z</time>
      </trkpt>
      <trkpt lat="48.13294" lon="6.99924">
        <ele>916</ele>
        <time>2015-05-16T13:38:48.711Z</time>
      </trkpt>
      <trkpt lat="48.13294" lon="6.999">
        <ele>917</ele>
        <time>2015-05-16T13:39:26.709Z</time>
      </trkpt>
      <trkpt lat="48.13307" lon="6.99887">
        <ele>915</ele>
        <time>2015-05-16T13:39:32.709Z</time>
      </trkpt>
      <trkpt lat="48.13336" lon="6.99819">
        <ele>902</ele>
        <time>2015-05-16T13:40:23.709Z</time>
      </trkpt>
      <trkpt lat="48.13358" lon="6.99804">
        <ele>899</ele>
        <time>2015-05-16T13:41:23.709Z</time>
      </trkpt>
      <trkpt lat="48.1338" lon="6.99827">
        <ele>895</ele>
        <time>2015-05-16T13:41:34.709Z</time>
      </trkpt>
      <trkpt lat="48.13387" lon="6.99854">
        <ele>891</ele>
        <time>2015-05-16T13:41:46.706Z</time>
      </trkpt>
      <trkpt lat="48.13383" lon="6.99846">
        <ele>891</ele>
        <time>2015-05-16T13:42:46.715Z</time>
      </trkpt>
      <trkpt lat="48.13383" lon="6.99845">
        <ele>891</ele>
        <time>2015-05-16T13:43:47.71Z</time>
      </trkpt>
      <trkpt lat="48.13384" lon="6.99844">
        <ele>891</ele>
        <time>2015-05-16T13:44:47.71Z</time>
      </trkpt>
      <trkpt lat="48.13375" lon="6.9987">
        <ele>892</ele>
        <time>2015-05-16T13:45:33.71Z</time>
      </trkpt>
      <trkpt lat="48.13386" lon="6.99915">
        <ele>888</ele>
        <time>2015-05-16T13:45:55.711Z</time>
      </trkpt>
      <trkpt lat="48.13397" lon="6.9993">
        <ele>886</ele>
        <time>2015-05-16T13:46:21.711Z</time>
      </trkpt>
      <trkpt lat="48.1341" lon="6.99922">
        <ele>881</ele>
        <time>2015-05-16T13:46:33.711Z</time>
      </trkpt>
      <trkpt lat="48.13447" lon="6.99889">
        <ele>872</ele>
        <time>2015-05-16T13:47:05.711Z</time>
      </trkpt>
      <trkpt lat="48.13461" lon="6.99881">
        <ele>871</ele>
        <time>2015-05-16T13:47:17.711Z</time>
      </trkpt>
      <trkpt lat="48.13488" lon="6.99878">
        <ele>868</ele>
        <time>2015-05-16T13:47:42.713Z</time>
      </trkpt>
      <trkpt lat="48.13534" lon="6.99891">
        <ele>853</ele>
        <time>2015-05-16T13:48:27.71Z</time>
      </trkpt>
      <trkpt lat="48.1358" lon="6.99897">
        <ele>847</ele>
        <time>2015-05-16T13:49:01.71Z</time>
      </trkpt>
      <trkpt lat="48.13639" lon="6.99917">
        <ele>839</ele>
        <time>2015-05-16T13:49:54.71Z</time>
      </trkpt>
      <trkpt lat="48.13639" lon="6.99912">
        <ele>839</ele>
        <time>2015-05-16T13:50:54.713Z</time>
      </trkpt>
      <trkpt lat="48.13639" lon="6.99912">
        <ele>839</ele>
        <time>2015-05-16T13:51:54.713Z</time>
      </trkpt>
      <trkpt lat="48.13683" lon="6.99954">
        <ele>832</ele>
        <time>2015-05-16T13:52:39.708Z</time>
      </trkpt>
      <trkpt lat="48.13696" lon="6.99962">
        <ele>831</ele>
        <time>2015-05-16T13:53:39.711Z</time>
      </trkpt>
      <trkpt lat="48.137" lon="6.99915">
        <ele>831</ele>
        <time>2015-05-16T13:54:40.705Z</time>
      </trkpt>
      <trkpt lat="48.13739" lon="6.99867">
        <ele>829</ele>
        <time>2015-05-16T13:55:06.706Z</time>
      </trkpt>
      <trkpt lat="48.13752" lon="6.99881">
        <ele>827</ele>
        <time>2015-05-16T13:55:49.713Z</time>
      </trkpt>
      <trkpt lat="48.13799" lon="6.9989">
        <ele>828</ele>
        <time>2015-05-16T13:56:43.709Z</time>
      </trkpt>
      <trkpt lat="48.13847" lon="6.99926">
        <ele>828</ele>
        <time>2015-05-16T13:57:37.706Z</time>
      </trkpt>
      <trkpt lat="48.13861" lon="6.99919">
        <ele>830</ele>
        <time>2015-05-16T13:57:50.71Z</time>
      </trkpt>
      <trkpt lat="48.13876" lon="6.99924">
        <ele>832</ele>
        <time>2015-05-16T13:58:00.709Z</time>
      </trkpt>
      <trkpt lat="48.13903" lon="6.99924">
        <ele>837</ele>
        <time>2015-05-16T13:58:24.71Z</time>
      </trkpt>
      <trkpt lat="48.13918" lon="6.9993">
        <ele>843</ele>
        <time>2015-05-16T13:58:36.701Z</time>
      </trkpt>
      <trkpt lat="48.13973" lon="6.99959">
        <ele>843</ele>
        <time>2015-05-16T13:59:35.71Z</time>
      </trkpt>
      <trkpt lat="48.14018" lon="6.99965">
        <ele>849</ele>
        <time>2015-05-16T14:00:16.71Z</time>
      </trkpt>
      <trkpt lat="48.14049" lon="6.99973">
        <ele>850</ele>
        <time>2015-05-16T14:00:37.706Z</time>
      </trkpt>
      <trkpt lat="48.14097" lon="6.99968">
        <ele>854</ele>
        <time>2015-05-16T14:01:26.708Z</time>
      </trkpt>
      <trkpt lat="48.14127" lon="6.99972">
        <ele>855</ele>
        <time>2015-05-16T14:01:41.706Z</time>
      </trkpt>
      <trkpt lat="48.14142" lon="6.99967">
        <ele>855</ele>
        <time>2015-05-16T14:01:56.706Z</time>
      </trkpt>
      <trkpt lat="48.14159" lon="6.99969">
        <ele>855</ele>
        <time>2015-05-16T14:02:15.705Z</time>
      </trkpt>
      <trkpt lat="48.14203" lon="6.99954">
        <ele>860</ele>
        <time>2015-05-16T14:02:54.705Z</time>
      </trkpt>
      <trkpt lat="48.14248" lon="6.99946">
        <ele>863</ele>
        <time>2015-05-16T14:03:34.709Z</time>
      </trkpt>
      <trkpt lat="48.14265" lon="6.99919">
        <ele>868</ele>
        <time>2015-05-16T14:04:34.71Z</time>
      </trkpt>
      <trkpt lat="48.14256" lon="6.99918">
        <ele>867</ele>
        <time>2015-05-16T14:05:34.713Z</time>
      </trkpt>
      <trkpt lat="48.14255" lon="6.99916">
        <ele>867</ele>
        <time>2015-05-16T14:06:35.71Z</time>
      </trkpt>
      <trkpt lat="48.14276" lon="6.99913">
        <ele>869</ele>
        <time>2015-05-16T14:07:25.714Z</time>
      </trkpt>
      <trkpt lat="48.14238" lon="6.99873">
        <ele>863</ele>
        <time>2015-05-16T14:08:08.71Z</time>
      </trkpt>
      <trkpt lat="48.14205" lon="6.99853">
        <ele>863</ele>
        <time>2015-05-16T14:09:08.714Z</time>
      </trkpt>
      <trkpt lat="48.14215" lon="6.99839">
        <ele>863</ele>
        <time>2015-05-16T14:09:19.715Z</time>
      </trkpt>
      <trkpt lat="48.14248" lon="6.99793">
        <ele>860</ele>
        <time>2015-05-16T14:10:04.709Z</time>
      </trkpt>
      <trkpt lat="48.14281" lon="6.99721">
        <ele>857</ele>
        <time>2015-05-16T14:11:05.705Z</time>
      </trkpt>
      <trkpt lat="48.1431" lon="6.99653">
        <ele>850</ele>
        <time>2015-05-16T14:11:50.705Z</time>
      </trkpt>
      <trkpt lat="48.14315" lon="6.99633">
        <ele>848</ele>
        <time>2015-05-16T14:12:02.703Z</time>
      </trkpt>
      <trkpt lat="48.14341" lon="6.99594">
        <ele>844</ele>
        <time>2015-05-16T14:12:33.7Z</time>
      </trkpt>
      <trkpt lat="48.14345" lon="6.99582">
        <ele>837</ele>
        <time>2015-05-16T14:13:33.705Z</time>
      </trkpt>
      <trkpt lat="48.14331" lon="6.99519">
        <ele>826</ele>
        <time>2015-05-16T14:14:34.701Z</time>
      </trkpt>
      <trkpt lat="48.14345" lon="6.99454">
        <ele>807</ele>
        <time>2015-05-16T14:15:32.703Z</time>
      </trkpt>
      <trkpt lat="48.14355" lon="6.99388">
        <ele>786</ele>
        <time>2015-05-16T14:16:22.703Z</time>
      </trkpt>
      <trkpt lat="48.14357" lon="6.99343">
        <ele>779</ele>
        <time>2015-05-16T14:17:22.708Z</time>
      </trkpt>
      <trkpt lat="48.14383" lon="6.99273">
        <ele>759</ele>
        <time>2015-05-16T14:18:09.701Z</time>
      </trkpt>
      <trkpt lat="48.14396" lon="6.99222">
        <ele>744</ele>
        <time>2015-05-16T14:18:43.701Z</time>
      </trkpt>
      <trkpt lat="48.14397" lon="6.99216">
        <ele>743</ele>
        <time>2015-05-16T14:19:43.701Z</time>
      </trkpt>
      <trkpt lat="48.14391" lon="6.99217">
        <ele>743</ele>
        <time>2015-05-16T14:20:43.705Z</time>
      </trkpt>
      <trkpt lat="48.14394" lon="6.99211">
        <ele>742</ele>
        <time>2015-05-16T14:21:43.706Z</time>
      </trkpt>
      <trkpt lat="48.14398" lon="6.99212">
        <ele>743</ele>
        <time>2015-05-16T14:22:43.706Z</time>
      </trkpt>
      <trkpt lat="48.14405" lon="6.9921">
        <ele>742</ele>
        <time>2015-05-16T14:23:44.701Z</time>
      </trkpt>
      <trkpt lat="48.14441" lon="6.99153">
        <ele>734</ele>
        <time>2015-05-16T14:24:28.701Z</time>
      </trkpt>
      <trkpt lat="48.14452" lon="6.9914">
        <ele>733</ele>
        <time>2015-05-16T14:24:38.701Z</time>
      </trkpt>
      <trkpt lat="48.1449" lon="6.99101">
        <ele>730</ele>
        <time>2015-05-16T14:25:14.703Z</time>
      </trkpt>
      <trkpt lat="48.14504" lon="6.99095">
        <ele>733</ele>
        <time>2015-05-16T14:25:25.701Z</time>
      </trkpt>
      <trkpt lat="48.14535" lon="6.99064">
        <ele>724</ele>
        <time>2015-05-16T14:25:49.701Z</time>
      </trkpt>
      <trkpt lat="48.14548" lon="6.99057">
        <ele>724</ele>
        <time>2015-05-16T14:25:58.701Z</time>
      </trkpt>
      <trkpt lat="48.14568" lon="6.99038">
        <ele>723</ele>
        <time>2015-05-16T14:26:12.701Z</time>
      </trkpt>
      <trkpt lat="48.14584" lon="6.99022">
        <ele>726</ele>
        <time>2015-05-16T14:26:28.701Z</time>
      </trkpt>
      <trkpt lat="48.14605" lon="6.99001">
        <ele>726</ele>
        <time>2015-05-16T14:26:47.701Z</time>
      </trkpt>
      <trkpt lat="48.14642" lon="6.98971">
        <ele>712</ele>
        <time>2015-05-16T14:27:14.701Z</time>
      </trkpt>
      <trkpt lat="48.14657" lon="6.98962">
        <ele>711</ele>
        <time>2015-05-16T14:27:26.703Z</time>
      </trkpt>
      <trkpt lat="48.14673" lon="6.98961">
        <ele>711</ele>
        <time>2015-05-16T14:27:43.7Z</time>
      </trkpt>
      <trkpt lat="48.14687" lon="6.98954">
        <ele>709</ele>
        <time>2015-05-16T14:27:52.7Z</time>
      </trkpt>
      <trkpt lat="48.14703" lon="6.98949">
        <ele>708</ele>
        <time>2015-05-16T14:28:52.701Z</time>
      </trkpt>
      <trkpt lat="48.14703" lon="6.98949">
        <ele>708</ele>
        <time>2015-05-16T14:29:52.71Z</time>
      </trkpt>
      <trkpt lat="48.1469" lon="6.98954">
        <ele>709</ele>
        <time>2015-05-16T14:30:10.699Z</time>
      </trkpt>
      <trkpt lat="48.14675" lon="6.98952">
        <ele>709</ele>
        <time>2015-05-16T14:30:24.701Z</time>
      </trkpt>
      <trkpt lat="48.14662" lon="6.98961">
        <ele>711</ele>
        <time>2015-05-16T14:30:35.7Z</time>
      </trkpt>
      <trkpt lat="48.14646" lon="6.98967">
        <ele>712</ele>
        <time>2015-05-16T14:30:48.703Z</time>
      </trkpt>
      <trkpt lat="48.14608" lon="6.9899">
        <ele>713</ele>
        <time>2015-05-16T14:31:21.7Z</time>
      </trkpt>
      <trkpt lat="48.14582" lon="6.99015">
        <ele>720</ele>
        <time>2015-05-16T14:31:46.701Z</time>
      </trkpt>
      <trkpt lat="48.14571" lon="6.99029">
        <ele>721</ele>
        <time>2015-05-16T14:31:57.7Z</time>
      </trkpt>
      <trkpt lat="48.14556" lon="6.99036">
        <ele>722</ele>
        <time>2015-05-16T14:32:11.7Z</time>
      </trkpt>
      <trkpt lat="48.14544" lon="6.99048">
        <ele>723</ele>
        <time>2015-05-16T14:32:23.701Z</time>
      </trkpt>
      <trkpt lat="48.14516" lon="6.99067">
        <ele>723</ele>
        <time>2015-05-16T14:32:48.703Z</time>
      </trkpt>
      <trkpt lat="48.14506" lon="6.99081">
        <ele>725</ele>
        <time>2015-05-16T14:33:01.703Z</time>
      </trkpt>
      <trkpt lat="48.14482" lon="6.99102">
        <ele>730</ele>
        <time>2015-05-16T14:33:24.701Z</time>
      </trkpt>
      <trkpt lat="48.1447" lon="6.99112">
        <ele>731</ele>
        <time>2015-05-16T14:33:34.7Z</time>
      </trkpt>
      <trkpt lat="48.14446" lon="6.99132">
        <ele>732</ele>
        <time>2015-05-16T14:33:58.701Z</time>
      </trkpt>
      <trkpt lat="48.14403" lon="6.99188">
        <ele>740</ele>
        <time>2015-05-16T14:34:51.701Z</time>
      </trkpt>
      <trkpt lat="48.14382" lon="6.99194">
        <ele>740</ele>
        <time>2015-05-16T14:35:11.701Z</time>
      </trkpt>
      <trkpt lat="48.14362" lon="6.992">
        <ele>740</ele>
        <time>2015-05-16T14:35:29.7Z</time>
      </trkpt>
      <trkpt lat="48.14361" lon="6.99211">
        <ele>741</ele>
        <time>2015-05-16T14:36:29.705Z</time>
      </trkpt>
      <trkpt lat="48.14388" lon="6.9917">
        <ele>738</ele>
        <time>2015-05-16T14:37:30.7Z</time>
      </trkpt>
      <trkpt lat="48.14408" lon="6.99107">
        <ele>723</ele>
        <time>2015-05-16T14:38:10.701Z</time>
      </trkpt>
      <trkpt lat="48.14434" lon="6.99051">
        <ele>713</ele>
        <time>2015-05-16T14:39:10.7Z</time>
      </trkpt>
      <trkpt lat="48.14439" lon="6.98997">
        <ele>696</ele>
        <time>2015-05-16T14:40:05.699Z</time>
      </trkpt>
      <trkpt lat="48.14395" lon="6.98976">
        <ele>692</ele>
        <time>2015-05-16T14:40:52.7Z</time>
      </trkpt>
      <trkpt lat="48.14431" lon="6.98931">
        <ele>687</ele>
        <time>2015-05-16T14:41:45.7Z</time>
      </trkpt>
      <trkpt lat="48.14456" lon="6.98892">
        <ele>677</ele>
        <time>2015-05-16T14:42:22.7Z</time>
      </trkpt>
      <trkpt lat="48.1449" lon="6.98846">
        <ele>672</ele>
        <time>2015-05-16T14:43:05.699Z</time>
      </trkpt>
      <trkpt lat="48.14515" lon="6.98823">
        <ele>666</ele>
        <time>2015-05-16T14:43:31.7Z</time>
      </trkpt>
      <trkpt lat="48.14527" lon="6.98808">
        <ele>664</ele>
        <time>2015-05-16T14:43:40.701Z</time>
      </trkpt>
      <trkpt lat="48.1457" lon="6.98769">
        <ele>660</ele>
        <time>2015-05-16T14:44:35.7Z</time>
      </trkpt>
      <trkpt lat="48.14609" lon="6.98734">
        <ele>647</ele>
        <time>2015-05-16T14:45:33.699Z</time>
      </trkpt>
      <trkpt lat="48.14652" lon="6.98716">
        <ele>644</ele>
        <time>2015-05-16T14:46:28.701Z</time>
      </trkpt>
      <trkpt lat="48.14693" lon="6.98689">
        <ele>636</ele>
        <time>2015-05-16T14:47:28.703Z</time>
      </trkpt>
      <trkpt lat="48.14659" lon="6.98641">
        <ele>624</ele>
        <time>2015-05-16T14:48:10.701Z</time>
      </trkpt>
      <trkpt lat="48.14654" lon="6.98636">
        <ele>623</ele>
        <time>2015-05-16T14:49:10.705Z</time>
      </trkpt>
      <trkpt lat="48.14625" lon="6.98624">
        <ele>621</ele>
        <time>2015-05-16T14:49:39.7Z</time>
      </trkpt>
      <trkpt lat="48.14603" lon="6.98631">
        <ele>622</ele>
        <time>2015-05-16T14:50:39.704Z</time>
      </trkpt>
      <trkpt lat="48.14607" lon="6.98635">
        <ele>623</ele>
        <time>2015-05-16T14:51:40.708Z</time>
      </trkpt>
      <trkpt lat="48.14595" lon="6.9862">
        <ele>620</ele>
        <time>2015-05-16T14:52:41.704Z</time>
      </trkpt>
      <trkpt lat="48.14601" lon="6.98634">
        <ele>623</ele>
        <time>2015-05-16T14:53:41.704Z</time>
      </trkpt>
      <trkpt lat="48.14586" lon="6.98638">
        <ele>624</ele>
        <time>2015-05-16T14:53:48.703Z</time>
      </trkpt>
      <trkpt lat="48.14589" lon="6.98631">
        <ele>623</ele>
        <time>2015-05-16T14:54:48.711Z</time>
      </trkpt>
      <trkpt lat="48.14566" lon="6.98642">
        <ele>624</ele>
        <time>2015-05-16T14:55:28.705Z</time>
      </trkpt>
      <trkpt lat="48.14553" lon="6.98651">
        <ele>624</ele>
        <time>2015-05-16T14:55:40.705Z</time>
      </trkpt>
      <trkpt lat="48.14539" lon="6.98645">
        <ele>623</ele>
        <time>2015-05-16T14:55:53.705Z</time>
      </trkpt>
      <trkpt lat="48.1455" lon="6.98632">
        <ele>621</ele>
        <time>2015-05-16T14:56:34.705Z</time>
      </trkpt>
      <trkpt lat="48.14559" lon="6.98615">
        <ele>619</ele>
        <time>2015-05-16T14:56:44.706Z</time>
      </trkpt>
      <trkpt lat="48.14549" lon="6.986">
        <ele>617</ele>
        <time>2015-05-16T14:56:55.715Z</time>
      </trkpt>
      <trkpt lat="48.14532" lon="6.98609">
        <ele>618</ele>
        <time>2015-05-16T14:57:26.706Z</time>
      </trkpt>
      <trkpt lat="48.14516" lon="6.98615">
        <ele>618</ele>
        <time>2015-05-16T14:57:47.705Z</time>
      </trkpt>
      <trkpt lat="48.14489" lon="6.98637">
        <ele>623</ele>
        <time>2015-05-16T14:58:36.705Z</time>
      </trkpt>
      <trkpt lat="48.1449" lon="6.98658">
        <ele>626</ele>
        <time>2015-05-16T14:58:45.703Z</time>
      </trkpt>
      <trkpt lat="48.14481" lon="6.98673">
        <ele>634</ele>
        <time>2015-05-16T14:59:21.705Z</time>
      </trkpt>
      <trkpt lat="48.14497" lon="6.98673">
        <ele>631</ele>
        <time>2015-05-16T15:00:08.703Z</time>
      </trkpt>
      <trkpt lat="48.14499" lon="6.98652">
        <ele>625</ele>
        <time>2015-05-16T15:00:32.705Z</time>
      </trkpt>
      <trkpt lat="48.14485" lon="6.98643">
        <ele>624</ele>
        <time>2015-05-16T15:00:38.7Z</time>
      </trkpt>
      <trkpt lat="48.14494" lon="6.98626">
        <ele>621</ele>
        <time>2015-05-16T15:00:43.703Z</time>
      </trkpt>
      <trkpt lat="48.14512" lon="6.98594">
        <ele>615</ele>
        <time>2015-05-16T15:01:10.705Z</time>
      </trkpt>
      <trkpt lat="48.14518" lon="6.98574">
        <ele>605</ele>
        <time>2015-05-16T15:01:21.704Z</time>
      </trkpt>
      <trkpt lat="48.14533" lon="6.98491">
        <ele>589</ele>
        <time>2015-05-16T15:02:16.703Z</time>
      </trkpt>
      <trkpt lat="48.14546" lon="6.98444">
        <ele>585</ele>
        <time>2015-05-16T15:03:16.703Z</time>
      </trkpt>
      <trkpt lat="48.14561" lon="6.98419">
        <ele>581</ele>
        <time>2015-05-16T15:03:35.704Z</time>
      </trkpt>
      <trkpt lat="48.14558" lon="6.98394">
        <ele>573</ele>
        <time>2015-05-16T15:04:08.703Z</time>
      </trkpt>
      <trkpt lat="48.14558" lon="6.98357">
        <ele>569</ele>
        <time>2015-05-16T15:05:08.705Z</time>
      </trkpt>
      <trkpt lat="48.14564" lon="6.98337">
        <ele>565</ele>
        <time>2015-05-16T15:06:09.701Z</time>
      </trkpt>
      <trkpt lat="48.14581" lon="6.98327">
        <ele>556</ele>
        <time>2015-05-16T15:06:34.703Z</time>
      </trkpt>
      <trkpt lat="48.14584" lon="6.98303">
        <ele>549</ele>
        <time>2015-05-16T15:06:53.7Z</time>
      </trkpt>
      <trkpt lat="48.14573" lon="6.98288">
        <ele>554</ele>
        <time>2015-05-16T15:07:03.709Z</time>
      </trkpt>
      <trkpt lat="48.14564" lon="6.98271">
        <ele>553</ele>
        <time>2015-05-16T15:07:21.701Z</time>
      </trkpt>
      <trkpt lat="48.14578" lon="6.98271">
        <ele>551</ele>
        <time>2015-05-16T15:08:02.7Z</time>
      </trkpt>
      <trkpt lat="48.14596" lon="6.98264">
        <ele>544</ele>
        <time>2015-05-16T15:08:16.7Z</time>
      </trkpt>
      <trkpt lat="48.14615" lon="6.98252">
        <ele>544</ele>
        <time>2015-05-16T15:08:33.701Z</time>
      </trkpt>
      <trkpt lat="48.14609" lon="6.98233">
        <ele>538</ele>
        <time>2015-05-16T15:08:55.701Z</time>
      </trkpt>
      <trkpt lat="48.14595" lon="6.98224">
        <ele>538</ele>
        <time>2015-05-16T15:09:06.701Z</time>
      </trkpt>
      <trkpt lat="48.14575" lon="6.98197">
        <ele>544</ele>
        <time>2015-05-16T15:09:27.701Z</time>
      </trkpt>
      <trkpt lat="48.14562" lon="6.98191">
        <ele>544</ele>
        <time>2015-05-16T15:09:37.703Z</time>
      </trkpt>
      <trkpt lat="48.1455" lon="6.98183">
        <ele>545</ele>
        <time>2015-05-16T15:09:49.701Z</time>
      </trkpt>
      <trkpt lat="48.14539" lon="6.98162">
        <ele>541</ele>
        <time>2015-05-16T15:10:08.705Z</time>
      </trkpt>
      <trkpt lat="48.13872" lon="6.9666">
        <ele>548</ele>
        <time>2015-05-17T08:42:11.598Z</time>
      </trkpt>
      <trkpt lat="48.13877" lon="6.96659">
        <ele>548</ele>
        <time>2015-05-17T08:43:11.601Z</time>
      </trkpt>
      <trkpt lat="48.13886" lon="6.96656">
        <ele>547</ele>
        <time>2015-05-17T08:44:11.606Z</time>
      </trkpt>
      <trkpt lat="48.13896" lon="6.96639">
        <ele>547</ele>
        <time>2015-05-17T08:45:05.601Z</time>
      </trkpt>
      <trkpt lat="48.13898" lon="6.96619">
        <ele>547</ele>
        <time>2015-05-17T08:45:22.603Z</time>
      </trkpt>
      <trkpt lat="48.13906" lon="6.96601">
        <ele>547</ele>
        <time>2015-05-17T08:45:31.603Z</time>
      </trkpt>
      <trkpt lat="48.13929" lon="6.96553">
        <ele>553</ele>
        <time>2015-05-17T08:46:32.603Z</time>
      </trkpt>
      <trkpt lat="48.13971" lon="6.96524">
        <ele>559</ele>
        <time>2015-05-17T08:47:28.603Z</time>
      </trkpt>
      <trkpt lat="48.14006" lon="6.9654">
        <ele>569</ele>
        <time>2015-05-17T08:48:28.603Z</time>
      </trkpt>
      <trkpt lat="48.14048" lon="6.96527">
        <ele>575</ele>
        <time>2015-05-17T08:49:28.603Z</time>
      </trkpt>
      <trkpt lat="48.1406" lon="6.96516">
        <ele>579</ele>
        <time>2015-05-17T08:49:35.601Z</time>
      </trkpt>
      <trkpt lat="48.14085" lon="6.96508">
        <ele>592</ele>
        <time>2015-05-17T08:50:35.606Z</time>
      </trkpt>
      <trkpt lat="48.14095" lon="6.96513">
        <ele>592</ele>
        <time>2015-05-17T08:51:35.606Z</time>
      </trkpt>
      <trkpt lat="48.14111" lon="6.96537">
        <ele>592</ele>
        <time>2015-05-17T08:52:35.606Z</time>
      </trkpt>
      <trkpt lat="48.14151" lon="6.96571">
        <ele>594</ele>
        <time>2015-05-17T08:53:28.601Z</time>
      </trkpt>
      <trkpt lat="48.1419" lon="6.96608">
        <ele>600</ele>
        <time>2015-05-17T08:54:18.601Z</time>
      </trkpt>
      <trkpt lat="48.14226" lon="6.9665">
        <ele>602</ele>
        <time>2015-05-17T08:55:04.601Z</time>
      </trkpt>
      <trkpt lat="48.14235" lon="6.96658">
        <ele>603</ele>
        <time>2015-05-17T08:56:04.61Z</time>
      </trkpt>
      <trkpt lat="48.14256" lon="6.96643">
        <ele>620</ele>
        <time>2015-05-17T08:57:05.601Z</time>
      </trkpt>
      <trkpt lat="48.14267" lon="6.96629">
        <ele>624</ele>
        <time>2015-05-17T08:58:05.605Z</time>
      </trkpt>
      <trkpt lat="48.14307" lon="6.96592">
        <ele>635</ele>
        <time>2015-05-17T08:59:03.601Z</time>
      </trkpt>
      <trkpt lat="48.14314" lon="6.96559">
        <ele>645</ele>
        <time>2015-05-17T09:00:03.605Z</time>
      </trkpt>
      <trkpt lat="48.14314" lon="6.96559">
        <ele>645</ele>
        <time>2015-05-17T09:01:04.605Z</time>
      </trkpt>
      <trkpt lat="48.14313" lon="6.965">
        <ele>651</ele>
        <time>2015-05-17T09:02:05.6Z</time>
      </trkpt>
      <trkpt lat="48.14323" lon="6.96472">
        <ele>660</ele>
        <time>2015-05-17T09:03:05.6Z</time>
      </trkpt>
      <trkpt lat="48.14317" lon="6.96451">
        <ele>662</ele>
        <time>2015-05-17T09:04:05.605Z</time>
      </trkpt>
      <trkpt lat="48.14313" lon="6.96425">
        <ele>666</ele>
        <time>2015-05-17T09:05:06.601Z</time>
      </trkpt>
      <trkpt lat="48.14299" lon="6.96376">
        <ele>674</ele>
        <time>2015-05-17T09:06:06.605Z</time>
      </trkpt>
      <trkpt lat="48.14323" lon="6.96343">
        <ele>684</ele>
        <time>2015-05-17T09:07:07.6Z</time>
      </trkpt>
      <trkpt lat="48.1433" lon="6.96286">
        <ele>695</ele>
        <time>2015-05-17T09:08:07.605Z</time>
      </trkpt>
      <trkpt lat="48.14328" lon="6.96264">
        <ele>702</ele>
        <time>2015-05-17T09:09:08.6Z</time>
      </trkpt>
      <trkpt lat="48.14331" lon="6.96254">
        <ele>708</ele>
        <time>2015-05-17T09:10:08.6Z</time>
      </trkpt>
      <trkpt lat="48.14333" lon="6.96239">
        <ele>709</ele>
        <time>2015-05-17T09:11:08.605Z</time>
      </trkpt>
      <trkpt lat="48.14333" lon="6.96239">
        <ele>709</ele>
        <time>2015-05-17T09:12:09.603Z</time>
      </trkpt>
      <trkpt lat="48.14333" lon="6.96239">
        <ele>709</ele>
        <time>2015-05-17T09:13:09.605Z</time>
      </trkpt>
      <trkpt lat="48.14333" lon="6.96239">
        <ele>709</ele>
        <time>2015-05-17T09:14:09.605Z</time>
      </trkpt>
      <trkpt lat="48.14322" lon="6.96216">
        <ele>707</ele>
        <time>2015-05-17T09:14:24.603Z</time>
      </trkpt>
      <trkpt lat="48.14308" lon="6.9615">
        <ele>716</ele>
        <time>2015-05-17T09:15:08.6Z</time>
      </trkpt>
      <trkpt lat="48.14279" lon="6.96134">
        <ele>711</ele>
        <time>2015-05-17T09:15:24.601Z</time>
      </trkpt>
      <trkpt lat="48.14257" lon="6.9608">
        <ele>710</ele>
        <time>2015-05-17T09:15:51.601Z</time>
      </trkpt>
      <trkpt lat="48.14243" lon="6.96049">
        <ele>705</ele>
        <time>2015-05-17T09:16:52.6Z</time>
      </trkpt>
      <trkpt lat="48.14245" lon="6.95976">
        <ele>721</ele>
        <time>2015-05-17T09:17:52.6Z</time>
      </trkpt>
      <trkpt lat="48.14254" lon="6.9596">
        <ele>734</ele>
        <time>2015-05-17T09:18:14.6Z</time>
      </trkpt>
      <trkpt lat="48.14266" lon="6.95899">
        <ele>743</ele>
        <time>2015-05-17T09:19:01.603Z</time>
      </trkpt>
      <trkpt lat="48.14259" lon="6.95879">
        <ele>746</ele>
        <time>2015-05-17T09:19:10.6Z</time>
      </trkpt>
      <trkpt lat="48.1424" lon="6.95873">
        <ele>738</ele>
        <time>2015-05-17T09:20:10.603Z</time>
      </trkpt>
      <trkpt lat="48.14217" lon="6.95855">
        <ele>739</ele>
        <time>2015-05-17T09:20:59.6Z</time>
      </trkpt>
      <trkpt lat="48.14182" lon="6.9582">
        <ele>749</ele>
        <time>2015-05-17T09:21:59.606Z</time>
      </trkpt>
      <trkpt lat="48.14149" lon="6.95787">
        <ele>752</ele>
        <time>2015-05-17T09:23:00.599Z</time>
      </trkpt>
      <trkpt lat="48.14108" lon="6.95752">
        <ele>755</ele>
        <time>2015-05-17T09:23:43.6Z</time>
      </trkpt>
      <trkpt lat="48.14079" lon="6.95709">
        <ele>757</ele>
        <time>2015-05-17T09:24:43.603Z</time>
      </trkpt>
      <trkpt lat="48.14078" lon="6.9571">
        <ele>757</ele>
        <time>2015-05-17T09:25:43.605Z</time>
      </trkpt>
      <trkpt lat="48.14079" lon="6.95714">
        <ele>757</ele>
        <time>2015-05-17T09:26:44.601Z</time>
      </trkpt>
      <trkpt lat="48.14078" lon="6.95687">
        <ele>762</ele>
        <time>2015-05-17T09:27:45.6Z</time>
      </trkpt>
      <trkpt lat="48.14072" lon="6.9565">
        <ele>769</ele>
        <time>2015-05-17T09:28:14.6Z</time>
      </trkpt>
      <trkpt lat="48.14068" lon="6.95607">
        <ele>771</ele>
        <time>2015-05-17T09:29:14.605Z</time>
      </trkpt>
      <trkpt lat="48.1406" lon="6.95571">
        <ele>779</ele>
        <time>2015-05-17T09:29:48.603Z</time>
      </trkpt>
      <trkpt lat="48.14064" lon="6.95551">
        <ele>780</ele>
        <time>2015-05-17T09:30:03.609Z</time>
      </trkpt>
      <trkpt lat="48.14073" lon="6.9548">
        <ele>797</ele>
        <time>2015-05-17T09:30:51.6Z</time>
      </trkpt>
      <trkpt lat="48.14072" lon="6.95413">
        <ele>811</ele>
        <time>2015-05-17T09:31:48.595Z</time>
      </trkpt>
      <trkpt lat="48.14069" lon="6.95344">
        <ele>814</ele>
        <time>2015-05-17T09:32:34.6Z</time>
      </trkpt>
      <trkpt lat="48.14068" lon="6.95311">
        <ele>818</ele>
        <time>2015-05-17T09:32:53.6Z</time>
      </trkpt>
      <trkpt lat="48.14067" lon="6.95287">
        <ele>819</ele>
        <time>2015-05-17T09:33:07.6Z</time>
      </trkpt>
      <trkpt lat="48.1406" lon="6.95223">
        <ele>828</ele>
        <time>2015-05-17T09:34:02.6Z</time>
      </trkpt>
      <trkpt lat="48.14049" lon="6.9516">
        <ele>835</ele>
        <time>2015-05-17T09:35:03.599Z</time>
      </trkpt>
      <trkpt lat="48.14038" lon="6.95113">
        <ele>835</ele>
        <time>2015-05-17T09:36:03.603Z</time>
      </trkpt>
      <trkpt lat="48.14041" lon="6.95095">
        <ele>836</ele>
        <time>2015-05-17T09:37:03.604Z</time>
      </trkpt>
      <trkpt lat="48.1404" lon="6.95095">
        <ele>836</ele>
        <time>2015-05-17T09:38:04.599Z</time>
      </trkpt>
      <trkpt lat="48.14023" lon="6.95055">
        <ele>838</ele>
        <time>2015-05-17T09:39:04.605Z</time>
      </trkpt>
      <trkpt lat="48.14001" lon="6.9504">
        <ele>839</ele>
        <time>2015-05-17T09:40:04.608Z</time>
      </trkpt>
      <trkpt lat="48.13972" lon="6.95033">
        <ele>848</ele>
        <time>2015-05-17T09:41:05.605Z</time>
      </trkpt>
      <trkpt lat="48.1397" lon="6.95032">
        <ele>848</ele>
        <time>2015-05-17T09:42:06.603Z</time>
      </trkpt>
      <trkpt lat="48.13968" lon="6.95033">
        <ele>849</ele>
        <time>2015-05-17T09:43:07.605Z</time>
      </trkpt>
      <trkpt lat="48.13953" lon="6.95042">
        <ele>849</ele>
        <time>2015-05-17T09:44:07.608Z</time>
      </trkpt>
      <trkpt lat="48.13902" lon="6.95046">
        <ele>859</ele>
        <time>2015-05-17T09:44:43.6Z</time>
      </trkpt>
      <trkpt lat="48.13864" lon="6.95027">
        <ele>864</ele>
        <time>2015-05-17T09:45:18.598Z</time>
      </trkpt>
      <trkpt lat="48.13844" lon="6.95026">
        <ele>867</ele>
        <time>2015-05-17T09:45:32.599Z</time>
      </trkpt>
      <trkpt lat="48.13829" lon="6.95031">
        <ele>867</ele>
        <time>2015-05-17T09:45:39.596Z</time>
      </trkpt>
      <trkpt lat="48.13811" lon="6.95048">
        <ele>861</ele>
        <time>2015-05-17T09:45:54.599Z</time>
      </trkpt>
      <trkpt lat="48.13819" lon="6.95053">
        <ele>859</ele>
        <time>2015-05-17T09:46:54.6Z</time>
      </trkpt>
      <trkpt lat="48.1382" lon="6.95053">
        <ele>859</ele>
        <time>2015-05-17T09:47:54.603Z</time>
      </trkpt>
      <trkpt lat="48.13815" lon="6.95047">
        <ele>861</ele>
        <time>2015-05-17T09:48:54.604Z</time>
      </trkpt>
      <trkpt lat="48.13815" lon="6.95047">
        <ele>861</ele>
        <time>2015-05-17T09:49:54.605Z</time>
      </trkpt>
      <trkpt lat="48.13802" lon="6.95041">
        <ele>862</ele>
        <time>2015-05-17T09:50:26.596Z</time>
      </trkpt>
      <trkpt lat="48.1377" lon="6.9503">
        <ele>865</ele>
        <time>2015-05-17T09:51:26.601Z</time>
      </trkpt>
      <trkpt lat="48.13742" lon="6.95023">
        <ele>862</ele>
        <time>2015-05-17T09:51:52.599Z</time>
      </trkpt>
      <trkpt lat="48.13709" lon="6.95012">
        <ele>857</ele>
        <time>2015-05-17T09:52:13.6Z</time>
      </trkpt>
      <trkpt lat="48.13695" lon="6.95005">
        <ele>856</ele>
        <time>2015-05-17T09:52:25.599Z</time>
      </trkpt>
      <trkpt lat="48.13651" lon="6.94949">
        <ele>861</ele>
        <time>2015-05-17T09:53:16.6Z</time>
      </trkpt>
      <trkpt lat="48.13645" lon="6.94929">
        <ele>864</ele>
        <time>2015-05-17T09:53:25.6Z</time>
      </trkpt>
      <trkpt lat="48.13639" lon="6.9491">
        <ele>871</ele>
        <time>2015-05-17T09:53:35.599Z</time>
      </trkpt>
      <trkpt lat="48.13629" lon="6.94882">
        <ele>869</ele>
        <time>2015-05-17T09:53:51.6Z</time>
      </trkpt>
      <trkpt lat="48.13605" lon="6.94844">
        <ele>866</ele>
        <time>2015-05-17T09:54:12.6Z</time>
      </trkpt>
      <trkpt lat="48.13589" lon="6.94826">
        <ele>865</ele>
        <time>2015-05-17T09:54:25.599Z</time>
      </trkpt>
      <trkpt lat="48.13559" lon="6.94788">
        <ele>857</ele>
        <time>2015-05-17T09:54:53.598Z</time>
      </trkpt>
      <trkpt lat="48.13549" lon="6.94774">
        <ele>857</ele>
        <time>2015-05-17T09:55:02.599Z</time>
      </trkpt>
      <trkpt lat="48.13535" lon="6.94761">
        <ele>856</ele>
        <time>2015-05-17T09:55:13.6Z</time>
      </trkpt>
      <trkpt lat="48.13521" lon="6.94744">
        <ele>861</ele>
        <time>2015-05-17T09:55:28.599Z</time>
      </trkpt>
      <trkpt lat="48.13489" lon="6.94709">
        <ele>854</ele>
        <time>2015-05-17T09:56:01.599Z</time>
      </trkpt>
      <trkpt lat="48.13475" lon="6.94697">
        <ele>854</ele>
        <time>2015-05-17T09:56:09.599Z</time>
      </trkpt>
      <trkpt lat="48.13452" lon="6.94683">
        <ele>854</ele>
        <time>2015-05-17T09:56:24.598Z</time>
      </trkpt>
      <trkpt lat="48.13431" lon="6.94675">
        <ele>853</ele>
        <time>2015-05-17T09:56:34.599Z</time>
      </trkpt>
      <trkpt lat="48.13384" lon="6.94658">
        <ele>853</ele>
        <time>2015-05-17T09:57:13.598Z</time>
      </trkpt>
      <trkpt lat="48.13375" lon="6.9464">
        <ele>853</ele>
        <time>2015-05-17T09:57:28.595Z</time>
      </trkpt>
      <trkpt lat="48.13354" lon="6.94605">
        <ele>853</ele>
        <time>2015-05-17T09:57:49.6Z</time>
      </trkpt>
      <trkpt lat="48.13329" lon="6.94597">
        <ele>854</ele>
        <time>2015-05-17T09:58:50.6Z</time>
      </trkpt>
      <trkpt lat="48.1331" lon="6.94584">
        <ele>854</ele>
        <time>2015-05-17T09:59:50.6Z</time>
      </trkpt>
      <trkpt lat="48.13307" lon="6.94561">
        <ele>856</ele>
        <time>2015-05-17T10:00:50.603Z</time>
      </trkpt>
      <trkpt lat="48.13296" lon="6.9454">
        <ele>856</ele>
        <time>2015-05-17T10:01:02.598Z</time>
      </trkpt>
      <trkpt lat="48.13294" lon="6.94518">
        <ele>856</ele>
        <time>2015-05-17T10:01:10.595Z</time>
      </trkpt>
      <trkpt lat="48.13275" lon="6.94484">
        <ele>854</ele>
        <time>2015-05-17T10:01:30.599Z</time>
      </trkpt>
      <trkpt lat="48.13259" lon="6.94473">
        <ele>854</ele>
        <time>2015-05-17T10:01:44.598Z</time>
      </trkpt>
      <trkpt lat="48.13242" lon="6.94445">
        <ele>857</ele>
        <time>2015-05-17T10:02:14.596Z</time>
      </trkpt>
      <trkpt lat="48.1321" lon="6.94418">
        <ele>859</ele>
        <time>2015-05-17T10:02:36.596Z</time>
      </trkpt>
      <trkpt lat="48.13202" lon="6.94401">
        <ele>857</ele>
        <time>2015-05-17T10:02:48.595Z</time>
      </trkpt>
      <trkpt lat="48.13182" lon="6.94384">
        <ele>858</ele>
        <time>2015-05-17T10:03:00.598Z</time>
      </trkpt>
      <trkpt lat="48.13167" lon="6.9437">
        <ele>858</ele>
        <time>2015-05-17T10:03:23.6Z</time>
      </trkpt>
      <trkpt lat="48.13151" lon="6.94361">
        <ele>863</ele>
        <time>2015-05-17T10:03:31.596Z</time>
      </trkpt>
      <trkpt lat="48.13132" lon="6.94363">
        <ele>864</ele>
        <time>2015-05-17T10:03:39.596Z</time>
      </trkpt>
      <trkpt lat="48.13077" lon="6.94371">
        <ele>862</ele>
        <time>2015-05-17T10:04:01.599Z</time>
      </trkpt>
      <trkpt lat="48.13066" lon="6.94364">
        <ele>862</ele>
        <time>2015-05-17T10:05:02.599Z</time>
      </trkpt>
      <trkpt lat="48.13035" lon="6.94316">
        <ele>866</ele>
        <time>2015-05-17T10:05:56.598Z</time>
      </trkpt>
      <trkpt lat="48.13016" lon="6.94254">
        <ele>873</ele>
        <time>2015-05-17T10:06:44.595Z</time>
      </trkpt>
      <trkpt lat="48.12993" lon="6.94195">
        <ele>888</ele>
        <time>2015-05-17T10:07:42.595Z</time>
      </trkpt>
      <trkpt lat="48.1298" lon="6.94186">
        <ele>889</ele>
        <time>2015-05-17T10:07:58.595Z</time>
      </trkpt>
      <trkpt lat="48.12977" lon="6.94161">
        <ele>898</ele>
        <time>2015-05-17T10:08:07.595Z</time>
      </trkpt>
      <trkpt lat="48.12963" lon="6.94166">
        <ele>900</ele>
        <time>2015-05-17T10:08:13.595Z</time>
      </trkpt>
      <trkpt lat="48.12949" lon="6.94146">
        <ele>902</ele>
        <time>2015-05-17T10:08:35.595Z</time>
      </trkpt>
      <trkpt lat="48.12926" lon="6.94132">
        <ele>903</ele>
        <time>2015-05-17T10:09:14.596Z</time>
      </trkpt>
      <trkpt lat="48.12891" lon="6.94135">
        <ele>907</ele>
        <time>2015-05-17T10:09:29.595Z</time>
      </trkpt>
      <trkpt lat="48.12879" lon="6.94125">
        <ele>908</ele>
        <time>2015-05-17T10:09:40.595Z</time>
      </trkpt>
      <trkpt lat="48.12865" lon="6.9412">
        <ele>908</ele>
        <time>2015-05-17T10:09:55.598Z</time>
      </trkpt>
      <trkpt lat="48.12853" lon="6.94109">
        <ele>910</ele>
        <time>2015-05-17T10:10:08.596Z</time>
      </trkpt>
      <trkpt lat="48.12839" lon="6.94107">
        <ele>910</ele>
        <time>2015-05-17T10:10:15.596Z</time>
      </trkpt>
      <trkpt lat="48.12816" lon="6.94094">
        <ele>910</ele>
        <time>2015-05-17T10:10:28.599Z</time>
      </trkpt>
      <trkpt lat="48.12795" lon="6.94075">
        <ele>916</ele>
        <time>2015-05-17T10:10:51.596Z</time>
      </trkpt>
      <trkpt lat="48.12778" lon="6.94054">
        <ele>917</ele>
        <time>2015-05-17T10:11:14.595Z</time>
      </trkpt>
      <trkpt lat="48.12773" lon="6.94036">
        <ele>917</ele>
        <time>2015-05-17T10:11:24.598Z</time>
      </trkpt>
      <trkpt lat="48.12741" lon="6.93974">
        <ele>924</ele>
        <time>2015-05-17T10:12:12.596Z</time>
      </trkpt>
      <trkpt lat="48.12748" lon="6.9399">
        <ele>923</ele>
        <time>2015-05-17T10:13:12.601Z</time>
      </trkpt>
      <trkpt lat="48.12745" lon="6.93985">
        <ele>923</ele>
        <time>2015-05-17T10:14:12.606Z</time>
      </trkpt>
      <trkpt lat="48.12745" lon="6.93985">
        <ele>923</ele>
        <time>2015-05-17T10:15:13.599Z</time>
      </trkpt>
      <trkpt lat="48.12746" lon="6.93985">
        <ele>923</ele>
        <time>2015-05-17T10:16:13.6Z</time>
      </trkpt>
      <trkpt lat="48.12741" lon="6.93986">
        <ele>923</ele>
        <time>2015-05-17T10:17:13.6Z</time>
      </trkpt>
      <trkpt lat="48.12741" lon="6.93986">
        <ele>923</ele>
        <time>2015-05-17T10:18:13.604Z</time>
      </trkpt>
      <trkpt lat="48.12741" lon="6.93985">
        <ele>923</ele>
        <time>2015-05-17T10:19:14.6Z</time>
      </trkpt>
      <trkpt lat="48.12741" lon="6.93985">
        <ele>923</ele>
        <time>2015-05-17T10:20:14.6Z</time>
      </trkpt>
      <trkpt lat="48.12741" lon="6.93985">
        <ele>923</ele>
        <time>2015-05-17T10:21:15.599Z</time>
      </trkpt>
      <trkpt lat="48.12737" lon="6.9399">
        <ele>923</ele>
        <time>2015-05-17T10:22:15.6Z</time>
      </trkpt>
      <trkpt lat="48.12735" lon="6.93991">
        <ele>924</ele>
        <time>2015-05-17T10:23:15.603Z</time>
      </trkpt>
      <trkpt lat="48.12731" lon="6.9397">
        <ele>924</ele>
        <time>2015-05-17T10:23:57.599Z</time>
      </trkpt>
      <trkpt lat="48.12676" lon="6.93961">
        <ele>927</ele>
        <time>2015-05-17T10:24:44.605Z</time>
      </trkpt>
      <trkpt lat="48.12631" lon="6.93957">
        <ele>932</ele>
        <time>2015-05-17T10:25:31.599Z</time>
      </trkpt>
      <trkpt lat="48.12592" lon="6.9395">
        <ele>934</ele>
        <time>2015-05-17T10:25:58.599Z</time>
      </trkpt>
      <trkpt lat="48.12549" lon="6.93927">
        <ele>936</ele>
        <time>2015-05-17T10:26:42.599Z</time>
      </trkpt>
      <trkpt lat="48.12537" lon="6.93918">
        <ele>937</ele>
        <time>2015-05-17T10:26:57.598Z</time>
      </trkpt>
      <trkpt lat="48.1251" lon="6.93906">
        <ele>947</ele>
        <time>2015-05-17T10:27:15.6Z</time>
      </trkpt>
      <trkpt lat="48.12466" lon="6.93887">
        <ele>953</ele>
        <time>2015-05-17T10:27:56.598Z</time>
      </trkpt>
      <trkpt lat="48.12427" lon="6.93876">
        <ele>956</ele>
        <time>2015-05-17T10:28:28.598Z</time>
      </trkpt>
      <trkpt lat="48.1238" lon="6.93878">
        <ele>958</ele>
        <time>2015-05-17T10:29:07.598Z</time>
      </trkpt>
      <trkpt lat="48.12329" lon="6.93874">
        <ele>962</ele>
        <time>2015-05-17T10:29:43.596Z</time>
      </trkpt>
      <trkpt lat="48.12302" lon="6.93869">
        <ele>963</ele>
        <time>2015-05-17T10:30:00.598Z</time>
      </trkpt>
      <trkpt lat="48.1224" lon="6.93887">
        <ele>966</ele>
        <time>2015-05-17T10:30:47.599Z</time>
      </trkpt>
      <trkpt lat="48.12191" lon="6.93908">
        <ele>967</ele>
        <time>2015-05-17T10:31:28.6Z</time>
      </trkpt>
      <trkpt lat="48.12177" lon="6.93901">
        <ele>968</ele>
        <time>2015-05-17T10:31:47.6Z</time>
      </trkpt>
      <trkpt lat="48.12163" lon="6.93896">
        <ele>968</ele>
        <time>2015-05-17T10:32:47.601Z</time>
      </trkpt>
      <trkpt lat="48.12143" lon="6.93877">
        <ele>968</ele>
        <time>2015-05-17T10:33:48.601Z</time>
      </trkpt>
      <trkpt lat="48.12125" lon="6.93867">
        <ele>968</ele>
        <time>2015-05-17T10:34:49.596Z</time>
      </trkpt>
      <trkpt lat="48.12109" lon="6.93859">
        <ele>968</ele>
        <time>2015-05-17T10:35:13.595Z</time>
      </trkpt>
      <trkpt lat="48.12096" lon="6.93847">
        <ele>969</ele>
        <time>2015-05-17T10:36:13.595Z</time>
      </trkpt>
      <trkpt lat="48.12095" lon="6.9386">
        <ele>968</ele>
        <time>2015-05-17T10:37:13.601Z</time>
      </trkpt>
      <trkpt lat="48.1207" lon="6.93848">
        <ele>960</ele>
        <time>2015-05-17T10:38:14.599Z</time>
      </trkpt>
      <trkpt lat="48.12055" lon="6.93823">
        <ele>966</ele>
        <time>2015-05-17T10:39:14.601Z</time>
      </trkpt>
      <trkpt lat="48.1206" lon="6.9379">
        <ele>967</ele>
        <time>2015-05-17T10:39:55.596Z</time>
      </trkpt>
      <trkpt lat="48.12045" lon="6.9378">
        <ele>966</ele>
        <time>2015-05-17T10:40:06.598Z</time>
      </trkpt>
      <trkpt lat="48.12045" lon="6.93781">
        <ele>966</ele>
        <time>2015-05-17T10:41:06.6Z</time>
      </trkpt>
      <trkpt lat="48.12039" lon="6.93763">
        <ele>966</ele>
        <time>2015-05-17T10:41:38.595Z</time>
      </trkpt>
      <trkpt lat="48.1203" lon="6.93742">
        <ele>970</ele>
        <time>2015-05-17T10:41:52.596Z</time>
      </trkpt>
      <trkpt lat="48.12021" lon="6.93698">
        <ele>971</ele>
        <time>2015-05-17T10:42:17.595Z</time>
      </trkpt>
      <trkpt lat="48.12013" lon="6.93679">
        <ele>971</ele>
        <time>2015-05-17T10:42:29.595Z</time>
      </trkpt>
      <trkpt lat="48.12004" lon="6.93661">
        <ele>972</ele>
        <time>2015-05-17T10:42:40.596Z</time>
      </trkpt>
      <trkpt lat="48.11993" lon="6.93634">
        <ele>973</ele>
        <time>2015-05-17T10:43:21.598Z</time>
      </trkpt>
      <trkpt lat="48.11955" lon="6.93627">
        <ele>973</ele>
        <time>2015-05-17T10:43:56.599Z</time>
      </trkpt>
      <trkpt lat="48.11935" lon="6.93628">
        <ele>974</ele>
        <time>2015-05-17T10:44:16.599Z</time>
      </trkpt>
      <trkpt lat="48.11922" lon="6.93635">
        <ele>973</ele>
        <time>2015-05-17T10:44:31.598Z</time>
      </trkpt>
      <trkpt lat="48.11906" lon="6.93652">
        <ele>969</ele>
        <time>2015-05-17T10:44:45.599Z</time>
      </trkpt>
      <trkpt lat="48.11889" lon="6.93666">
        <ele>967</ele>
        <time>2015-05-17T10:44:52.605Z</time>
      </trkpt>
      <trkpt lat="48.11888" lon="6.93686">
        <ele>948</ele>
        <time>2015-05-17T10:45:02.599Z</time>
      </trkpt>
      <trkpt lat="48.11873" lon="6.9369">
        <ele>944</ele>
        <time>2015-05-17T10:45:30.595Z</time>
      </trkpt>
      <trkpt lat="48.11875" lon="6.93696">
        <ele>943</ele>
        <time>2015-05-17T10:46:30.598Z</time>
      </trkpt>
      <trkpt lat="48.11871" lon="6.93692">
        <ele>943</ele>
        <time>2015-05-17T10:47:30.6Z</time>
      </trkpt>
      <trkpt lat="48.11881" lon="6.93694">
        <ele>945</ele>
        <time>2015-05-17T10:48:30.603Z</time>
      </trkpt>
      <trkpt lat="48.11881" lon="6.93694">
        <ele>945</ele>
        <time>2015-05-17T10:49:31.601Z</time>
      </trkpt>
      <trkpt lat="48.11881" lon="6.93694">
        <ele>945</ele>
        <time>2015-05-17T10:50:32.596Z</time>
      </trkpt>
      <trkpt lat="48.11881" lon="6.93694">
        <ele>945</ele>
        <time>2015-05-17T10:51:32.6Z</time>
      </trkpt>
      <trkpt lat="48.11881" lon="6.93694">
        <ele>945</ele>
        <time>2015-05-17T10:52:33.599Z</time>
      </trkpt>
      <trkpt lat="48.11881" lon="6.93694">
        <ele>945</ele>
        <time>2015-05-17T10:53:33.599Z</time>
      </trkpt>
      <trkpt lat="48.11881" lon="6.93694">
        <ele>945</ele>
        <time>2015-05-17T10:54:34.595Z</time>
      </trkpt>
      <trkpt lat="48.11881" lon="6.93694">
        <ele>945</ele>
        <time>2015-05-17T10:55:34.596Z</time>
      </trkpt>
      <trkpt lat="48.11881" lon="6.93694">
        <ele>945</ele>
        <time>2015-05-17T10:56:34.598Z</time>
      </trkpt>
      <trkpt lat="48.11881" lon="6.93694">
        <ele>945</ele>
        <time>2015-05-17T10:57:35.595Z</time>
      </trkpt>
      <trkpt lat="48.1188" lon="6.93693">
        <ele>945</ele>
        <time>2015-05-17T10:58:35.598Z</time>
      </trkpt>
      <trkpt lat="48.1188" lon="6.93693">
        <ele>945</ele>
        <time>2015-05-17T10:59:35.599Z</time>
      </trkpt>
      <trkpt lat="48.1188" lon="6.93693">
        <ele>945</ele>
        <time>2015-05-17T11:00:35.6Z</time>
      </trkpt>
      <trkpt lat="48.1188" lon="6.93693">
        <ele>945</ele>
        <time>2015-05-17T11:01:35.611Z</time>
      </trkpt>
      <trkpt lat="48.1188" lon="6.93693">
        <ele>945</ele>
        <time>2015-05-17T11:02:36.601Z</time>
      </trkpt>
      <trkpt lat="48.1188" lon="6.93693">
        <ele>945</ele>
        <time>2015-05-17T11:03:36.601Z</time>
      </trkpt>
      <trkpt lat="48.1188" lon="6.93693">
        <ele>945</ele>
        <time>2015-05-17T11:04:36.601Z</time>
      </trkpt>
      <trkpt lat="48.1188" lon="6.93693">
        <ele>945</ele>
        <time>2015-05-17T11:05:37.6Z</time>
      </trkpt>
      <trkpt lat="48.11879" lon="6.93693">
        <ele>945</ele>
        <time>2015-05-17T11:06:37.6Z</time>
      </trkpt>
      <trkpt lat="48.11877" lon="6.93696">
        <ele>944</ele>
        <time>2015-05-17T11:07:37.605Z</time>
      </trkpt>
      <trkpt lat="48.11877" lon="6.93696">
        <ele>944</ele>
        <time>2015-05-17T11:08:38.604Z</time>
      </trkpt>
      <trkpt lat="48.11877" lon="6.93696">
        <ele>944</ele>
        <time>2015-05-17T11:09:39.6Z</time>
      </trkpt>
      <trkpt lat="48.11877" lon="6.93696">
        <ele>944</ele>
        <time>2015-05-17T11:10:39.603Z</time>
      </trkpt>
      <trkpt lat="48.11877" lon="6.93696">
        <ele>944</ele>
        <time>2015-05-17T11:11:39.603Z</time>
      </trkpt>
      <trkpt lat="48.11877" lon="6.93696">
        <ele>944</ele>
        <time>2015-05-17T11:12:39.603Z</time>
      </trkpt>
      <trkpt lat="48.11877" lon="6.93696">
        <ele>944</ele>
        <time>2015-05-17T11:13:39.604Z</time>
      </trkpt>
      <trkpt lat="48.11876" lon="6.93695">
        <ele>944</ele>
        <time>2015-05-17T11:14:39.605Z</time>
      </trkpt>
      <trkpt lat="48.11876" lon="6.93695">
        <ele>944</ele>
        <time>2015-05-17T11:15:40.604Z</time>
      </trkpt>
      <trkpt lat="48.11879" lon="6.93695">
        <ele>944</ele>
        <time>2015-05-17T11:16:40.608Z</time>
      </trkpt>
      <trkpt lat="48.11879" lon="6.93695">
        <ele>944</ele>
        <time>2015-05-17T11:17:40.61Z</time>
      </trkpt>
      <trkpt lat="48.11874" lon="6.93697">
        <ele>943</ele>
        <time>2015-05-17T11:18:41.606Z</time>
      </trkpt>
      <trkpt lat="48.11875" lon="6.93696">
        <ele>943</ele>
        <time>2015-05-17T11:19:42.609Z</time>
      </trkpt>
      <trkpt lat="48.11873" lon="6.93697">
        <ele>943</ele>
        <time>2015-05-17T11:20:43.603Z</time>
      </trkpt>
      <trkpt lat="48.11873" lon="6.93697">
        <ele>943</ele>
        <time>2015-05-17T11:21:43.608Z</time>
      </trkpt>
      <trkpt lat="48.11874" lon="6.93697">
        <ele>943</ele>
        <time>2015-05-17T11:22:44.605Z</time>
      </trkpt>
      <trkpt lat="48.11891" lon="6.93684">
        <ele>950</ele>
        <time>2015-05-17T11:23:44.61Z</time>
      </trkpt>
      <trkpt lat="48.11883" lon="6.93716">
        <ele>941</ele>
        <time>2015-05-17T11:24:30.6Z</time>
      </trkpt>
      <trkpt lat="48.11879" lon="6.93735">
        <ele>937</ele>
        <time>2015-05-17T11:25:30.6Z</time>
      </trkpt>
      <trkpt lat="48.11878" lon="6.93734">
        <ele>937</ele>
        <time>2015-05-17T11:26:30.605Z</time>
      </trkpt>
      <trkpt lat="48.11878" lon="6.93734">
        <ele>937</ele>
        <time>2015-05-17T11:27:30.605Z</time>
      </trkpt>
      <trkpt lat="48.1188" lon="6.93736">
        <ele>937</ele>
        <time>2015-05-17T11:28:30.606Z</time>
      </trkpt>
      <trkpt lat="48.11888" lon="6.93724">
        <ele>940</ele>
        <time>2015-05-17T11:29:31.604Z</time>
      </trkpt>
      <trkpt lat="48.11894" lon="6.93685">
        <ele>950</ele>
        <time>2015-05-17T11:30:31.606Z</time>
      </trkpt>
      <trkpt lat="48.11923" lon="6.93653">
        <ele>972</ele>
        <time>2015-05-17T11:31:01.604Z</time>
      </trkpt>
      <trkpt lat="48.11936" lon="6.93656">
        <ele>972</ele>
        <time>2015-05-17T11:31:19.603Z</time>
      </trkpt>
      <trkpt lat="48.11948" lon="6.93648">
        <ele>973</ele>
        <time>2015-05-17T11:31:27.603Z</time>
      </trkpt>
      <trkpt lat="48.11967" lon="6.93631">
        <ele>973</ele>
        <time>2015-05-17T11:31:41.61Z</time>
      </trkpt>
      <trkpt lat="48.11979" lon="6.9361">
        <ele>973</ele>
        <time>2015-05-17T11:31:52.605Z</time>
      </trkpt>
      <trkpt lat="48.1198" lon="6.93588">
        <ele>973</ele>
        <time>2015-05-17T11:32:03.608Z</time>
      </trkpt>
      <trkpt lat="48.11982" lon="6.93521">
        <ele>973</ele>
        <time>2015-05-17T11:32:53.604Z</time>
      </trkpt>
      <trkpt lat="48.11993" lon="6.93456">
        <ele>974</ele>
        <time>2015-05-17T11:33:28.608Z</time>
      </trkpt>
      <trkpt lat="48.12022" lon="6.93416">
        <ele>970</ele>
        <time>2015-05-17T11:33:57.614Z</time>
      </trkpt>
      <trkpt lat="48.12019" lon="6.93395">
        <ele>970</ele>
        <time>2015-05-17T11:34:06.615Z</time>
      </trkpt>
      <trkpt lat="48.12025" lon="6.93374">
        <ele>970</ele>
        <time>2015-05-17T11:34:16.616Z</time>
      </trkpt>
      <trkpt lat="48.12057" lon="6.9332">
        <ele>966</ele>
        <time>2015-05-17T11:35:16.605Z</time>
      </trkpt>
      <trkpt lat="48.12046" lon="6.93289">
        <ele>967</ele>
        <time>2015-05-17T11:35:33.605Z</time>
      </trkpt>
      <trkpt lat="48.12049" lon="6.93268">
        <ele>966</ele>
        <time>2015-05-17T11:36:01.604Z</time>
      </trkpt>
      <trkpt lat="48.12054" lon="6.93249">
        <ele>964</ele>
        <time>2015-05-17T11:36:12.608Z</time>
      </trkpt>
      <trkpt lat="48.12058" lon="6.9318">
        <ele>963</ele>
        <time>2015-05-17T11:37:12.608Z</time>
      </trkpt>
      <trkpt lat="48.12083" lon="6.93123">
        <ele>962</ele>
        <time>2015-05-17T11:37:51.61Z</time>
      </trkpt>
      <trkpt lat="48.12094" lon="6.93057">
        <ele>951</ele>
        <time>2015-05-17T11:38:19.61Z</time>
      </trkpt>
      <trkpt lat="48.12111" lon="6.9304">
        <ele>949</ele>
        <time>2015-05-17T11:38:33.625Z</time>
      </trkpt>
      <trkpt lat="48.12115" lon="6.93019">
        <ele>948</ele>
        <time>2015-05-17T11:38:41.61Z</time>
      </trkpt>
      <trkpt lat="48.12111" lon="6.92999">
        <ele>946</ele>
        <time>2015-05-17T11:38:52.61Z</time>
      </trkpt>
      <trkpt lat="48.12108" lon="6.92966">
        <ele>945</ele>
        <time>2015-05-17T11:39:08.609Z</time>
      </trkpt>
      <trkpt lat="48.12113" lon="6.92946">
        <ele>944</ele>
        <time>2015-05-17T11:39:21.61Z</time>
      </trkpt>
      <trkpt lat="48.1212" lon="6.92928">
        <ele>943</ele>
        <time>2015-05-17T11:39:29.608Z</time>
      </trkpt>
      <trkpt lat="48.12126" lon="6.92896">
        <ele>940</ele>
        <time>2015-05-17T11:39:43.606Z</time>
      </trkpt>
      <trkpt lat="48.12129" lon="6.92847">
        <ele>938</ele>
        <time>2015-05-17T11:40:07.604Z</time>
      </trkpt>
      <trkpt lat="48.12129" lon="6.92807">
        <ele>934</ele>
        <time>2015-05-17T11:40:26.603Z</time>
      </trkpt>
      <trkpt lat="48.12142" lon="6.92766">
        <ele>930</ele>
        <time>2015-05-17T11:41:02.605Z</time>
      </trkpt>
      <trkpt lat="48.12133" lon="6.92749">
        <ele>925</ele>
        <time>2015-05-17T11:41:16.601Z</time>
      </trkpt>
      <trkpt lat="48.12133" lon="6.92738">
        <ele>924</ele>
        <time>2015-05-17T11:42:16.61Z</time>
      </trkpt>
      <trkpt lat="48.1212" lon="6.92729">
        <ele>926</ele>
        <time>2015-05-17T11:43:02.601Z</time>
      </trkpt>
      <trkpt lat="48.12081" lon="6.92702">
        <ele>937</ele>
        <time>2015-05-17T11:44:02.606Z</time>
      </trkpt>
      <trkpt lat="48.12039" lon="6.92677">
        <ele>940</ele>
        <time>2015-05-17T11:44:50.608Z</time>
      </trkpt>
      <trkpt lat="48.12001" lon="6.9264">
        <ele>936</ele>
        <time>2015-05-17T11:45:32.601Z</time>
      </trkpt>
      <trkpt lat="48.11981" lon="6.92619">
        <ele>947</ele>
        <time>2015-05-17T11:45:53.6Z</time>
      </trkpt>
      <trkpt lat="48.11962" lon="6.92596">
        <ele>948</ele>
        <time>2015-05-17T11:46:10.6Z</time>
      </trkpt>
      <trkpt lat="48.11945" lon="6.9258">
        <ele>944</ele>
        <time>2015-05-17T11:46:28.598Z</time>
      </trkpt>
      <trkpt lat="48.11933" lon="6.92569">
        <ele>946</ele>
        <time>2015-05-17T11:46:36.598Z</time>
      </trkpt>
      <trkpt lat="48.11895" lon="6.92536">
        <ele>956</ele>
        <time>2015-05-17T11:47:36.603Z</time>
      </trkpt>
      <trkpt lat="48.11899" lon="6.92526">
        <ele>955</ele>
        <time>2015-05-17T11:48:37.6Z</time>
      </trkpt>
      <trkpt lat="48.11902" lon="6.92505">
        <ele>950</ele>
        <time>2015-05-17T11:48:59.599Z</time>
      </trkpt>
      <trkpt lat="48.11887" lon="6.92439">
        <ele>945</ele>
        <time>2015-05-17T11:49:37.608Z</time>
      </trkpt>
      <trkpt lat="48.11879" lon="6.92417">
        <ele>946</ele>
        <time>2015-05-17T11:49:50.605Z</time>
      </trkpt>
      <trkpt lat="48.11873" lon="6.92398">
        <ele>941</ele>
        <time>2015-05-17T11:50:01.603Z</time>
      </trkpt>
      <trkpt lat="48.11861" lon="6.92384">
        <ele>942</ele>
        <time>2015-05-17T11:50:12.605Z</time>
      </trkpt>
      <trkpt lat="48.11856" lon="6.92364">
        <ele>942</ele>
        <time>2015-05-17T11:50:25.603Z</time>
      </trkpt>
      <trkpt lat="48.11838" lon="6.92313">
        <ele>939</ele>
        <time>2015-05-17T11:50:54.598Z</time>
      </trkpt>
      <trkpt lat="48.11834" lon="6.92293">
        <ele>936</ele>
        <time>2015-05-17T11:51:05.601Z</time>
      </trkpt>
      <trkpt lat="48.11816" lon="6.92217">
        <ele>937</ele>
        <time>2015-05-17T11:51:46.61Z</time>
      </trkpt>
      <trkpt lat="48.11798" lon="6.92185">
        <ele>936</ele>
        <time>2015-05-17T11:52:05.596Z</time>
      </trkpt>
      <trkpt lat="48.11766" lon="6.92138">
        <ele>933</ele>
        <time>2015-05-17T11:52:40.6Z</time>
      </trkpt>
      <trkpt lat="48.11753" lon="6.9213">
        <ele>933</ele>
        <time>2015-05-17T11:52:49.598Z</time>
      </trkpt>
      <trkpt lat="48.11709" lon="6.92097">
        <ele>940</ele>
        <time>2015-05-17T11:53:26.598Z</time>
      </trkpt>
      <trkpt lat="48.11695" lon="6.9209">
        <ele>940</ele>
        <time>2015-05-17T11:53:36.598Z</time>
      </trkpt>
      <trkpt lat="48.11635" lon="6.92054">
        <ele>938</ele>
        <time>2015-05-17T11:54:21.599Z</time>
      </trkpt>
      <trkpt lat="48.11604" lon="6.92041">
        <ele>938</ele>
        <time>2015-05-17T11:54:42.598Z</time>
      </trkpt>
      <trkpt lat="48.11592" lon="6.92025">
        <ele>938</ele>
        <time>2015-05-17T11:55:04.596Z</time>
      </trkpt>
      <trkpt lat="48.11586" lon="6.92003">
        <ele>938</ele>
        <time>2015-05-17T11:55:15.596Z</time>
      </trkpt>
      <trkpt lat="48.11576" lon="6.91928">
        <ele>938</ele>
        <time>2015-05-17T11:55:54.599Z</time>
      </trkpt>
      <trkpt lat="48.11573" lon="6.91908">
        <ele>937</ele>
        <time>2015-05-17T11:56:04.599Z</time>
      </trkpt>
      <trkpt lat="48.11565" lon="6.9189">
        <ele>938</ele>
        <time>2015-05-17T11:56:13.595Z</time>
      </trkpt>
      <trkpt lat="48.11557" lon="6.91866">
        <ele>939</ele>
        <time>2015-05-17T11:56:28.596Z</time>
      </trkpt>
      <trkpt lat="48.11542" lon="6.91808">
        <ele>937</ele>
        <time>2015-05-17T11:56:57.596Z</time>
      </trkpt>
      <trkpt lat="48.11491" lon="6.917">
        <ele>940</ele>
        <time>2015-05-17T11:57:57.596Z</time>
      </trkpt>
      <trkpt lat="48.11482" lon="6.91685">
        <ele>940</ele>
        <time>2015-05-17T11:58:06.595Z</time>
      </trkpt>
      <trkpt lat="48.11474" lon="6.91666">
        <ele>935</ele>
        <time>2015-05-17T11:58:22.595Z</time>
      </trkpt>
      <trkpt lat="48.11481" lon="6.91675">
        <ele>939</ele>
        <time>2015-05-17T11:59:22.61Z</time>
      </trkpt>
      <trkpt lat="48.11491" lon="6.91694">
        <ele>940</ele>
        <time>2015-05-17T12:00:23.596Z</time>
      </trkpt>
      <trkpt lat="48.11494" lon="6.91695">
        <ele>940</ele>
        <time>2015-05-17T12:01:23.613Z</time>
      </trkpt>
      <trkpt lat="48.11491" lon="6.91697">
        <ele>940</ele>
        <time>2015-05-17T12:02:24.601Z</time>
      </trkpt>
      <trkpt lat="48.11531" lon="6.91705">
        <ele>933</ele>
        <time>2015-05-17T12:03:24.605Z</time>
      </trkpt>
      <trkpt lat="48.11571" lon="6.91669">
        <ele>927</ele>
        <time>2015-05-17T12:04:10.6Z</time>
      </trkpt>
      <trkpt lat="48.11586" lon="6.91623">
        <ele>915</ele>
        <time>2015-05-17T12:05:11.6Z</time>
      </trkpt>
      <trkpt lat="48.1155" lon="6.91573">
        <ele>915</ele>
        <time>2015-05-17T12:05:58.599Z</time>
      </trkpt>
      <trkpt lat="48.11543" lon="6.91566">
        <ele>916</ele>
        <time>2015-05-17T12:06:04.616Z</time>
      </trkpt>
      <trkpt lat="48.11373" lon="6.91587">
        <ele>924</ele>
        <time>2015-05-17T12:08:50.595Z</time>
      </trkpt>
      <trkpt lat="48.11336" lon="6.91632">
        <ele>926</ele>
        <time>2015-05-17T12:09:27.595Z</time>
      </trkpt>
      <trkpt lat="48.11325" lon="6.91646">
        <ele>919</ele>
        <time>2015-05-17T12:09:35.593Z</time>
      </trkpt>
      <trkpt lat="48.11289" lon="6.91686">
        <ele>929</ele>
        <time>2015-05-17T12:10:05.59Z</time>
      </trkpt>
      <trkpt lat="48.11267" lon="6.91703">
        <ele>928</ele>
        <time>2015-05-17T12:10:15.589Z</time>
      </trkpt>
      <trkpt lat="48.11213" lon="6.917">
        <ele>924</ele>
        <time>2015-05-17T12:10:53.593Z</time>
      </trkpt>
      <trkpt lat="48.112" lon="6.91704">
        <ele>925</ele>
        <time>2015-05-17T12:11:04.59Z</time>
      </trkpt>
      <trkpt lat="48.11165" lon="6.91663">
        <ele>927</ele>
        <time>2015-05-17T12:12:01.59Z</time>
      </trkpt>
      <trkpt lat="48.11154" lon="6.91618">
        <ele>932</ele>
        <time>2015-05-17T12:12:49.609Z</time>
      </trkpt>
      <trkpt lat="48.11132" lon="6.9157">
        <ele>929</ele>
        <time>2015-05-17T12:13:22.591Z</time>
      </trkpt>
      <trkpt lat="48.11108" lon="6.91514">
        <ele>933</ele>
        <time>2015-05-17T12:14:13.589Z</time>
      </trkpt>
      <trkpt lat="48.11097" lon="6.91476">
        <ele>928</ele>
        <time>2015-05-17T12:14:38.59Z</time>
      </trkpt>
      <trkpt lat="48.11089" lon="6.91458">
        <ele>927</ele>
        <time>2015-05-17T12:14:47.589Z</time>
      </trkpt>
      <trkpt lat="48.11078" lon="6.91446">
        <ele>943</ele>
        <time>2015-05-17T12:14:54.589Z</time>
      </trkpt>
      <trkpt lat="48.11073" lon="6.91424">
        <ele>940</ele>
        <time>2015-05-17T12:15:08.588Z</time>
      </trkpt>
      <trkpt lat="48.11064" lon="6.91408">
        <ele>938</ele>
        <time>2015-05-17T12:15:17.589Z</time>
      </trkpt>
      <trkpt lat="48.11032" lon="6.91362">
        <ele>941</ele>
        <time>2015-05-17T12:16:06.589Z</time>
      </trkpt>
      <trkpt lat="48.10994" lon="6.91324">
        <ele>949</ele>
        <time>2015-05-17T12:16:53.59Z</time>
      </trkpt>
      <trkpt lat="48.10971" lon="6.91315">
        <ele>948</ele>
        <time>2015-05-17T12:17:53.596Z</time>
      </trkpt>
      <trkpt lat="48.10947" lon="6.91305">
        <ele>948</ele>
        <time>2015-05-17T12:18:54.59Z</time>
      </trkpt>
      <trkpt lat="48.1095" lon="6.91307">
        <ele>948</ele>
        <time>2015-05-17T12:19:54.59Z</time>
      </trkpt>
      <trkpt lat="48.10936" lon="6.91298">
        <ele>948</ele>
        <time>2015-05-17T12:20:02.589Z</time>
      </trkpt>
      <trkpt lat="48.10912" lon="6.91292">
        <ele>950</ele>
        <time>2015-05-17T12:20:20.591Z</time>
      </trkpt>
      <trkpt lat="48.10889" lon="6.91278">
        <ele>949</ele>
        <time>2015-05-17T12:20:49.591Z</time>
      </trkpt>
      <trkpt lat="48.10881" lon="6.91261">
        <ele>948</ele>
        <time>2015-05-17T12:21:00.596Z</time>
      </trkpt>
      <trkpt lat="48.10867" lon="6.91251">
        <ele>948</ele>
        <time>2015-05-17T12:21:09.604Z</time>
      </trkpt>
      <trkpt lat="48.10841" lon="6.91232">
        <ele>943</ele>
        <time>2015-05-17T12:21:30.598Z</time>
      </trkpt>
      <trkpt lat="48.10822" lon="6.91202">
        <ele>939</ele>
        <time>2015-05-17T12:21:47.6Z</time>
      </trkpt>
      <trkpt lat="48.10804" lon="6.91202">
        <ele>938</ele>
        <time>2015-05-17T12:22:00.59Z</time>
      </trkpt>
      <trkpt lat="48.10774" lon="6.91205">
        <ele>936</ele>
        <time>2015-05-17T12:22:25.586Z</time>
      </trkpt>
      <trkpt lat="48.10748" lon="6.9122">
        <ele>930</ele>
        <time>2015-05-17T12:22:51.585Z</time>
      </trkpt>
      <trkpt lat="48.10733" lon="6.91228">
        <ele>930</ele>
        <time>2015-05-17T12:23:51.593Z</time>
      </trkpt>
      <trkpt lat="48.10739" lon="6.91236">
        <ele>931</ele>
        <time>2015-05-17T12:24:51.603Z</time>
      </trkpt>
      <trkpt lat="48.10739" lon="6.91239">
        <ele>932</ele>
        <time>2015-05-17T12:25:52.603Z</time>
      </trkpt>
      <trkpt lat="48.1073" lon="6.91199">
        <ele>929</ele>
        <time>2015-05-17T12:26:15.596Z</time>
      </trkpt>
      <trkpt lat="48.10703" lon="6.91168">
        <ele>926</ele>
        <time>2015-05-17T12:26:43.596Z</time>
      </trkpt>
      <trkpt lat="48.10688" lon="6.91175">
        <ele>925</ele>
        <time>2015-05-17T12:26:53.598Z</time>
      </trkpt>
      <trkpt lat="48.10674" lon="6.91167">
        <ele>920</ele>
        <time>2015-05-17T12:27:08.595Z</time>
      </trkpt>
      <trkpt lat="48.1063" lon="6.91142">
        <ele>909</ele>
        <time>2015-05-17T12:27:42.598Z</time>
      </trkpt>
      <trkpt lat="48.10597" lon="6.91152">
        <ele>907</ele>
        <time>2015-05-17T12:28:19.594Z</time>
      </trkpt>
      <trkpt lat="48.10582" lon="6.9116">
        <ele>903</ele>
        <time>2015-05-17T12:28:28.594Z</time>
      </trkpt>
      <trkpt lat="48.10561" lon="6.91166">
        <ele>901</ele>
        <time>2015-05-17T12:28:48.594Z</time>
      </trkpt>
      <trkpt lat="48.10519" lon="6.91166">
        <ele>898</ele>
        <time>2015-05-17T12:29:19.59Z</time>
      </trkpt>
      <trkpt lat="48.10474" lon="6.91126">
        <ele>891</ele>
        <time>2015-05-17T12:29:59.593Z</time>
      </trkpt>
      <trkpt lat="48.10466" lon="6.9111">
        <ele>891</ele>
        <time>2015-05-17T12:30:08.59Z</time>
      </trkpt>
      <trkpt lat="48.10422" lon="6.91081">
        <ele>886</ele>
        <time>2015-05-17T12:30:51.593Z</time>
      </trkpt>
      <trkpt lat="48.10384" lon="6.91028">
        <ele>877</ele>
        <time>2015-05-17T12:31:30.588Z</time>
      </trkpt>
      <trkpt lat="48.1037" lon="6.91022">
        <ele>876</ele>
        <time>2015-05-17T12:31:37.588Z</time>
      </trkpt>
      <trkpt lat="48.10353" lon="6.91012">
        <ele>875</ele>
        <time>2015-05-17T12:31:50.59Z</time>
      </trkpt>
      <trkpt lat="48.10335" lon="6.91002">
        <ele>871</ele>
        <time>2015-05-17T12:32:05.593Z</time>
      </trkpt>
      <trkpt lat="48.10291" lon="6.90976">
        <ele>866</ele>
        <time>2015-05-17T12:32:35.589Z</time>
      </trkpt>
      <trkpt lat="48.10246" lon="6.90967">
        <ele>867</ele>
        <time>2015-05-17T12:33:13.588Z</time>
      </trkpt>
      <trkpt lat="48.10229" lon="6.90952">
        <ele>866</ele>
        <time>2015-05-17T12:33:30.59Z</time>
      </trkpt>
      <trkpt lat="48.10191" lon="6.90915">
        <ele>860</ele>
        <time>2015-05-17T12:33:58.593Z</time>
      </trkpt>
      <trkpt lat="48.10178" lon="6.9091">
        <ele>861</ele>
        <time>2015-05-17T12:34:06.59Z</time>
      </trkpt>
      <trkpt lat="48.10138" lon="6.90926">
        <ele>863</ele>
        <time>2015-05-17T12:34:41.589Z</time>
      </trkpt>
      <trkpt lat="48.10107" lon="6.90949">
        <ele>862</ele>
        <time>2015-05-17T12:35:08.589Z</time>
      </trkpt>
      <trkpt lat="48.10095" lon="6.90962">
        <ele>862</ele>
        <time>2015-05-17T12:35:17.586Z</time>
      </trkpt>
      <trkpt lat="48.10056" lon="6.91014">
        <ele>853</ele>
        <time>2015-05-17T12:35:57.588Z</time>
      </trkpt>
      <trkpt lat="48.10039" lon="6.91037">
        <ele>850</ele>
        <time>2015-05-17T12:36:15.586Z</time>
      </trkpt>
      <trkpt lat="48.10002" lon="6.91006">
        <ele>845</ele>
        <time>2015-05-17T12:37:12.585Z</time>
      </trkpt>
      <trkpt lat="48.09998" lon="6.90984">
        <ele>842</ele>
        <time>2015-05-17T12:37:20.585Z</time>
      </trkpt>
      <trkpt lat="48.09986" lon="6.90928">
        <ele>842</ele>
        <time>2015-05-17T12:37:51.585Z</time>
      </trkpt>
      <trkpt lat="48.09981" lon="6.90907">
        <ele>840</ele>
        <time>2015-05-17T12:38:01.586Z</time>
      </trkpt>
      <trkpt lat="48.09968" lon="6.90844">
        <ele>837</ele>
        <time>2015-05-17T12:38:26.586Z</time>
      </trkpt>
      <trkpt lat="48.0996" lon="6.90825">
        <ele>833</ele>
        <time>2015-05-17T12:38:36.586Z</time>
      </trkpt>
      <trkpt lat="48.09948" lon="6.90807">
        <ele>831</ele>
        <time>2015-05-17T12:39:36.589Z</time>
      </trkpt>
      <trkpt lat="48.09949" lon="6.90807">
        <ele>831</ele>
        <time>2015-05-17T12:40:37.586Z</time>
      </trkpt>
      <trkpt lat="48.09944" lon="6.90759">
        <ele>828</ele>
        <time>2015-05-17T12:41:37.591Z</time>
      </trkpt>
      <trkpt lat="48.09939" lon="6.90716">
        <ele>824</ele>
        <time>2015-05-17T12:41:58.593Z</time>
      </trkpt>
      <trkpt lat="48.09935" lon="6.90694">
        <ele>823</ele>
        <time>2015-05-17T12:42:08.595Z</time>
      </trkpt>
      <trkpt lat="48.09924" lon="6.9068">
        <ele>820</ele>
        <time>2015-05-17T12:42:18.595Z</time>
      </trkpt>
      <trkpt lat="48.0992" lon="6.9066">
        <ele>815</ele>
        <time>2015-05-17T12:42:27.595Z</time>
      </trkpt>
      <trkpt lat="48.09905" lon="6.90611">
        <ele>808</ele>
        <time>2015-05-17T12:42:56.595Z</time>
      </trkpt>
      <trkpt lat="48.09898" lon="6.90582">
        <ele>803</ele>
        <time>2015-05-17T12:43:16.595Z</time>
      </trkpt>
      <trkpt lat="48.09894" lon="6.90553">
        <ele>802</ele>
        <time>2015-05-17T12:43:32.599Z</time>
      </trkpt>
      <trkpt lat="48.09897" lon="6.90532">
        <ele>801</ele>
        <time>2015-05-17T12:44:32.606Z</time>
      </trkpt>
      <trkpt lat="48.09888" lon="6.90527">
        <ele>801</ele>
        <time>2015-05-17T12:45:33.598Z</time>
      </trkpt>
      <trkpt lat="48.09883" lon="6.90508">
        <ele>801</ele>
        <time>2015-05-17T12:46:00.596Z</time>
      </trkpt>
      <trkpt lat="48.09848" lon="6.90504">
        <ele>801</ele>
        <time>2015-05-17T12:46:20.598Z</time>
      </trkpt>
      <trkpt lat="48.09835" lon="6.90494">
        <ele>799</ele>
        <time>2015-05-17T12:46:32.599Z</time>
      </trkpt>
      <trkpt lat="48.09821" lon="6.90478">
        <ele>804</ele>
        <time>2015-05-17T12:46:48.598Z</time>
      </trkpt>
      <trkpt lat="48.09769" lon="6.90421">
        <ele>808</ele>
        <time>2015-05-17T12:47:34.598Z</time>
      </trkpt>
      <trkpt lat="48.0973" lon="6.90404">
        <ele>810</ele>
        <time>2015-05-17T12:48:34.603Z</time>
      </trkpt>
      <trkpt lat="48.09715" lon="6.90405">
        <ele>811</ele>
        <time>2015-05-17T12:49:35.599Z</time>
      </trkpt>
      <trkpt lat="48.09714" lon="6.90389">
        <ele>810</ele>
        <time>2015-05-17T12:50:35.601Z</time>
      </trkpt>
      <trkpt lat="48.09714" lon="6.9039">
        <ele>810</ele>
        <time>2015-05-17T12:51:35.601Z</time>
      </trkpt>
      <trkpt lat="48.09723" lon="6.90415">
        <ele>811</ele>
        <time>2015-05-17T12:52:36.606Z</time>
      </trkpt>
      <trkpt lat="48.09722" lon="6.90436">
        <ele>818</ele>
        <time>2015-05-17T12:53:37.6Z</time>
      </trkpt>
      <trkpt lat="48.09708" lon="6.90478">
        <ele>822</ele>
        <time>2015-05-17T12:54:37.604Z</time>
      </trkpt>
      <trkpt lat="48.09681" lon="6.90499">
        <ele>827</ele>
        <time>2015-05-17T12:55:28.6Z</time>
      </trkpt>
      <trkpt lat="48.09636" lon="6.90492">
        <ele>832</ele>
        <time>2015-05-17T12:56:18.61Z</time>
      </trkpt>
      <trkpt lat="48.0962" lon="6.90493">
        <ele>833</ele>
        <time>2015-05-17T12:56:31.6Z</time>
      </trkpt>
      <trkpt lat="48.09574" lon="6.90493">
        <ele>839</ele>
        <time>2015-05-17T12:57:30.6Z</time>
      </trkpt>
      <trkpt lat="48.09525" lon="6.90503">
        <ele>848</ele>
        <time>2015-05-17T12:58:16.598Z</time>
      </trkpt>
      <trkpt lat="48.09492" lon="6.905">
        <ele>847</ele>
        <time>2015-05-17T12:58:48.599Z</time>
      </trkpt>
      <trkpt lat="48.09445" lon="6.90522">
        <ele>851</ele>
        <time>2015-05-17T12:59:46.595Z</time>
      </trkpt>
      <trkpt lat="48.0943" lon="6.90526">
        <ele>851</ele>
        <time>2015-05-17T12:59:54.595Z</time>
      </trkpt>
      <trkpt lat="48.09422" lon="6.90547">
        <ele>855</ele>
        <time>2015-05-17T13:00:03.594Z</time>
      </trkpt>
      <trkpt lat="48.094" lon="6.9056">
        <ele>858</ele>
        <time>2015-05-17T13:00:28.599Z</time>
      </trkpt>
      <trkpt lat="48.09354" lon="6.90579">
        <ele>860</ele>
        <time>2015-05-17T13:01:13.591Z</time>
      </trkpt>
      <trkpt lat="48.09331" lon="6.90599">
        <ele>870</ele>
        <time>2015-05-17T13:01:37.594Z</time>
      </trkpt>
      <trkpt lat="48.09295" lon="6.9064">
        <ele>876</ele>
        <time>2015-05-17T13:02:30.593Z</time>
      </trkpt>
      <trkpt lat="48.09277" lon="6.90643">
        <ele>875</ele>
        <time>2015-05-17T13:03:30.595Z</time>
      </trkpt>
      <trkpt lat="48.0928" lon="6.9064">
        <ele>875</ele>
        <time>2015-05-17T13:04:30.6Z</time>
      </trkpt>
      <trkpt lat="48.09255" lon="6.90681">
        <ele>888</ele>
        <time>2015-05-17T13:05:31.6Z</time>
      </trkpt>
      <trkpt lat="48.0923" lon="6.90699">
        <ele>895</ele>
        <time>2015-05-17T13:05:53.594Z</time>
      </trkpt>
      <trkpt lat="48.09218" lon="6.90681">
        <ele>892</ele>
        <time>2015-05-17T13:06:14.594Z</time>
      </trkpt>
      <trkpt lat="48.092" lon="6.90696">
        <ele>895</ele>
        <time>2015-05-17T13:06:30.594Z</time>
      </trkpt>
      <trkpt lat="48.09151" lon="6.90714">
        <ele>898</ele>
        <time>2015-05-17T13:07:21.594Z</time>
      </trkpt>
      <trkpt lat="48.0911" lon="6.9073">
        <ele>898</ele>
        <time>2015-05-17T13:08:21.595Z</time>
      </trkpt>
      <trkpt lat="48.09098" lon="6.90715">
        <ele>896</ele>
        <time>2015-05-17T13:08:33.6Z</time>
      </trkpt>
      <trkpt lat="48.09095" lon="6.90732">
        <ele>899</ele>
        <time>2015-05-17T13:09:34.593Z</time>
      </trkpt>
      <trkpt lat="48.0909" lon="6.90719">
        <ele>896</ele>
        <time>2015-05-17T13:10:34.596Z</time>
      </trkpt>
      <trkpt lat="48.09092" lon="6.90724">
        <ele>898</ele>
        <time>2015-05-17T13:11:35.593Z</time>
      </trkpt>
      <trkpt lat="48.09094" lon="6.90736">
        <ele>900</ele>
        <time>2015-05-17T13:12:35.603Z</time>
      </trkpt>
      <trkpt lat="48.09094" lon="6.90735">
        <ele>900</ele>
        <time>2015-05-17T13:13:36.598Z</time>
      </trkpt>
      <trkpt lat="48.09093" lon="6.90735">
        <ele>900</ele>
        <time>2015-05-17T13:14:36.603Z</time>
      </trkpt>
      <trkpt lat="48.09093" lon="6.90734">
        <ele>900</ele>
        <time>2015-05-17T13:15:37.603Z</time>
      </trkpt>
      <trkpt lat="48.09088" lon="6.90724">
        <ele>898</ele>
        <time>2015-05-17T13:16:37.604Z</time>
      </trkpt>
      <trkpt lat="48.09088" lon="6.90725">
        <ele>898</ele>
        <time>2015-05-17T13:17:37.608Z</time>
      </trkpt>
      <trkpt lat="48.09094" lon="6.90727">
        <ele>898</ele>
        <time>2015-05-17T13:18:37.613Z</time>
      </trkpt>
      <trkpt lat="48.09083" lon="6.90728">
        <ele>893</ele>
        <time>2015-05-17T13:19:38.606Z</time>
      </trkpt>
      <trkpt lat="48.09069" lon="6.90734">
        <ele>894</ele>
        <time>2015-05-17T13:20:15.605Z</time>
      </trkpt>
      <trkpt lat="48.09067" lon="6.90755">
        <ele>908</ele>
        <time>2015-05-17T13:20:24.608Z</time>
      </trkpt>
      <trkpt lat="48.09058" lon="6.90781">
        <ele>911</ele>
        <time>2015-05-17T13:20:48.606Z</time>
      </trkpt>
      <trkpt lat="48.09025" lon="6.90782">
        <ele>908</ele>
        <time>2015-05-17T13:21:36.604Z</time>
      </trkpt>
      <trkpt lat="48.08985" lon="6.90784">
        <ele>895</ele>
        <time>2015-05-17T13:22:17.603Z</time>
      </trkpt>
      <trkpt lat="48.08958" lon="6.90793">
        <ele>893</ele>
        <time>2015-05-17T13:22:45.6Z</time>
      </trkpt>
      <trkpt lat="48.08946" lon="6.90809">
        <ele>893</ele>
        <time>2015-05-17T13:22:58.6Z</time>
      </trkpt>
      <trkpt lat="48.0894" lon="6.90789">
        <ele>890</ele>
        <time>2015-05-17T13:23:58.601Z</time>
      </trkpt>
      <trkpt lat="48.0893" lon="6.90769">
        <ele>885</ele>
        <time>2015-05-17T13:24:12.598Z</time>
      </trkpt>
      <trkpt lat="48.08937" lon="6.90751">
        <ele>884</ele>
        <time>2015-05-17T13:24:34.598Z</time>
      </trkpt>
      <trkpt lat="48.08935" lon="6.9073">
        <ele>872</ele>
        <time>2015-05-17T13:24:51.596Z</time>
      </trkpt>
      <trkpt lat="48.08916" lon="6.90725">
        <ele>855</ele>
        <time>2015-05-17T13:24:56.595Z</time>
      </trkpt>
      <trkpt lat="48.089" lon="6.90737">
        <ele>856</ele>
        <time>2015-05-17T13:25:09.595Z</time>
      </trkpt>
      <trkpt lat="48.08886" lon="6.90758">
        <ele>863</ele>
        <time>2015-05-17T13:25:29.594Z</time>
      </trkpt>
      <trkpt lat="48.08872" lon="6.90768">
        <ele>860</ele>
        <time>2015-05-17T13:25:48.594Z</time>
      </trkpt>
      <trkpt lat="48.08858" lon="6.90766">
        <ele>855</ele>
        <time>2015-05-17T13:25:56.595Z</time>
      </trkpt>
      <trkpt lat="48.08849" lon="6.90782">
        <ele>855</ele>
        <time>2015-05-17T13:26:04.594Z</time>
      </trkpt>
      <trkpt lat="48.08816" lon="6.90831">
        <ele>836</ele>
        <time>2015-05-17T13:26:53.593Z</time>
      </trkpt>
      <trkpt lat="48.08808" lon="6.90853">
        <ele>839</ele>
        <time>2015-05-17T13:27:07.591Z</time>
      </trkpt>
      <trkpt lat="48.08775" lon="6.90915">
        <ele>832</ele>
        <time>2015-05-17T13:27:56.59Z</time>
      </trkpt>
      <trkpt lat="48.08764" lon="6.90901">
        <ele>830</ele>
        <time>2015-05-17T13:28:56.591Z</time>
      </trkpt>
      <trkpt lat="48.08763" lon="6.90911">
        <ele>828</ele>
        <time>2015-05-17T13:29:56.595Z</time>
      </trkpt>
      <trkpt lat="48.08749" lon="6.90943">
        <ele>815</ele>
        <time>2015-05-17T13:30:20.595Z</time>
      </trkpt>
      <trkpt lat="48.08728" lon="6.90978">
        <ele>814</ele>
        <time>2015-05-17T13:30:44.595Z</time>
      </trkpt>
      <trkpt lat="48.08725" lon="6.90956">
        <ele>812</ele>
        <time>2015-05-17T13:31:30.593Z</time>
      </trkpt>
      <trkpt lat="48.08724" lon="6.90935">
        <ele>811</ele>
        <time>2015-05-17T13:31:43.594Z</time>
      </trkpt>
      <trkpt lat="48.08718" lon="6.90916">
        <ele>803</ele>
        <time>2015-05-17T13:31:56.593Z</time>
      </trkpt>
      <trkpt lat="48.08701" lon="6.90929">
        <ele>805</ele>
        <time>2015-05-17T13:32:07.593Z</time>
      </trkpt>
      <trkpt lat="48.08685" lon="6.90947">
        <ele>802</ele>
        <time>2015-05-17T13:32:24.591Z</time>
      </trkpt>
      <trkpt lat="48.08665" lon="6.90957">
        <ele>774</ele>
        <time>2015-05-17T13:33:00.59Z</time>
      </trkpt>
      <trkpt lat="48.0865" lon="6.90948">
        <ele>772</ele>
        <time>2015-05-17T13:33:45.59Z</time>
      </trkpt>
      <trkpt lat="48.08635" lon="6.90984">
        <ele>770</ele>
        <time>2015-05-17T13:34:18.59Z</time>
      </trkpt>
      <trkpt lat="48.08636" lon="6.90963">
        <ele>768</ele>
        <time>2015-05-17T13:34:50.59Z</time>
      </trkpt>
      <trkpt lat="48.08624" lon="6.90953">
        <ele>764</ele>
        <time>2015-05-17T13:34:58.59Z</time>
      </trkpt>
      <trkpt lat="48.0862" lon="6.90998">
        <ele>764</ele>
        <time>2015-05-17T13:35:48.589Z</time>
      </trkpt>
      <trkpt lat="48.08621" lon="6.90978">
        <ele>764</ele>
        <time>2015-05-17T13:35:57.588Z</time>
      </trkpt>
      <trkpt lat="48.08607" lon="6.90966">
        <ele>760</ele>
        <time>2015-05-17T13:36:04.588Z</time>
      </trkpt>
      <trkpt lat="48.08594" lon="6.90971">
        <ele>757</ele>
        <time>2015-05-17T13:36:08.59Z</time>
      </trkpt>
      <trkpt lat="48.08591" lon="6.90993">
        <ele>751</ele>
        <time>2015-05-17T13:36:22.588Z</time>
      </trkpt>
      <trkpt lat="48.08577" lon="6.90994">
        <ele>736</ele>
        <time>2015-05-17T13:37:04.588Z</time>
      </trkpt>
      <trkpt lat="48.08574" lon="6.90971">
        <ele>729</ele>
        <time>2015-05-17T13:37:39.588Z</time>
      </trkpt>
      <trkpt lat="48.08562" lon="6.90958">
        <ele>726</ele>
        <time>2015-05-17T13:37:46.586Z</time>
      </trkpt>
      <trkpt lat="48.0855" lon="6.90965">
        <ele>723</ele>
        <time>2015-05-17T13:38:04.589Z</time>
      </trkpt>
      <trkpt lat="48.08548" lon="6.90942">
        <ele>723</ele>
        <time>2015-05-17T13:38:33.585Z</time>
      </trkpt>
      <trkpt lat="48.08551" lon="6.9089">
        <ele>723</ele>
        <time>2015-05-17T13:39:04.585Z</time>
      </trkpt>
      <trkpt lat="48.08539" lon="6.90877">
        <ele>721</ele>
        <time>2015-05-17T13:39:13.585Z</time>
      </trkpt>
      <trkpt lat="48.08525" lon="6.90876">
        <ele>719</ele>
        <time>2015-05-17T13:39:20.585Z</time>
      </trkpt>
      <trkpt lat="48.08509" lon="6.9088">
        <ele>716</ele>
        <time>2015-05-17T13:40:03.585Z</time>
      </trkpt>
      <trkpt lat="48.08505" lon="6.909">
        <ele>712</ele>
        <time>2015-05-17T13:40:13.585Z</time>
      </trkpt>
      <trkpt lat="48.08506" lon="6.90922">
        <ele>709</ele>
        <time>2015-05-17T13:40:25.588Z</time>
      </trkpt>
      <trkpt lat="48.085" lon="6.9094">
        <ele>701</ele>
        <time>2015-05-17T13:40:38.585Z</time>
      </trkpt>
      <trkpt lat="48.08498" lon="6.9096">
        <ele>700</ele>
        <time>2015-05-17T13:41:38.586Z</time>
      </trkpt>
      <trkpt lat="48.08485" lon="6.90957">
        <ele>700</ele>
        <time>2015-05-17T13:41:48.589Z</time>
      </trkpt>
      <trkpt lat="48.08471" lon="6.90965">
        <ele>699</ele>
        <time>2015-05-17T13:41:59.586Z</time>
      </trkpt>
      <trkpt lat="48.08453" lon="6.90978">
        <ele>698</ele>
        <time>2015-05-17T13:42:20.588Z</time>
      </trkpt>
      <trkpt lat="48.08432" lon="6.90977">
        <ele>697</ele>
        <time>2015-05-17T13:42:34.586Z</time>
      </trkpt>
      <trkpt lat="48.08418" lon="6.90973">
        <ele>697</ele>
        <time>2015-05-17T13:42:46.588Z</time>
      </trkpt>
      <trkpt lat="48.08411" lon="6.90946">
        <ele>694</ele>
        <time>2015-05-17T13:43:12.589Z</time>
      </trkpt>
      <trkpt lat="48.08405" lon="6.90947">
        <ele>694</ele>
        <time>2015-05-17T13:43:32.593Z</time>
      </trkpt>
    </trkseg>
  </trk>
</gpx>